Time,TemperatureF,DewpointF,PressureIn,WindDirection,WindDirectionDegrees,WindSpeedMPH,WindSpeedGustMPH,Humidity,HourlyPrecipIn,Conditions,Clouds,dailyrainin,SoftwareType,DateUTC
2014-03-04 00:00:00,12.7,-5.0,29.59,WSW,248,0.0,0.0,44,0.00,,---,0.00,VWS V14.01,2014-03-04 05:00:00,
2014-03-04 00:01:00,12.7,-5.0,29.59,West,270,0.0,0.0,44,0.00,,---,0.00,VWS V14.01,2014-03-04 05:01:00,
2014-03-04 00:02:00,12.7,-5.0,29.59,NNE,22,3.4,3.4,44,0.00,,---,0.00,VWS V14.01,2014-03-04 05:02:00,
2014-03-04 00:03:00,12.7,-5.0,29.59,ESE,112,0.0,1.1,44,0.00,,---,0.00,VWS V14.01,2014-03-04 05:03:00,
2014-03-04 00:04:00,12.7,-5.0,29.59,WSW,248,0.0,2.2,44,0.00,,---,0.00,VWS V14.01,2014-03-04 05:04:00,
2014-03-04 00:05:00,12.7,-5.0,29.59,East,90,0.0,0.0,44,0.00,,---,0.00,VWS V14.01,2014-03-04 05:05:00,
2014-03-04 00:06:00,12.7,-5.0,29.59,East,90,0.0,0.0,44,0.00,,---,0.00,VWS V14.01,2014-03-04 05:06:00,
2014-03-04 00:07:00,12.7,-5.0,29.59,ESE,112,0.0,0.0,44,0.00,,---,0.00,VWS V14.01,2014-03-04 05:07:00,
2014-03-04 00:08:00,12.7,-5.0,29.59,ESE,112,0.0,0.0,44,0.00,,---,0.00,VWS V14.01,2014-03-04 05:08:00,
2014-03-04 00:09:00,12.6,-5.2,29.59,WNW,292,0.0,0.0,44,0.00,,---,0.00,VWS V14.01,2014-03-04 05:09:00,
2014-03-04 00:10:00,12.6,-5.2,29.59,SSW,202,0.0,0.0,44,0.00,,---,0.00,VWS V14.01,2014-03-04 05:10:00,
2014-03-04 00:11:00,11.3,-6.4,29.59,WNW,292,2.5,2.5,44,0.00,,---,0.00,VWS V14.01,2014-03-04 05:11:00,
2014-03-04 00:12:00,12.6,-5.2,29.59,WNW,292,1.1,1.1,44,0.00,,---,0.00,VWS V14.01,2014-03-04 05:12:00,
2014-03-04 00:13:00,12.6,-5.2,29.59,ESE,112,2.5,2.5,44,0.00,,---,0.00,VWS V14.01,2014-03-04 05:13:00,
2014-03-04 00:14:00,12.6,-5.2,29.59,East,90,0.0,2.5,44,0.00,,---,0.00,VWS V14.01,2014-03-04 05:14:00,
2014-03-04 00:15:00,12.6,-5.2,29.59,NNW,338,1.6,2.0,44,0.00,,---,0.00,VWS V14.01,2014-03-04 05:15:00,
2014-03-04 00:16:00,12.6,-5.2,29.59,WNW,292,0.0,1.6,44,0.00,,---,0.00,VWS V14.01,2014-03-04 05:16:00,
2014-03-04 00:17:00,12.6,-5.2,29.59,South,180,0.0,0.0,44,0.00,,---,0.00,VWS V14.01,2014-03-04 05:17:00,
2014-03-04 00:18:00,12.6,-5.2,29.59,East,90,0.0,0.0,44,0.00,,---,0.00,VWS V14.01,2014-03-04 05:18:00,
2014-03-04 00:19:00,12.4,-5.4,29.59,NE,45,0.0,0.0,44,0.00,,---,0.00,VWS V14.01,2014-03-04 05:19:00,
2014-03-04 00:20:00,12.4,-5.4,29.59,WNW,292,2.0,2.0,44,0.00,,---,0.00,VWS V14.01,2014-03-04 05:20:00,
2014-03-04 00:21:00,12.2,-5.5,29.59,ENE,68,0.0,2.0,44,0.00,,---,0.00,VWS V14.01,2014-03-04 05:21:00,
2014-03-04 00:22:00,12.2,-5.5,29.59,East,90,1.6,1.6,44,0.00,,---,0.00,VWS V14.01,2014-03-04 05:22:00,
2014-03-04 00:23:00,12.4,-5.4,29.59,SW,225,0.0,1.6,44,0.00,,---,0.00,VWS V14.01,2014-03-04 05:23:00,
2014-03-04 00:24:00,12.4,-5.4,29.59,SW,225,0.0,0.0,44,0.00,,---,0.00,VWS V14.01,2014-03-04 05:24:00,
2014-03-04 00:25:00,12.2,-5.5,29.59,West,270,0.0,0.9,44,0.00,,---,0.00,VWS V14.01,2014-03-04 05:25:00,
2014-03-04 00:26:00,12.2,-5.5,29.59,West,270,2.7,2.7,44,0.00,,---,0.00,VWS V14.01,2014-03-04 05:26:00,
2014-03-04 00:27:00,12.2,-5.5,29.59,SSE,158,2.9,2.9,44,0.00,,---,0.00,VWS V14.01,2014-03-04 05:27:00,
2014-03-04 00:28:00,12.2,-5.5,29.59,WNW,292,2.7,2.7,44,0.00,,---,0.00,VWS V14.01,2014-03-04 05:28:00,
2014-03-04 00:29:00,12.2,-5.5,29.59,ENE,68,0.0,2.9,44,0.00,,---,0.00,VWS V14.01,2014-03-04 05:29:00,
2014-03-04 00:30:00,12.2,-5.5,29.59,NE,45,2.2,2.2,44,0.00,,---,0.00,VWS V14.01,2014-03-04 05:30:00,
2014-03-04 00:31:00,12.0,-5.7,29.59,WNW,292,0.0,2.2,44,0.00,,---,0.00,VWS V14.01,2014-03-04 05:31:00,
2014-03-04 00:32:00,12.0,-5.7,29.59,WNW,292,0.0,0.0,44,0.00,,---,0.00,VWS V14.01,2014-03-04 05:32:00,
2014-03-04 00:33:00,12.0,-5.7,29.59,WNW,292,0.0,0.0,44,0.00,,---,0.00,VWS V14.01,2014-03-04 05:33:00,
2014-03-04 00:34:00,12.0,-5.7,29.59,WNW,292,0.9,0.9,44,0.00,,---,0.00,VWS V14.01,2014-03-04 05:34:00,
2014-03-04 00:35:00,12.0,-5.7,29.59,NNE,22,1.1,2.7,44,0.00,,---,0.00,VWS V14.01,2014-03-04 05:35:00,
2014-03-04 00:36:00,12.0,-5.7,29.59,NW,315,2.2,2.2,44,0.00,,---,0.00,VWS V14.01,2014-03-04 05:36:00,
2014-03-04 00:37:00,11.8,-5.9,29.59,West,270,2.5,2.5,44,0.00,,---,0.00,VWS V14.01,2014-03-04 05:37:00,
2014-03-04 00:38:00,11.8,-5.9,29.59,NW,315,1.3,2.5,44,0.00,,---,0.00,VWS V14.01,2014-03-04 05:38:00,
2014-03-04 00:39:00,10.8,-6.9,29.59,WNW,292,2.7,2.7,44,0.00,,---,0.00,VWS V14.01,2014-03-04 05:39:00,
2014-03-04 00:40:00,11.8,-5.9,29.59,ESE,112,0.0,1.3,44,0.00,,---,0.00,VWS V14.01,2014-03-04 05:40:00,
2014-03-04 00:41:00,11.8,-5.9,29.59,WNW,292,0.9,0.9,44,0.00,,---,0.00,VWS V14.01,2014-03-04 05:41:00,
2014-03-04 00:42:00,11.8,-5.9,29.59,West,270,0.0,0.9,44,0.00,,---,0.00,VWS V14.01,2014-03-04 05:42:00,
2014-03-04 00:43:00,11.8,-5.9,29.59,NW,315,0.9,2.9,44,0.00,,---,0.00,VWS V14.01,2014-03-04 05:43:00,
2014-03-04 00:44:00,11.8,-5.9,29.59,NNE,22,2.5,2.5,44,0.00,,---,0.00,VWS V14.01,2014-03-04 05:44:00,
2014-03-04 00:45:00,11.8,-5.9,29.59,NNW,338,2.9,2.9,44,0.00,,---,0.00,VWS V14.01,2014-03-04 05:45:00,
2014-03-04 00:46:00,11.7,-6.0,29.59,West,270,1.6,2.9,44,0.00,,---,0.00,VWS V14.01,2014-03-04 05:46:00,
2014-03-04 00:47:00,11.7,-6.0,29.59,WSW,248,1.3,1.6,44,0.00,,---,0.00,VWS V14.01,2014-03-04 05:47:00,
2014-03-04 00:48:00,11.7,-6.0,29.59,WNW,292,0.0,0.0,44,0.00,,---,0.00,VWS V14.01,2014-03-04 05:48:00,
2014-03-04 00:49:00,11.7,-6.0,29.59,NW,315,2.0,2.0,44,0.00,,---,0.00,VWS V14.01,2014-03-04 05:49:00,
2014-03-04 00:50:00,11.7,-6.0,29.59,ENE,68,0.0,2.0,44,0.00,,---,0.00,VWS V14.01,2014-03-04 05:50:00,
2014-03-04 00:51:00,11.7,-6.0,29.59,North,0,0.0,0.0,44,0.00,,---,0.00,VWS V14.01,2014-03-04 05:51:00,
2014-03-04 00:52:00,11.7,-6.0,29.59,West,270,0.0,0.0,44,0.00,,---,0.00,VWS V14.01,2014-03-04 05:52:00,
2014-03-04 00:53:00,11.5,-6.2,29.59,NW,315,1.3,2.7,44,0.00,,---,0.00,VWS V14.01,2014-03-04 05:53:00,
2014-03-04 00:54:00,11.5,-6.2,29.59,SSW,202,2.0,2.0,44,0.00,,---,0.00,VWS V14.01,2014-03-04 05:54:00,
2014-03-04 00:55:00,11.5,-6.2,29.59,NNW,338,1.1,3.1,44,0.00,,---,0.00,VWS V14.01,2014-03-04 05:55:00,
2014-03-04 00:56:00,11.5,-6.2,29.59,NE,45,0.0,1.1,44,0.00,,---,0.00,VWS V14.01,2014-03-04 05:56:00,
2014-03-04 00:57:00,11.5,-6.2,29.59,NE,45,0.0,1.1,44,0.00,,---,0.00,VWS V14.01,2014-03-04 05:57:00,
2014-03-04 00:58:00,11.3,-6.4,29.59,WSW,248,0.0,2.2,44,0.00,,---,0.00,VWS V14.01,2014-03-04 05:58:00,
2014-03-04 00:59:00,11.3,-6.4,29.59,East,90,0.9,2.2,44,0.00,,---,0.00,VWS V14.01,2014-03-04 05:59:00,
2014-03-04 01:00:00,11.3,-6.4,29.59,WNW,292,2.5,2.5,44,0.00,,---,0.00,VWS V14.01,2014-03-04 06:00:00,
2014-03-04 01:01:00,11.3,-6.4,29.59,NW,315,1.1,1.1,44,0.00,,---,0.00,VWS V14.01,2014-03-04 06:01:00,
2014-03-04 01:02:00,11.3,-6.4,29.59,ENE,68,0.0,2.9,44,0.00,,---,0.00,VWS V14.01,2014-03-04 06:02:00,
2014-03-04 01:03:00,11.3,-6.4,29.59,West,270,0.0,0.9,44,0.00,,---,0.00,VWS V14.01,2014-03-04 06:03:00,
2014-03-04 01:04:00,11.3,-6.4,29.59,North,0,0.0,2.5,44,0.00,,---,0.00,VWS V14.01,2014-03-04 06:04:00,
2014-03-04 01:05:00,11.3,-6.4,29.59,NNW,338,0.0,0.0,44,0.00,,---,0.00,VWS V14.01,2014-03-04 06:05:00,
2014-03-04 01:06:00,11.1,-6.5,29.59,WNW,292,1.6,2.9,44,0.00,,---,0.00,VWS V14.01,2014-03-04 06:06:00,
2014-03-04 01:07:00,11.1,-6.5,29.59,West,270,0.0,1.6,44,0.00,,---,0.00,VWS V14.01,2014-03-04 06:07:00,
2014-03-04 01:08:00,11.1,-6.5,29.59,WNW,292,0.0,0.0,44,0.00,,---,0.00,VWS V14.01,2014-03-04 06:08:00,
2014-03-04 01:09:00,11.1,-6.5,29.59,NE,45,0.0,1.6,44,0.00,,---,0.00,VWS V14.01,2014-03-04 06:09:00,
2014-03-04 01:10:00,11.3,-6.4,29.59,NE,45,1.1,2.0,44,0.00,,---,0.00,VWS V14.01,2014-03-04 06:10:00,
2014-03-04 01:11:00,11.3,-6.4,29.59,WNW,292,2.5,2.5,44,0.00,,---,0.00,VWS V14.01,2014-03-04 06:11:00,
2014-03-04 01:12:00,11.3,-6.4,29.59,NW,315,2.5,2.5,44,0.00,,---,0.00,VWS V14.01,2014-03-04 06:12:00,
2014-03-04 01:13:00,11.1,-6.5,29.59,WNW,292,2.9,2.9,44,0.00,,---,0.00,VWS V14.01,2014-03-04 06:13:00,
2014-03-04 01:14:00,11.1,-6.5,29.59,WNW,292,2.5,3.6,44,0.00,,---,0.00,VWS V14.01,2014-03-04 06:14:00,
2014-03-04 01:15:00,11.1,-6.5,29.59,WNW,292,0.0,2.5,44,0.00,,---,0.00,VWS V14.01,2014-03-04 06:15:00,
2014-03-04 01:16:00,11.1,-6.5,29.59,WNW,292,0.0,2.5,44,0.00,,---,0.00,VWS V14.01,2014-03-04 06:16:00,
2014-03-04 01:17:00,11.1,-6.5,29.59,West,270,2.9,2.9,44,0.00,,---,0.00,VWS V14.01,2014-03-04 06:17:00,
2014-03-04 01:18:00,11.1,-6.5,29.59,West,270,2.9,2.9,44,0.00,,---,0.00,VWS V14.01,2014-03-04 06:18:00,
2014-03-04 01:19:00,10.9,-6.7,29.59,WNW,292,0.9,2.9,44,0.00,,---,0.00,VWS V14.01,2014-03-04 06:19:00,
2014-03-04 01:20:00,10.9,-6.7,29.59,NW,315,0.0,2.0,44,0.00,,---,0.00,VWS V14.01,2014-03-04 06:20:00,
2014-03-04 01:21:00,10.9,-6.7,29.59,NW,315,0.0,0.0,44,0.00,,---,0.00,VWS V14.01,2014-03-04 06:21:00,
2014-03-04 01:22:00,10.9,-6.7,29.59,ESE,112,0.0,0.0,44,0.00,,---,0.00,VWS V14.01,2014-03-04 06:22:00,
2014-03-04 01:23:00,10.9,-6.7,29.59,East,90,2.2,2.9,44,0.00,,---,0.00,VWS V14.01,2014-03-04 06:23:00,
2014-03-04 01:24:00,10.9,-6.7,29.59,WNW,292,1.3,2.2,44,0.00,,---,0.00,VWS V14.01,2014-03-04 06:24:00,
2014-03-04 01:25:00,10.9,-6.7,29.59,West,270,2.5,3.1,44,0.00,,---,0.00,VWS V14.01,2014-03-04 06:25:00,
2014-03-04 01:26:00,10.9,-6.7,29.59,West,270,0.0,2.2,44,0.00,,---,0.00,VWS V14.01,2014-03-04 06:26:00,
2014-03-04 01:27:00,10.9,-6.7,29.59,SW,225,0.0,0.0,44,0.00,,---,0.00,VWS V14.01,2014-03-04 06:27:00,
2014-03-04 01:28:00,10.9,-6.7,29.59,West,270,0.0,0.0,44,0.00,,---,0.00,VWS V14.01,2014-03-04 06:28:00,
2014-03-04 01:29:00,10.9,-6.7,29.59,NW,315,0.0,0.0,44,0.00,,---,0.00,VWS V14.01,2014-03-04 06:29:00,
2014-03-04 01:30:00,10.9,-6.7,29.59,WNW,292,0.9,2.7,44,0.00,,---,0.00,VWS V14.01,2014-03-04 06:30:00,
2014-03-04 01:31:00,10.9,-6.7,29.59,East,90,0.0,0.9,44,0.00,,---,0.00,VWS V14.01,2014-03-04 06:31:00,
2014-03-04 01:32:00,10.9,-6.7,29.59,NNW,338,1.1,2.7,44,0.00,,---,0.00,VWS V14.01,2014-03-04 06:32:00,
2014-03-04 01:33:00,10.8,-6.8,29.59,NW,315,1.6,2.0,44,0.00,,---,0.00,VWS V14.01,2014-03-04 06:33:00,
2014-03-04 01:34:00,10.8,-6.8,29.59,NW,315,3.1,3.1,44,0.00,,---,0.00,VWS V14.01,2014-03-04 06:34:00,
2014-03-04 01:35:00,10.8,-6.8,29.59,West,270,2.9,3.1,44,0.00,,---,0.00,VWS V14.01,2014-03-04 06:35:00,
2014-03-04 01:36:00,10.8,-6.8,29.59,NW,315,2.7,2.7,44,0.00,,---,0.00,VWS V14.01,2014-03-04 06:36:00,
2014-03-04 01:37:00,10.8,-6.8,29.59,West,270,1.6,2.7,44,0.00,,---,0.00,VWS V14.01,2014-03-04 06:37:00,
2014-03-04 01:38:00,10.8,-6.8,29.59,NW,315,2.5,2.9,44,0.00,,---,0.00,VWS V14.01,2014-03-04 06:38:00,
2014-03-04 01:39:00,10.8,-6.8,29.59,WNW,292,2.7,2.7,44,0.00,,---,0.00,VWS V14.01,2014-03-04 06:39:00,
2014-03-04 01:40:00,10.8,-6.8,29.59,WNW,292,1.1,2.7,44,0.00,,---,0.00,VWS V14.01,2014-03-04 06:40:00,
2014-03-04 01:41:00,10.8,-6.8,29.59,East,90,0.0,0.0,44,0.00,,---,0.00,VWS V14.01,2014-03-04 06:41:00,
2014-03-04 01:42:00,10.8,-6.8,29.59,East,90,0.0,0.0,44,0.00,,---,0.00,VWS V14.01,2014-03-04 06:42:00,
2014-03-04 01:43:00,10.8,-6.8,29.59,NE,45,0.0,1.3,44,0.00,,---,0.00,VWS V14.01,2014-03-04 06:43:00,
2014-03-04 01:44:00,10.8,-6.8,29.59,ESE,112,0.0,0.0,44,0.00,,---,0.00,VWS V14.01,2014-03-04 06:44:00,
2014-03-04 01:45:00,10.8,-6.8,29.59,West,270,0.0,0.0,44,0.00,,---,0.00,VWS V14.01,2014-03-04 06:45:00,
2014-03-04 01:46:00,10.8,-6.8,29.59,SE,135,0.9,1.1,44,0.00,,---,0.00,VWS V14.01,2014-03-04 06:46:00,
2014-03-04 01:47:00,10.8,-6.8,29.59,North,0,0.9,1.1,44,0.00,,---,0.00,VWS V14.01,2014-03-04 06:47:00,
2014-03-04 01:48:00,10.8,-6.8,29.59,ENE,68,0.0,0.9,44,0.00,,---,0.00,VWS V14.01,2014-03-04 06:48:00,
2014-03-04 01:49:00,9.3,-8.2,29.62,NW,315,2.5,3.1,44,0.00,,---,0.00,VWS V14.01,2014-03-04 06:49:00,
2014-03-04 01:50:00,10.8,-6.8,29.59,ENE,68,0.0,0.0,44,0.00,,---,0.00,VWS V14.01,2014-03-04 06:50:00,
2014-03-04 01:51:00,10.8,-6.8,29.59,East,90,0.0,0.0,44,0.00,,---,0.00,VWS V14.01,2014-03-04 06:51:00,
2014-03-04 01:52:00,10.8,-6.8,29.59,SSE,158,0.0,0.0,44,0.00,,---,0.00,VWS V14.01,2014-03-04 06:52:00,
2014-03-04 01:53:00,10.8,-6.8,29.59,East,90,0.0,0.0,44,0.00,,---,0.00,VWS V14.01,2014-03-04 06:53:00,
2014-03-04 01:54:00,10.8,-6.8,29.59,East,90,0.0,0.0,44,0.00,,---,0.00,VWS V14.01,2014-03-04 06:54:00,
2014-03-04 01:55:00,10.8,-6.8,29.59,WNW,292,0.0,0.0,44,0.00,,---,0.00,VWS V14.01,2014-03-04 06:55:00,
2014-03-04 01:56:00,10.8,-6.8,29.62,WNW,292,0.0,0.0,44,0.00,,---,0.00,VWS V14.01,2014-03-04 06:56:00,
2014-03-04 01:57:00,10.6,-7.0,29.62,NW,315,0.0,0.0,44,0.00,,---,0.00,VWS V14.01,2014-03-04 06:57:00,
2014-03-04 01:58:00,10.6,-7.0,29.62,NW,315,2.0,3.1,44,0.00,,---,0.00,VWS V14.01,2014-03-04 06:58:00,
2014-03-04 01:59:00,10.6,-7.0,29.62,NW,315,2.5,2.5,44,0.00,,---,0.00,VWS V14.01,2014-03-04 06:59:00,
2014-03-04 02:00:00,10.6,-7.0,29.62,WNW,292,2.0,2.5,44,0.00,,---,0.00,VWS V14.01,2014-03-04 07:00:00,
2014-03-04 02:01:00,10.6,-7.0,29.62,WNW,292,0.0,1.3,44,0.00,,---,0.00,VWS V14.01,2014-03-04 07:01:00,
2014-03-04 02:02:00,10.4,-7.2,29.62,SSE,158,0.0,1.6,44,0.00,,---,0.00,VWS V14.01,2014-03-04 07:02:00,
2014-03-04 02:03:00,10.4,-7.2,29.62,WNW,292,0.0,0.0,44,0.00,,---,0.00,VWS V14.01,2014-03-04 07:03:00,
2014-03-04 02:04:00,10.4,-7.2,29.62,West,270,0.0,0.0,44,0.00,,---,0.00,VWS V14.01,2014-03-04 07:04:00,
2014-03-04 02:05:00,10.2,-7.3,29.62,NW,315,1.1,1.1,44,0.00,,---,0.00,VWS V14.01,2014-03-04 07:05:00,
2014-03-04 02:06:00,10.2,-7.3,29.62,NNW,338,0.0,0.0,44,0.00,,---,0.00,VWS V14.01,2014-03-04 07:06:00,
2014-03-04 02:07:00,10.2,-7.3,29.62,NW,315,0.0,2.0,44,0.00,,---,0.00,VWS V14.01,2014-03-04 07:07:00,
2014-03-04 02:08:00,10.2,-7.3,29.62,North,0,1.1,1.1,44,0.00,,---,0.00,VWS V14.01,2014-03-04 07:08:00,
2014-03-04 02:09:00,10.2,-7.3,29.62,SE,135,0.0,1.1,44,0.00,,---,0.00,VWS V14.01,2014-03-04 07:09:00,
2014-03-04 02:10:00,10.2,-7.3,29.62,South,180,0.0,0.0,44,0.00,,---,0.00,VWS V14.01,2014-03-04 07:10:00,
2014-03-04 02:11:00,10.2,-7.3,29.62,West,270,0.0,0.0,44,0.00,,---,0.00,VWS V14.01,2014-03-04 07:11:00,
2014-03-04 02:12:00,10.2,-7.3,29.62,SW,225,0.0,0.0,44,0.00,,---,0.00,VWS V14.01,2014-03-04 07:12:00,
2014-03-04 02:13:00,10.2,-7.3,29.62,SE,135,0.0,0.0,44,0.00,,---,0.00,VWS V14.01,2014-03-04 07:13:00,
2014-03-04 02:14:00,10.2,-7.3,29.62,South,180,0.0,0.0,44,0.00,,---,0.00,VWS V14.01,2014-03-04 07:14:00,
2014-03-04 02:15:00,10.2,-7.3,29.62,SW,225,0.0,0.0,44,0.00,,---,0.00,VWS V14.01,2014-03-04 07:15:00,
2014-03-04 02:16:00,10.2,-7.3,29.62,East,90,0.0,0.0,44,0.00,,---,0.00,VWS V14.01,2014-03-04 07:16:00,
2014-03-04 02:17:00,9.1,-8.3,29.59,NW,315,0.0,2.5,44,0.00,,---,0.00,VWS V14.01,2014-03-04 07:17:00,
2014-03-04 02:18:00,10.2,-7.3,29.62,West,270,0.0,0.0,44,0.00,,---,0.00,VWS V14.01,2014-03-04 07:18:00,
2014-03-04 02:19:00,10.2,-7.3,29.62,NW,315,2.0,2.0,44,0.00,,---,0.00,VWS V14.01,2014-03-04 07:19:00,
2014-03-04 02:20:00,10.0,-7.5,29.62,West,270,0.0,2.0,44,0.00,,---,0.00,VWS V14.01,2014-03-04 07:20:00,
2014-03-04 02:21:00,10.0,-7.5,29.62,SE,135,0.0,0.0,44,0.00,,---,0.00,VWS V14.01,2014-03-04 07:21:00,
2014-03-04 02:22:00,10.0,-7.5,29.62,SSE,158,0.0,0.0,44,0.00,,---,0.00,VWS V14.01,2014-03-04 07:22:00,
2014-03-04 02:23:00,10.0,-7.5,29.62,ESE,112,0.0,0.0,44,0.00,,---,0.00,VWS V14.01,2014-03-04 07:23:00,
2014-03-04 02:24:00,10.0,-7.5,29.62,ENE,68,0.0,0.0,44,0.00,,---,0.00,VWS V14.01,2014-03-04 07:24:00,
2014-03-04 02:25:00,10.0,-7.5,29.62,NW,315,0.0,0.0,44,0.00,,---,0.00,VWS V14.01,2014-03-04 07:25:00,
2014-03-04 02:26:00,10.0,-7.5,29.62,East,90,2.0,2.7,44,0.00,,---,0.00,VWS V14.01,2014-03-04 07:26:00,
2014-03-04 02:27:00,10.0,-7.5,29.62,NE,45,0.0,2.0,44,0.00,,---,0.00,VWS V14.01,2014-03-04 07:27:00,
2014-03-04 02:28:00,10.0,-7.5,29.62,NW,315,0.0,0.0,44,0.00,,---,0.00,VWS V14.01,2014-03-04 07:28:00,
2014-03-04 02:29:00,10.0,-7.5,29.62,ENE,68,0.0,0.0,44,0.00,,---,0.00,VWS V14.01,2014-03-04 07:29:00,
2014-03-04 02:30:00,9.9,-7.7,29.62,NW,315,0.0,0.0,44,0.00,,---,0.00,VWS V14.01,2014-03-04 07:30:00,
2014-03-04 02:31:00,9.9,-7.7,29.62,SE,135,0.0,0.0,44,0.00,,---,0.00,VWS V14.01,2014-03-04 07:31:00,
2014-03-04 02:32:00,9.9,-7.7,29.62,North,0,0.0,0.0,44,0.00,,---,0.00,VWS V14.01,2014-03-04 07:32:00,
2014-03-04 02:33:00,9.9,-7.7,29.62,ENE,68,0.0,0.0,44,0.00,,---,0.00,VWS V14.01,2014-03-04 07:33:00,
2014-03-04 02:34:00,9.9,-7.7,29.62,West,270,0.0,0.0,44,0.00,,---,0.00,VWS V14.01,2014-03-04 07:34:00,
2014-03-04 02:35:00,9.9,-7.7,29.62,West,270,0.0,0.0,44,0.00,,---,0.00,VWS V14.01,2014-03-04 07:35:00,
2014-03-04 02:36:00,9.7,-7.8,29.62,WNW,292,1.3,2.5,44,0.00,,---,0.00,VWS V14.01,2014-03-04 07:36:00,
2014-03-04 02:37:00,9.7,-7.8,29.62,NW,315,2.7,2.7,44,0.00,,---,0.00,VWS V14.01,2014-03-04 07:37:00,
2014-03-04 02:38:00,9.7,-7.8,29.62,West,270,2.0,2.7,44,0.00,,---,0.00,VWS V14.01,2014-03-04 07:38:00,
2014-03-04 02:39:00,9.7,-7.8,29.62,West,270,0.0,2.0,44,0.00,,---,0.00,VWS V14.01,2014-03-04 07:39:00,
2014-03-04 02:40:00,9.7,-7.8,29.62,WNW,292,2.0,2.0,44,0.00,,---,0.00,VWS V14.01,2014-03-04 07:40:00,
2014-03-04 02:41:00,9.5,-8.0,29.62,SSW,202,2.9,2.9,44,0.00,,---,0.00,VWS V14.01,2014-03-04 07:41:00,
2014-03-04 02:42:00,9.5,-8.0,29.62,West,270,0.0,2.9,44,0.00,,---,0.00,VWS V14.01,2014-03-04 07:42:00,
2014-03-04 02:43:00,9.5,-8.0,29.62,NW,315,1.6,2.7,44,0.00,,---,0.00,VWS V14.01,2014-03-04 07:43:00,
2014-03-04 02:44:00,9.5,-8.0,29.62,West,270,0.0,1.6,44,0.00,,---,0.00,VWS V14.01,2014-03-04 07:44:00,
2014-03-04 02:45:00,9.5,-8.0,29.62,NW,315,0.0,0.0,44,0.00,,---,0.00,VWS V14.01,2014-03-04 07:45:00,
2014-03-04 02:46:00,9.5,-8.0,29.62,WNW,292,1.6,1.6,44,0.00,,---,0.00,VWS V14.01,2014-03-04 07:46:00,
2014-03-04 02:47:00,9.0,-8.5,29.59,NNW,338,0.0,2.0,44,0.00,,---,0.00,VWS V14.01,2014-03-04 07:47:00,
2014-03-04 02:48:00,9.3,-8.2,29.62,WNW,292,3.1,3.1,44,0.00,,---,0.00,VWS V14.01,2014-03-04 07:48:00,
2014-03-04 02:49:00,9.3,-8.2,29.62,NW,315,2.5,3.1,44,0.00,,---,0.00,VWS V14.01,2014-03-04 07:49:00,
2014-03-04 02:50:00,9.3,-8.2,29.62,NW,315,1.1,2.5,44,0.00,,---,0.00,VWS V14.01,2014-03-04 07:50:00,
2014-03-04 02:51:00,9.3,-8.2,29.62,WNW,292,0.0,2.7,44,0.00,,---,0.00,VWS V14.01,2014-03-04 07:51:00,
2014-03-04 02:52:00,9.3,-8.2,29.62,WNW,292,2.9,3.4,44,0.00,,---,0.00,VWS V14.01,2014-03-04 07:52:00,
2014-03-04 02:53:00,9.1,-8.3,29.62,NW,315,2.7,2.9,44,0.00,,---,0.00,VWS V14.01,2014-03-04 07:53:00,
2014-03-04 02:54:00,9.3,-8.2,29.62,NW,315,1.6,2.7,44,0.00,,---,0.00,VWS V14.01,2014-03-04 07:54:00,
2014-03-04 02:55:00,9.1,-8.3,29.62,WNW,292,1.6,2.9,44,0.00,,---,0.00,VWS V14.01,2014-03-04 07:55:00,
2014-03-04 02:56:00,9.1,-8.3,29.59,WNW,292,0.0,2.0,44,0.00,,---,0.00,VWS V14.01,2014-03-04 07:56:00,
2014-03-04 02:57:00,9.1,-8.3,29.59,NW,315,0.0,1.3,44,0.00,,---,0.00,VWS V14.01,2014-03-04 07:57:00,
2014-03-04 02:58:00,9.1,-8.3,29.59,West,270,3.8,3.8,44,0.00,,---,0.00,VWS V14.01,2014-03-04 07:58:00,
2014-03-04 02:59:00,9.1,-8.3,29.59,WNW,292,3.1,3.8,44,0.00,,---,0.00,VWS V14.01,2014-03-04 07:59:00,
2014-03-04 03:00:00,9.1,-8.3,29.59,NW,315,1.1,3.1,44,0.00,,---,0.00,VWS V14.01,2014-03-04 08:00:00,
2014-03-04 03:01:00,9.1,-8.3,29.59,WNW,292,1.1,1.6,44,0.00,,---,0.00,VWS V14.01,2014-03-04 08:01:00,
2014-03-04 03:02:00,9.1,-8.3,29.59,NW,315,0.9,2.7,44,0.00,,---,0.00,VWS V14.01,2014-03-04 08:02:00,
2014-03-04 03:03:00,9.1,-8.3,29.59,NW,315,0.0,1.3,44,0.00,,---,0.00,VWS V14.01,2014-03-04 08:03:00,
2014-03-04 03:04:00,9.1,-8.3,29.59,West,270,0.0,0.0,44,0.00,,---,0.00,VWS V14.01,2014-03-04 08:04:00,
2014-03-04 03:05:00,9.1,-8.3,29.59,SW,225,0.0,0.0,44,0.00,,---,0.00,VWS V14.01,2014-03-04 08:05:00,
2014-03-04 03:06:00,9.1,-8.3,29.59,NW,315,0.0,0.0,44,0.00,,---,0.00,VWS V14.01,2014-03-04 08:06:00,
2014-03-04 03:07:00,9.1,-8.3,29.59,West,270,0.0,0.0,44,0.00,,---,0.00,VWS V14.01,2014-03-04 08:07:00,
2014-03-04 03:08:00,9.1,-8.3,29.59,SW,225,0.0,0.0,44,0.00,,---,0.00,VWS V14.01,2014-03-04 08:08:00,
2014-03-04 03:09:00,9.1,-8.3,29.59,NW,315,0.0,0.0,44,0.00,,---,0.00,VWS V14.01,2014-03-04 08:09:00,
2014-03-04 03:10:00,9.1,-8.3,29.59,NW,315,0.0,2.0,44,0.00,,---,0.00,VWS V14.01,2014-03-04 08:10:00,
2014-03-04 03:11:00,9.1,-8.3,29.59,WNW,292,1.1,1.1,44,0.00,,---,0.00,VWS V14.01,2014-03-04 08:11:00,
2014-03-04 03:12:00,9.1,-8.3,29.59,WNW,292,0.0,1.1,44,0.00,,---,0.00,VWS V14.01,2014-03-04 08:12:00,
2014-03-04 03:13:00,9.1,-8.3,29.59,NW,315,0.0,0.0,44,0.00,,---,0.00,VWS V14.01,2014-03-04 08:13:00,
2014-03-04 03:14:00,9.1,-8.3,29.59,WNW,292,0.0,0.0,44,0.00,,---,0.00,VWS V14.01,2014-03-04 08:14:00,
2014-03-04 03:15:00,9.1,-8.3,29.59,WNW,292,0.9,2.0,44,0.00,,---,0.00,VWS V14.01,2014-03-04 08:15:00,
2014-03-04 03:16:00,9.1,-8.3,29.59,NW,315,0.0,0.0,44,0.00,,---,0.00,VWS V14.01,2014-03-04 08:16:00,
2014-03-04 03:17:00,9.1,-8.3,29.59,NW,315,0.0,2.5,44,0.00,,---,0.00,VWS V14.01,2014-03-04 08:17:00,
2014-03-04 03:18:00,9.1,-8.3,29.59,West,270,0.0,0.0,44,0.00,,---,0.00,VWS V14.01,2014-03-04 08:18:00,
2014-03-04 03:19:00,9.1,-8.3,29.59,West,270,0.0,0.0,44,0.00,,---,0.00,VWS V14.01,2014-03-04 08:19:00,
2014-03-04 03:20:00,9.1,-8.3,29.59,NW,315,0.0,0.0,44,0.00,,---,0.00,VWS V14.01,2014-03-04 08:20:00,
2014-03-04 03:21:00,9.1,-8.3,29.59,WNW,292,0.0,0.0,44,0.00,,---,0.00,VWS V14.01,2014-03-04 08:21:00,
2014-03-04 03:22:00,9.1,-8.3,29.59,SE,135,0.0,0.0,44,0.00,,---,0.00,VWS V14.01,2014-03-04 08:22:00,
2014-03-04 03:23:00,9.1,-8.3,29.59,WNW,292,0.9,0.9,44,0.00,,---,0.00,VWS V14.01,2014-03-04 08:23:00,
2014-03-04 03:24:00,9.0,-8.5,29.59,West,270,1.1,1.1,44,0.00,,---,0.00,VWS V14.01,2014-03-04 08:24:00,
2014-03-04 03:25:00,9.0,-8.5,29.59,NW,315,0.0,1.6,44,0.00,,---,0.00,VWS V14.01,2014-03-04 08:25:00,
2014-03-04 03:26:00,9.0,-8.5,29.59,West,270,0.0,1.6,44,0.00,,---,0.00,VWS V14.01,2014-03-04 08:26:00,
2014-03-04 03:27:00,9.0,-8.5,29.59,NW,315,0.0,0.0,44,0.00,,---,0.00,VWS V14.01,2014-03-04 08:27:00,
2014-03-04 03:28:00,9.0,-8.5,29.59,West,270,0.0,0.0,44,0.00,,---,0.00,VWS V14.01,2014-03-04 08:28:00,
2014-03-04 03:29:00,9.0,-8.5,29.59,WNW,292,0.0,0.0,44,0.00,,---,0.00,VWS V14.01,2014-03-04 08:29:00,
2014-03-04 03:30:00,9.0,-8.5,29.59,NW,315,0.0,0.0,44,0.00,,---,0.00,VWS V14.01,2014-03-04 08:30:00,
2014-03-04 03:31:00,9.0,-8.5,29.59,WNW,292,0.0,0.0,44,0.00,,---,0.00,VWS V14.01,2014-03-04 08:31:00,
2014-03-04 03:32:00,9.0,-8.5,29.59,West,270,0.0,0.0,44,0.00,,---,0.00,VWS V14.01,2014-03-04 08:32:00,
2014-03-04 03:34:00,9.0,-8.5,29.59,East,90,0.0,0.0,44,0.00,,---,0.00,VWS V14.01,2014-03-04 08:34:00,
2014-03-04 03:35:00,9.0,-8.5,29.59,ENE,68,0.0,0.0,44,0.00,,---,0.00,VWS V14.01,2014-03-04 08:35:00,
2014-03-04 03:36:00,9.0,-8.5,29.59,NW,315,0.0,0.0,44,0.00,,---,0.00,VWS V14.01,2014-03-04 08:36:00,
2014-03-04 03:37:00,9.0,-8.5,29.59,ENE,68,0.0,0.0,44,0.00,,---,0.00,VWS V14.01,2014-03-04 08:37:00,
2014-03-04 03:38:00,9.0,-8.5,29.59,NW,315,2.2,2.2,44,0.00,,---,0.00,VWS V14.01,2014-03-04 08:38:00,
2014-03-04 03:39:00,9.0,-8.5,29.59,West,270,2.0,2.9,44,0.00,,---,0.00,VWS V14.01,2014-03-04 08:39:00,
2014-03-04 03:40:00,9.0,-8.5,29.59,NW,315,0.9,2.0,44,0.00,,---,0.00,VWS V14.01,2014-03-04 08:40:00,
2014-03-04 03:41:00,9.0,-8.5,29.59,ENE,68,0.0,0.9,44,0.00,,---,0.00,VWS V14.01,2014-03-04 08:41:00,
2014-03-04 03:42:00,9.0,-8.5,29.59,West,270,0.0,0.0,44,0.00,,---,0.00,VWS V14.01,2014-03-04 08:42:00,
2014-03-04 03:43:00,9.0,-8.5,29.59,East,90,0.0,0.0,44,0.00,,---,0.00,VWS V14.01,2014-03-04 08:43:00,
2014-03-04 03:44:00,9.0,-8.5,29.59,SE,135,0.0,0.0,44,0.00,,---,0.00,VWS V14.01,2014-03-04 08:44:00,
2014-03-04 03:45:00,9.0,-8.5,29.59,WNW,292,0.0,0.0,44,0.00,,---,0.00,VWS V14.01,2014-03-04 08:45:00,
2014-03-04 03:46:00,9.0,-8.5,29.59,NNW,338,2.0,2.9,44,0.00,,---,0.00,VWS V14.01,2014-03-04 08:46:00,
2014-03-04 03:47:00,9.0,-8.5,29.59,NNW,338,0.0,2.0,44,0.00,,---,0.00,VWS V14.01,2014-03-04 08:47:00,
2014-03-04 03:48:00,9.0,-8.5,29.59,WNW,292,1.1,1.1,44,0.00,,---,0.00,VWS V14.01,2014-03-04 08:48:00,
2014-03-04 03:49:00,9.0,-8.5,29.59,SW,225,0.0,2.0,44,0.00,,---,0.00,VWS V14.01,2014-03-04 08:49:00,
2014-03-04 03:50:00,9.0,-8.5,29.59,WSW,248,0.0,0.0,44,0.00,,---,0.00,VWS V14.01,2014-03-04 08:50:00,
2014-03-04 03:51:00,9.0,-8.5,29.59,SW,225,0.0,0.0,44,0.00,,---,0.00,VWS V14.01,2014-03-04 08:51:00,
2014-03-04 03:52:00,9.1,-8.3,29.59,NNW,338,0.0,0.0,44,0.00,,---,0.00,VWS V14.01,2014-03-04 08:52:00,
2014-03-04 03:53:00,9.1,-8.3,29.59,East,90,0.0,0.0,44,0.00,,---,0.00,VWS V14.01,2014-03-04 08:53:00,
2014-03-04 03:54:00,9.1,-8.3,29.59,NW,315,3.1,3.8,44,0.00,,---,0.00,VWS V14.01,2014-03-04 08:54:00,
2014-03-04 03:55:00,9.1,-8.3,29.59,WNW,292,0.0,3.1,44,0.00,,---,0.00,VWS V14.01,2014-03-04 08:55:00,
2014-03-04 03:56:00,9.0,-8.5,29.59,East,90,0.0,1.1,44,0.00,,---,0.00,VWS V14.01,2014-03-04 08:56:00,
2014-03-04 03:57:00,9.1,-8.3,29.59,WNW,292,0.0,0.0,44,0.00,,---,0.00,VWS V14.01,2014-03-04 08:57:00,
2014-03-04 03:58:00,9.1,-8.3,29.59,WNW,292,0.0,0.0,44,0.00,,---,0.00,VWS V14.01,2014-03-04 08:58:00,
2014-03-04 03:59:00,9.1,-8.3,29.59,WNW,292,0.0,1.1,44,0.00,,---,0.00,VWS V14.01,2014-03-04 08:59:00,
2014-03-04 04:00:00,9.1,-8.3,29.59,East,90,0.0,0.0,44,0.00,,---,0.00,VWS V14.01,2014-03-04 09:00:00,
2014-03-04 04:01:00,9.1,-8.3,29.59,WNW,292,2.7,2.7,44,0.00,,---,0.00,VWS V14.01,2014-03-04 09:01:00,
2014-03-04 04:02:00,9.0,-8.5,29.59,NW,315,2.2,3.1,44,0.00,,---,0.00,VWS V14.01,2014-03-04 09:02:00,
2014-03-04 04:03:00,9.1,-8.3,29.59,NW,315,0.0,2.2,44,0.00,,---,0.00,VWS V14.01,2014-03-04 09:03:00,
2014-03-04 04:04:00,9.1,-8.3,29.59,NNW,338,0.0,0.0,44,0.00,,---,0.00,VWS V14.01,2014-03-04 09:04:00,
2014-03-04 04:05:00,9.1,-8.3,29.59,NNW,338,0.0,0.0,44,0.00,,---,0.00,VWS V14.01,2014-03-04 09:05:00,
2014-03-04 04:06:00,9.1,-8.3,29.59,West,270,0.0,0.0,44,0.00,,---,0.00,VWS V14.01,2014-03-04 09:06:00,
2014-03-04 04:07:00,9.1,-8.3,29.59,SSW,202,0.0,1.1,44,0.00,,---,0.00,VWS V14.01,2014-03-04 09:07:00,
2014-03-04 04:08:00,9.1,-8.3,29.59,WNW,292,0.0,0.0,44,0.00,,---,0.00,VWS V14.01,2014-03-04 09:08:00,
2014-03-04 04:09:00,9.1,-8.3,29.59,WNW,292,2.9,2.9,44,0.00,,---,0.00,VWS V14.01,2014-03-04 09:09:00,
2014-03-04 04:10:00,9.1,-8.3,29.59,WNW,292,2.9,2.9,44,0.00,,---,0.00,VWS V14.01,2014-03-04 09:10:00,
2014-03-04 04:11:00,9.1,-8.3,29.59,NE,45,1.3,2.0,44,0.00,,---,0.00,VWS V14.01,2014-03-04 09:11:00,
2014-03-04 04:12:00,9.1,-8.3,29.59,WNW,292,0.0,1.3,44,0.00,,---,0.00,VWS V14.01,2014-03-04 09:12:00,
2014-03-04 04:13:00,9.0,-8.5,29.59,NW,315,0.0,2.0,44,0.00,,---,0.00,VWS V14.01,2014-03-04 09:13:00,
2014-03-04 04:14:00,9.1,-8.3,29.59,WNW,292,0.0,0.0,44,0.00,,---,0.00,VWS V14.01,2014-03-04 09:14:00,
2014-03-04 04:15:00,9.1,-8.3,29.59,SW,225,0.0,0.0,44,0.00,,---,0.00,VWS V14.01,2014-03-04 09:15:00,
2014-03-04 04:16:00,9.1,-8.3,29.59,East,90,0.0,0.0,44,0.00,,---,0.00,VWS V14.01,2014-03-04 09:16:00,
2014-03-04 04:17:00,9.1,-8.3,29.59,ENE,68,0.0,0.0,44,0.00,,---,0.00,VWS V14.01,2014-03-04 09:17:00,
2014-03-04 04:18:00,9.1,-8.3,29.59,East,90,0.0,0.0,44,0.00,,---,0.00,VWS V14.01,2014-03-04 09:18:00,
2014-03-04 04:19:00,9.1,-8.3,29.59,NW,315,0.0,0.0,44,0.00,,---,0.00,VWS V14.01,2014-03-04 09:19:00,
2014-03-04 04:20:00,9.1,-8.3,29.59,NNW,338,0.0,0.0,44,0.00,,---,0.00,VWS V14.01,2014-03-04 09:20:00,
2014-03-04 04:21:00,9.1,-8.3,29.59,ENE,68,0.0,0.0,44,0.00,,---,0.00,VWS V14.01,2014-03-04 09:21:00,
2014-03-04 04:22:00,9.1,-8.3,29.59,NNE,22,0.0,0.0,44,0.00,,---,0.00,VWS V14.01,2014-03-04 09:22:00,
2014-03-04 04:23:00,9.1,-8.3,29.59,WNW,292,0.0,0.0,44,0.00,,---,0.00,VWS V14.01,2014-03-04 09:23:00,
2014-03-04 04:24:00,9.1,-8.3,29.59,WNW,292,0.0,0.0,44,0.00,,---,0.00,VWS V14.01,2014-03-04 09:24:00,
2014-03-04 04:25:00,9.1,-8.3,29.59,NW,315,0.0,0.0,44,0.00,,---,0.00,VWS V14.01,2014-03-04 09:25:00,
2014-03-04 04:26:00,9.1,-8.3,29.59,West,270,1.1,1.1,44,0.00,,---,0.00,VWS V14.01,2014-03-04 09:26:00,
2014-03-04 04:27:00,9.1,-8.3,29.59,NW,315,1.6,1.6,44,0.00,,---,0.00,VWS V14.01,2014-03-04 09:27:00,
2014-03-04 04:28:00,9.1,-8.3,29.59,WNW,292,0.0,1.6,44,0.00,,---,0.00,VWS V14.01,2014-03-04 09:28:00,
2014-03-04 04:29:00,8.6,-8.8,29.59,ENE,68,0.0,3.1,44,0.00,,---,0.00,VWS V14.01,2014-03-04 09:29:00,
2014-03-04 04:30:00,9.1,-8.3,29.59,WNW,292,0.0,0.0,44,0.00,,---,0.00,VWS V14.01,2014-03-04 09:30:00,
2014-03-04 04:31:00,8.8,-8.7,29.59,West,270,1.6,2.5,44,0.00,,---,0.00,VWS V14.01,2014-03-04 09:31:00,
2014-03-04 04:32:00,8.8,-8.7,29.59,ENE,68,0.0,1.6,44,0.00,,---,0.00,VWS V14.01,2014-03-04 09:32:00,
2014-03-04 04:33:00,8.8,-8.7,29.59,NW,315,0.0,0.0,44,0.00,,---,0.00,VWS V14.01,2014-03-04 09:33:00,
2014-03-04 04:34:00,8.8,-8.7,29.59,WNW,292,0.0,0.0,44,0.00,,---,0.00,VWS V14.01,2014-03-04 09:34:00,
2014-03-04 04:35:00,8.8,-8.7,29.59,WNW,292,0.0,0.0,44,0.00,,---,0.00,VWS V14.01,2014-03-04 09:35:00,
2014-03-04 04:36:00,9.0,-8.5,29.59,East,90,0.0,0.0,44,0.00,,---,0.00,VWS V14.01,2014-03-04 09:36:00,
2014-03-04 04:37:00,9.0,-8.5,29.59,ESE,112,0.0,0.0,44,0.00,,---,0.00,VWS V14.01,2014-03-04 09:37:00,
2014-03-04 04:38:00,8.8,-8.7,29.59,NE,45,0.0,1.3,44,0.00,,---,0.00,VWS V14.01,2014-03-04 09:38:00,
2014-03-04 04:39:00,8.8,-8.7,29.59,ENE,68,2.5,2.5,44,0.00,,---,0.00,VWS V14.01,2014-03-04 09:39:00,
2014-03-04 04:40:00,8.8,-8.7,29.59,ENE,68,3.1,3.6,44,0.00,,---,0.00,VWS V14.01,2014-03-04 09:40:00,
2014-03-04 04:41:00,8.8,-8.7,29.62,SE,135,1.6,2.9,44,0.00,,---,0.00,VWS V14.01,2014-03-04 09:41:00,
2014-03-04 04:42:00,8.8,-8.7,29.62,West,270,0.0,2.5,44,0.00,,---,0.00,VWS V14.01,2014-03-04 09:42:00,
2014-03-04 04:43:00,8.6,-8.8,29.62,SW,225,0.0,0.0,44,0.00,,---,0.00,VWS V14.01,2014-03-04 09:43:00,
2014-03-04 04:44:00,8.8,-8.7,29.62,East,90,2.5,2.5,44,0.00,,---,0.00,VWS V14.01,2014-03-04 09:44:00,
2014-03-04 04:45:00,8.8,-8.7,29.62,NE,45,0.0,2.5,44,0.00,,---,0.00,VWS V14.01,2014-03-04 09:45:00,
2014-03-04 04:46:00,8.8,-8.7,29.62,East,90,2.7,3.8,44,0.00,,---,0.00,VWS V14.01,2014-03-04 09:46:00,
2014-03-04 04:47:00,8.8,-8.7,29.62,SW,225,0.0,2.7,44,0.00,,---,0.00,VWS V14.01,2014-03-04 09:47:00,
2014-03-04 04:48:00,8.8,-8.7,29.62,NE,45,1.1,1.1,44,0.00,,---,0.00,VWS V14.01,2014-03-04 09:48:00,
2014-03-04 04:49:00,8.8,-8.7,29.62,ESE,112,1.1,1.1,44,0.00,,---,0.00,VWS V14.01,2014-03-04 09:49:00,
2014-03-04 04:50:00,8.8,-8.7,29.62,ESE,112,1.1,1.1,44,0.00,,---,0.00,VWS V14.01,2014-03-04 09:50:00,
2014-03-04 04:51:00,8.8,-8.7,29.62,East,90,2.2,2.5,44,0.00,,---,0.00,VWS V14.01,2014-03-04 09:51:00,
2014-03-04 04:52:00,8.8,-8.7,29.62,East,90,2.5,2.5,44,0.00,,---,0.00,VWS V14.01,2014-03-04 09:52:00,
2014-03-04 04:53:00,8.8,-8.7,29.62,North,0,0.0,3.6,44,0.00,,---,0.00,VWS V14.01,2014-03-04 09:53:00,
2014-03-04 04:54:00,8.8,-8.7,29.62,SE,135,0.0,0.0,44,0.00,,---,0.00,VWS V14.01,2014-03-04 09:54:00,
2014-03-04 04:55:00,8.8,-8.7,29.62,ENE,68,0.0,0.0,44,0.00,,---,0.00,VWS V14.01,2014-03-04 09:55:00,
2014-03-04 04:56:00,8.8,-8.7,29.62,East,90,1.1,1.3,44,0.00,,---,0.00,VWS V14.01,2014-03-04 09:56:00,
2014-03-04 04:57:00,8.8,-8.7,29.62,East,90,0.0,1.1,44,0.00,,---,0.00,VWS V14.01,2014-03-04 09:57:00,
2014-03-04 04:58:00,8.8,-8.7,29.62,East,90,2.0,2.2,44,0.00,,---,0.00,VWS V14.01,2014-03-04 09:58:00,
2014-03-04 04:59:00,8.8,-8.7,29.62,SW,225,0.0,2.0,44,0.00,,---,0.00,VWS V14.01,2014-03-04 09:59:00,
2014-03-04 05:00:00,8.8,-8.7,29.62,ENE,68,1.6,2.0,44,0.00,,---,0.00,VWS V14.01,2014-03-04 10:00:00,
2014-03-04 05:01:00,9.0,-8.5,29.62,ESE,112,0.0,0.0,44,0.00,,---,0.00,VWS V14.01,2014-03-04 10:01:00,
2014-03-04 05:02:00,9.0,-8.5,29.62,East,90,0.0,0.0,44,0.00,,---,0.00,VWS V14.01,2014-03-04 10:02:00,
2014-03-04 05:03:00,8.8,-8.7,29.62,East,90,0.0,0.0,44,0.00,,---,0.00,VWS V14.01,2014-03-04 10:03:00,
2014-03-04 05:04:00,8.8,-8.7,29.62,WNW,292,0.0,0.0,44,0.00,,---,0.00,VWS V14.01,2014-03-04 10:04:00,
2014-03-04 05:05:00,8.8,-8.7,29.62,ESE,112,0.0,0.0,44,0.00,,---,0.00,VWS V14.01,2014-03-04 10:05:00,
2014-03-04 05:06:00,8.8,-8.7,29.62,ESE,112,0.0,0.0,44,0.00,,---,0.00,VWS V14.01,2014-03-04 10:06:00,
2014-03-04 05:07:00,8.8,-8.7,29.62,ENE,68,0.0,0.0,44,0.00,,---,0.00,VWS V14.01,2014-03-04 10:07:00,
2014-03-04 05:08:00,9.0,-8.5,29.62,East,90,0.0,0.0,44,0.00,,---,0.00,VWS V14.01,2014-03-04 10:08:00,
2014-03-04 05:09:00,9.0,-8.5,29.62,East,90,0.0,0.0,44,0.00,,---,0.00,VWS V14.01,2014-03-04 10:09:00,
2014-03-04 05:10:00,8.8,-8.7,29.62,East,90,0.0,0.0,44,0.00,,---,0.00,VWS V14.01,2014-03-04 10:10:00,
2014-03-04 05:11:00,8.8,-8.7,29.62,East,90,0.0,0.0,44,0.00,,---,0.00,VWS V14.01,2014-03-04 10:11:00,
2014-03-04 05:12:00,8.8,-8.7,29.62,North,0,0.0,0.0,44,0.00,,---,0.00,VWS V14.01,2014-03-04 10:12:00,
2014-03-04 05:13:00,8.8,-8.7,29.62,SE,135,0.0,0.0,44,0.00,,---,0.00,VWS V14.01,2014-03-04 10:13:00,
2014-03-04 05:14:00,8.8,-8.7,29.62,East,90,0.0,0.0,44,0.00,,---,0.00,VWS V14.01,2014-03-04 10:14:00,
2014-03-04 05:15:00,8.8,-8.7,29.62,WNW,292,0.0,0.0,44,0.00,,---,0.00,VWS V14.01,2014-03-04 10:15:00,
2014-03-04 05:16:00,8.8,-8.7,29.62,East,90,1.3,1.3,44,0.00,,---,0.00,VWS V14.01,2014-03-04 10:16:00,
2014-03-04 05:17:00,9.0,-8.5,29.62,WNW,292,0.0,1.3,44,0.00,,---,0.00,VWS V14.01,2014-03-04 10:17:00,
2014-03-04 05:18:00,9.0,-8.5,29.62,WNW,292,2.0,2.2,44,0.00,,---,0.00,VWS V14.01,2014-03-04 10:18:00,
2014-03-04 05:19:00,8.8,-8.7,29.62,WNW,292,0.0,2.0,44,0.00,,---,0.00,VWS V14.01,2014-03-04 10:19:00,
2014-03-04 05:20:00,8.8,-8.7,29.62,West,270,0.0,0.0,44,0.00,,---,0.00,VWS V14.01,2014-03-04 10:20:00,
2014-03-04 05:21:00,8.8,-8.7,29.62,NW,315,1.6,1.6,44,0.00,,---,0.00,VWS V14.01,2014-03-04 10:21:00,
2014-03-04 05:22:00,8.8,-8.7,29.62,NNE,22,0.0,1.6,44,0.00,,---,0.00,VWS V14.01,2014-03-04 10:22:00,
2014-03-04 05:23:00,8.6,-8.8,29.62,ENE,68,0.0,0.0,44,0.00,,---,0.00,VWS V14.01,2014-03-04 10:23:00,
2014-03-04 05:24:00,8.6,-8.8,29.62,ENE,68,0.0,0.0,44,0.00,,---,0.00,VWS V14.01,2014-03-04 10:24:00,
2014-03-04 05:25:00,8.6,-8.8,29.62,East,90,0.0,0.0,44,0.00,,---,0.00,VWS V14.01,2014-03-04 10:25:00,
2014-03-04 05:26:00,8.6,-8.8,29.59,West,270,0.9,0.9,44,0.00,,---,0.00,VWS V14.01,2014-03-04 10:26:00,
2014-03-04 05:27:00,8.6,-8.8,29.59,WSW,248,0.0,2.0,44,0.00,,---,0.00,VWS V14.01,2014-03-04 10:27:00,
2014-03-04 05:28:00,8.6,-8.8,29.59,West,270,3.1,3.1,44,0.00,,---,0.00,VWS V14.01,2014-03-04 10:28:00,
2014-03-04 05:29:00,8.6,-8.8,29.59,ENE,68,0.0,3.1,44,0.00,,---,0.00,VWS V14.01,2014-03-04 10:29:00,
2014-03-04 05:30:00,8.6,-8.8,29.59,NW,315,0.0,0.0,44,0.00,,---,0.00,VWS V14.01,2014-03-04 10:30:00,
2014-03-04 05:31:00,8.6,-8.8,29.59,WNW,292,0.0,2.0,44,0.00,,---,0.00,VWS V14.01,2014-03-04 10:31:00,
2014-03-04 05:32:00,8.8,-8.7,29.59,NW,315,0.0,0.0,44,0.00,,---,0.00,VWS V14.01,2014-03-04 10:32:00,
2014-03-04 05:33:00,8.8,-8.7,29.59,NW,315,0.0,0.0,44,0.00,,---,0.00,VWS V14.01,2014-03-04 10:33:00,
2014-03-04 05:34:00,8.6,-8.8,29.59,WNW,292,0.0,0.0,44,0.00,,---,0.00,VWS V14.01,2014-03-04 10:34:00,
2014-03-04 05:35:00,8.6,-8.8,29.59,WNW,292,0.0,0.0,44,0.00,,---,0.00,VWS V14.01,2014-03-04 10:35:00,
2014-03-04 05:36:00,8.6,-8.8,29.59,East,90,0.0,0.0,44,0.00,,---,0.00,VWS V14.01,2014-03-04 10:36:00,
2014-03-04 05:37:00,8.6,-8.8,29.59,East,90,0.0,0.0,44,0.00,,---,0.00,VWS V14.01,2014-03-04 10:37:00,
2014-03-04 05:38:00,8.6,-8.8,29.59,WNW,292,1.1,1.1,44,0.00,,---,0.00,VWS V14.01,2014-03-04 10:38:00,
2014-03-04 05:39:00,8.6,-8.8,29.59,WNW,292,1.3,1.3,44,0.00,,---,0.00,VWS V14.01,2014-03-04 10:39:00,
2014-03-04 05:40:00,8.8,-8.7,29.59,WNW,292,0.9,1.3,44,0.00,,---,0.00,VWS V14.01,2014-03-04 10:40:00,
2014-03-04 05:41:00,8.6,-8.8,29.62,West,270,0.0,1.3,44,0.00,,---,0.00,VWS V14.01,2014-03-04 10:41:00,
2014-03-04 05:42:00,8.6,-8.8,29.62,West,270,0.0,0.0,44,0.00,,---,0.00,VWS V14.01,2014-03-04 10:42:00,
2014-03-04 05:43:00,8.6,-8.8,29.62,SW,225,0.0,0.0,44,0.00,,---,0.00,VWS V14.01,2014-03-04 10:43:00,
2014-03-04 05:44:00,8.6,-8.8,29.62,SSE,158,0.0,0.0,44,0.00,,---,0.00,VWS V14.01,2014-03-04 10:44:00,
2014-03-04 05:45:00,8.6,-8.8,29.62,East,90,0.0,0.0,44,0.00,,---,0.00,VWS V14.01,2014-03-04 10:45:00,
2014-03-04 05:46:00,8.6,-8.8,29.62,WNW,292,0.0,0.0,44,0.00,,---,0.00,VWS V14.01,2014-03-04 10:46:00,
2014-03-04 05:47:00,8.6,-8.8,29.62,WNW,292,0.0,0.0,44,0.00,,---,0.00,VWS V14.01,2014-03-04 10:47:00,
2014-03-04 05:48:00,8.6,-8.8,29.62,WNW,292,0.0,0.0,44,0.00,,---,0.00,VWS V14.01,2014-03-04 10:48:00,
2014-03-04 05:49:00,8.6,-8.8,29.62,NW,315,0.9,2.0,44,0.00,,---,0.00,VWS V14.01,2014-03-04 10:49:00,
2014-03-04 05:50:00,8.6,-8.8,29.62,WNW,292,0.0,1.1,44,0.00,,---,0.00,VWS V14.01,2014-03-04 10:50:00,
2014-03-04 05:51:00,8.4,-9.0,29.62,WNW,292,0.0,0.0,44,0.00,,---,0.00,VWS V14.01,2014-03-04 10:51:00,
2014-03-04 05:52:00,8.4,-9.0,29.62,WNW,292,0.0,0.0,44,0.00,,---,0.00,VWS V14.01,2014-03-04 10:52:00,
2014-03-04 05:53:00,8.4,-9.0,29.62,WNW,292,0.0,0.0,44,0.00,,---,0.00,VWS V14.01,2014-03-04 10:53:00,
2014-03-04 05:54:00,8.4,-9.0,29.62,West,270,0.0,0.0,44,0.00,,---,0.00,VWS V14.01,2014-03-04 10:54:00,
2014-03-04 05:55:00,8.4,-9.0,29.62,West,270,0.0,0.0,44,0.00,,---,0.00,VWS V14.01,2014-03-04 10:55:00,
2014-03-04 05:56:00,8.2,-9.2,29.62,West,270,0.0,0.0,44,0.00,,---,0.00,VWS V14.01,2014-03-04 10:56:00,
2014-03-04 05:57:00,8.2,-9.2,29.62,West,270,0.0,0.0,44,0.00,,---,0.00,VWS V14.01,2014-03-04 10:57:00,
2014-03-04 05:58:00,8.1,-9.3,29.62,West,270,0.0,0.0,44,0.00,,---,0.00,VWS V14.01,2014-03-04 10:58:00,
2014-03-04 05:59:00,8.1,-9.3,29.62,West,270,0.0,0.0,44,0.00,,---,0.00,VWS V14.01,2014-03-04 10:59:00,
2014-03-04 06:00:00,8.1,-9.3,29.62,West,270,0.0,0.0,44,0.00,,---,0.00,VWS V14.01,2014-03-04 11:00:00,
2014-03-04 06:01:00,8.2,-9.2,29.62,North,0,0.0,0.0,44,0.00,,---,0.00,VWS V14.01,2014-03-04 11:01:00,
2014-03-04 06:02:00,8.2,-9.2,29.62,ENE,68,0.0,0.0,44,0.00,,---,0.00,VWS V14.01,2014-03-04 11:02:00,
2014-03-04 06:03:00,8.2,-9.2,29.62,ENE,68,0.0,0.0,44,0.00,,---,0.00,VWS V14.01,2014-03-04 11:03:00,
2014-03-04 06:04:00,8.2,-9.2,29.62,East,90,0.0,0.0,44,0.00,,---,0.00,VWS V14.01,2014-03-04 11:04:00,
2014-03-04 06:05:00,8.2,-9.2,29.62,East,90,0.0,0.0,44,0.00,,---,0.00,VWS V14.01,2014-03-04 11:05:00,
2014-03-04 06:06:00,8.2,-9.2,29.62,East,90,0.0,0.0,44,0.00,,---,0.00,VWS V14.01,2014-03-04 11:06:00,
2014-03-04 06:07:00,8.2,-9.2,29.62,East,90,0.0,0.0,44,0.00,,---,0.00,VWS V14.01,2014-03-04 11:07:00,
2014-03-04 06:08:00,8.2,-9.2,29.62,West,270,0.0,0.0,44,0.00,,---,0.00,VWS V14.01,2014-03-04 11:08:00,
2014-03-04 06:09:00,8.2,-9.2,29.62,West,270,0.0,0.0,44,0.00,,---,0.00,VWS V14.01,2014-03-04 11:09:00,
2014-03-04 06:10:00,8.2,-9.2,29.62,West,270,0.0,0.0,44,0.00,,---,0.00,VWS V14.01,2014-03-04 11:10:00,
2014-03-04 06:11:00,8.2,-9.2,29.62,West,270,0.0,0.0,44,0.00,,---,0.00,VWS V14.01,2014-03-04 11:11:00,
2014-03-04 06:12:00,8.1,-9.3,29.62,West,270,0.0,1.6,44,0.00,,---,0.00,VWS V14.01,2014-03-04 11:12:00,
2014-03-04 06:13:00,8.1,-9.3,29.62,WNW,292,0.0,0.0,44,0.00,,---,0.00,VWS V14.01,2014-03-04 11:13:00,
2014-03-04 06:14:00,8.1,-9.3,29.62,WNW,292,0.0,0.0,44,0.00,,---,0.00,VWS V14.01,2014-03-04 11:14:00,
2014-03-04 06:15:00,8.1,-9.3,29.62,NW,315,0.0,0.0,44,0.00,,---,0.00,VWS V14.01,2014-03-04 11:15:00,
2014-03-04 06:16:00,8.1,-9.3,29.62,West,270,0.0,0.0,44,0.00,,---,0.00,VWS V14.01,2014-03-04 11:16:00,
2014-03-04 06:17:00,8.1,-9.3,29.62,West,270,0.0,0.0,44,0.00,,---,0.00,VWS V14.01,2014-03-04 11:17:00,
2014-03-04 06:18:00,8.1,-9.3,29.62,East,90,0.0,0.0,44,0.00,,---,0.00,VWS V14.01,2014-03-04 11:18:00,
2014-03-04 06:19:00,8.2,-9.2,29.62,East,90,0.0,0.0,44,0.00,,---,0.00,VWS V14.01,2014-03-04 11:19:00,
2014-03-04 06:20:00,8.2,-9.2,29.62,East,90,0.0,0.0,44,0.00,,---,0.00,VWS V14.01,2014-03-04 11:20:00,
2014-03-04 06:21:00,8.2,-9.2,29.62,East,90,0.0,0.0,44,0.00,,---,0.00,VWS V14.01,2014-03-04 11:21:00,
2014-03-04 06:22:00,8.2,-9.2,29.62,WNW,292,0.0,0.0,44,0.00,,---,0.00,VWS V14.01,2014-03-04 11:22:00,
2014-03-04 06:23:00,8.2,-9.2,29.62,WNW,292,0.0,0.0,44,0.00,,---,0.00,VWS V14.01,2014-03-04 11:23:00,
2014-03-04 06:24:00,8.1,-9.3,29.62,NW,315,0.0,0.0,44,0.00,,---,0.00,VWS V14.01,2014-03-04 11:24:00,
2014-03-04 06:25:00,8.2,-9.2,29.62,WNW,292,0.0,0.0,44,0.00,,---,0.00,VWS V14.01,2014-03-04 11:25:00,
2014-03-04 06:26:00,8.2,-9.2,29.62,WNW,292,0.0,0.0,44,0.00,,---,0.00,VWS V14.01,2014-03-04 11:26:00,
2014-03-04 06:27:00,9.5,-8.0,29.68,West,270,0.0,0.0,44,0.00,,---,0.00,VWS V14.01,2014-03-04 11:27:00,
2014-03-04 06:28:00,9.3,-8.2,29.68,WNW,292,0.0,0.0,44,0.00,,---,0.00,VWS V14.01,2014-03-04 11:28:00,
2014-03-04 06:29:00,8.4,-9.0,29.62,WNW,292,0.0,0.0,44,0.00,,---,0.00,VWS V14.01,2014-03-04 11:29:00,
2014-03-04 06:30:00,8.4,-9.0,29.62,West,270,0.0,0.0,44,0.00,,---,0.00,VWS V14.01,2014-03-04 11:30:00,
2014-03-04 06:31:00,9.5,-8.0,29.68,ENE,68,0.0,0.0,44,0.00,,---,0.00,VWS V14.01,2014-03-04 11:31:00,
2014-03-04 06:32:00,9.5,-8.0,29.68,East,90,0.0,0.0,44,0.00,,---,0.00,VWS V14.01,2014-03-04 11:32:00,
2014-03-04 06:33:00,8.2,-9.2,29.62,WNW,292,0.0,0.0,44,0.00,,---,0.00,VWS V14.01,2014-03-04 11:33:00,
2014-03-04 06:34:00,8.2,-9.2,29.62,West,270,0.0,0.0,44,0.00,,---,0.00,VWS V14.01,2014-03-04 11:34:00,
2014-03-04 06:35:00,8.2,-9.2,29.62,South,180,0.0,0.0,44,0.00,,---,0.00,VWS V14.01,2014-03-04 11:35:00,
2014-03-04 06:36:00,8.4,-9.0,29.62,ENE,68,0.0,0.0,44,0.00,,---,0.00,VWS V14.01,2014-03-04 11:36:00,
2014-03-04 06:37:00,8.4,-9.0,29.62,East,90,0.0,0.0,44,0.00,,---,0.00,VWS V14.01,2014-03-04 11:37:00,
2014-03-04 06:38:00,8.4,-9.0,29.62,East,90,0.0,0.0,44,0.00,,---,0.00,VWS V14.01,2014-03-04 11:38:00,
2014-03-04 06:39:00,8.4,-9.0,29.62,East,90,0.0,0.0,44,0.00,,---,0.00,VWS V14.01,2014-03-04 11:39:00,
2014-03-04 06:40:00,8.4,-9.0,29.62,ENE,68,0.0,0.0,44,0.00,,---,0.00,VWS V14.01,2014-03-04 11:40:00,
2014-03-04 06:41:00,8.4,-9.0,29.62,ENE,68,0.0,0.0,44,0.00,,---,0.00,VWS V14.01,2014-03-04 11:41:00,
2014-03-04 06:42:00,8.4,-9.0,29.62,ENE,68,0.0,0.0,44,0.00,,---,0.00,VWS V14.01,2014-03-04 11:42:00,
2014-03-04 06:43:00,8.4,-9.0,29.62,WNW,292,0.0,0.0,44,0.00,,---,0.00,VWS V14.01,2014-03-04 11:43:00,
2014-03-04 06:44:00,8.4,-9.0,29.62,WNW,292,0.0,0.0,44,0.00,,---,0.00,VWS V14.01,2014-03-04 11:44:00,
2014-03-04 06:45:00,8.4,-9.0,29.62,WNW,292,0.0,0.0,44,0.00,,---,0.00,VWS V14.01,2014-03-04 11:45:00,
2014-03-04 06:46:00,8.4,-9.0,29.62,NW,315,0.0,0.0,44,0.00,,---,0.00,VWS V14.01,2014-03-04 11:46:00,
2014-03-04 06:47:00,8.4,-9.0,29.62,NW,315,0.0,0.0,44,0.00,,---,0.00,VWS V14.01,2014-03-04 11:47:00,
2014-03-04 06:48:00,8.4,-9.0,29.62,NW,315,0.0,0.0,44,0.00,,---,0.00,VWS V14.01,2014-03-04 11:48:00,
2014-03-04 06:49:00,8.4,-9.0,29.62,NW,315,0.0,0.0,44,0.00,,---,0.00,VWS V14.01,2014-03-04 11:49:00,
2014-03-04 06:50:00,8.2,-9.2,29.62,NW,315,0.0,0.0,44,0.00,,---,0.00,VWS V14.01,2014-03-04 11:50:00,
2014-03-04 06:51:00,8.2,-9.2,29.62,WNW,292,0.0,0.0,44,0.00,,---,0.00,VWS V14.01,2014-03-04 11:51:00,
2014-03-04 06:52:00,8.2,-9.2,29.62,WNW,292,0.0,0.0,44,0.00,,---,0.00,VWS V14.01,2014-03-04 11:52:00,
2014-03-04 06:53:00,8.2,-9.2,29.62,East,90,0.0,0.0,44,0.00,,---,0.00,VWS V14.01,2014-03-04 11:53:00,
2014-03-04 06:54:00,8.4,-9.0,29.62,NNW,338,0.0,0.0,44,0.00,,---,0.00,VWS V14.01,2014-03-04 11:54:00,
2014-03-04 06:55:00,8.4,-9.0,29.62,East,90,0.0,0.0,44,0.00,,---,0.00,VWS V14.01,2014-03-04 11:55:00,
2014-03-04 06:56:00,8.4,-9.0,29.65,WSW,248,0.0,0.0,44,0.00,,---,0.00,VWS V14.01,2014-03-04 11:56:00,
2014-03-04 06:57:00,8.4,-9.0,29.65,West,270,0.0,0.0,44,0.00,,---,0.00,VWS V14.01,2014-03-04 11:57:00,
2014-03-04 06:58:00,8.4,-9.0,29.65,West,270,0.0,0.0,44,0.00,,---,0.00,VWS V14.01,2014-03-04 11:58:00,
2014-03-04 06:59:00,8.4,-9.0,29.65,West,270,0.0,0.0,44,0.00,,---,0.00,VWS V14.01,2014-03-04 11:59:00,
2014-03-04 07:00:00,8.4,-9.0,29.65,West,270,0.0,0.0,44,0.00,,---,0.00,VWS V14.01,2014-03-04 12:00:00,
2014-03-04 07:01:00,8.6,-8.8,29.65,West,270,0.0,0.0,44,0.00,,---,0.00,VWS V14.01,2014-03-04 12:01:00,
2014-03-04 07:02:00,8.6,-8.8,29.65,East,90,0.0,0.0,44,0.00,,---,0.00,VWS V14.01,2014-03-04 12:02:00,
2014-03-04 07:03:00,8.6,-8.8,29.65,East,90,0.0,0.0,44,0.00,,---,0.00,VWS V14.01,2014-03-04 12:03:00,
2014-03-04 07:04:00,8.6,-8.8,29.65,East,90,0.0,0.0,44,0.00,,---,0.00,VWS V14.01,2014-03-04 12:04:00,
2014-03-04 07:05:00,8.6,-8.8,29.65,ESE,112,0.0,0.0,44,0.00,,---,0.00,VWS V14.01,2014-03-04 12:05:00,
2014-03-04 07:06:00,8.6,-8.8,29.65,East,90,0.0,0.0,44,0.00,,---,0.00,VWS V14.01,2014-03-04 12:06:00,
2014-03-04 07:07:00,8.6,-8.8,29.65,East,90,0.0,0.0,44,0.00,,---,0.00,VWS V14.01,2014-03-04 12:07:00,
2014-03-04 07:08:00,8.6,-8.8,29.65,West,270,0.0,0.0,44,0.00,,---,0.00,VWS V14.01,2014-03-04 12:08:00,
2014-03-04 07:09:00,8.6,-8.8,29.65,WSW,248,0.0,0.0,44,0.00,,---,0.00,VWS V14.01,2014-03-04 12:09:00,
2014-03-04 07:10:00,8.8,-8.7,29.65,ESE,112,0.0,0.0,44,0.00,,---,0.00,VWS V14.01,2014-03-04 12:10:00,
2014-03-04 07:11:00,8.6,-8.8,29.65,ENE,68,0.0,0.0,44,0.00,,---,0.00,VWS V14.01,2014-03-04 12:11:00,
2014-03-04 07:12:00,8.8,-8.7,29.65,ENE,68,0.0,0.0,44,0.00,,---,0.00,VWS V14.01,2014-03-04 12:12:00,
2014-03-04 07:13:00,9.1,-8.3,29.65,ENE,68,0.0,0.0,44,0.00,,---,0.00,VWS V14.01,2014-03-04 12:13:00,
2014-03-04 07:14:00,9.3,-8.2,29.65,ENE,68,0.0,0.0,44,0.00,,---,0.00,VWS V14.01,2014-03-04 12:14:00,
2014-03-04 07:15:00,9.3,-8.2,29.65,ENE,68,0.0,0.0,44,0.00,,---,0.00,VWS V14.01,2014-03-04 12:15:00,
2014-03-04 07:16:00,9.7,-7.8,29.65,WNW,292,0.0,0.0,44,0.00,,---,0.00,VWS V14.01,2014-03-04 12:16:00,
2014-03-04 07:17:00,9.7,-7.8,29.65,SSE,158,0.0,0.0,44,0.00,,---,0.00,VWS V14.01,2014-03-04 12:17:00,
2014-03-04 07:18:00,9.7,-7.8,29.65,WNW,292,0.0,0.0,44,0.00,,---,0.00,VWS V14.01,2014-03-04 12:18:00,
2014-03-04 07:19:00,9.7,-7.8,29.65,WNW,292,0.0,0.0,44,0.00,,---,0.00,VWS V14.01,2014-03-04 12:19:00,
2014-03-04 07:20:00,9.5,-8.0,29.65,WNW,292,0.0,0.0,44,0.00,,---,0.00,VWS V14.01,2014-03-04 12:20:00,
2014-03-04 07:21:00,9.5,-8.0,29.65,NNE,22,0.0,0.0,44,0.00,,---,0.00,VWS V14.01,2014-03-04 12:21:00,
2014-03-04 07:22:00,9.5,-8.0,29.65,ENE,68,0.0,0.0,44,0.00,,---,0.00,VWS V14.01,2014-03-04 12:22:00,
2014-03-04 07:23:00,9.5,-8.0,29.65,NW,315,0.0,0.0,44,0.00,,---,0.00,VWS V14.01,2014-03-04 12:23:00,
2014-03-04 07:24:00,9.5,-8.0,29.65,West,270,0.0,0.0,44,0.00,,---,0.00,VWS V14.01,2014-03-04 12:24:00,
2014-03-04 07:25:00,9.5,-8.0,29.65,NW,315,0.0,0.0,44,0.00,,---,0.00,VWS V14.01,2014-03-04 12:25:00,
2014-03-04 07:26:00,9.5,-8.0,29.68,NW,315,0.0,0.0,44,0.00,,---,0.00,VWS V14.01,2014-03-04 12:26:00,
2014-03-04 07:27:00,9.5,-8.0,29.68,West,270,0.0,0.0,44,0.00,,---,0.00,VWS V14.01,2014-03-04 12:27:00,
2014-03-04 07:28:00,9.3,-8.2,29.68,WNW,292,0.0,0.0,44,0.00,,---,0.00,VWS V14.01,2014-03-04 12:28:00,
2014-03-04 07:29:00,9.5,-8.0,29.68,West,270,0.0,0.0,44,0.00,,---,0.00,VWS V14.01,2014-03-04 12:29:00,
2014-03-04 07:30:00,9.5,-8.0,29.68,North,0,0.0,0.0,44,0.00,,---,0.00,VWS V14.01,2014-03-04 12:30:00,
2014-03-04 07:31:00,9.5,-8.0,29.68,ENE,68,0.0,0.0,44,0.00,,---,0.00,VWS V14.01,2014-03-04 12:31:00,
2014-03-04 07:32:00,9.5,-8.0,29.68,East,90,0.0,0.0,44,0.00,,---,0.00,VWS V14.01,2014-03-04 12:32:00,
2014-03-04 07:33:00,9.5,-8.0,29.68,ESE,112,0.0,0.0,44,0.00,,---,0.00,VWS V14.01,2014-03-04 12:33:00,
2014-03-04 07:34:00,9.5,-8.0,29.68,SE,135,0.0,0.0,44,0.00,,---,0.00,VWS V14.01,2014-03-04 12:34:00,
2014-03-04 07:35:00,9.7,-7.8,29.68,ENE,68,0.0,0.0,44,0.00,,---,0.00,VWS V14.01,2014-03-04 12:35:00,
2014-03-04 07:36:00,9.7,-7.8,29.68,East,90,0.0,0.0,44,0.00,,---,0.00,VWS V14.01,2014-03-04 12:36:00,
2014-03-04 07:37:00,9.7,-7.8,29.68,East,90,0.0,0.0,44,0.00,,---,0.00,VWS V14.01,2014-03-04 12:37:00,
2014-03-04 07:38:00,9.7,-7.8,29.68,East,90,0.0,0.0,44,0.00,,---,0.00,VWS V14.01,2014-03-04 12:38:00,
2014-03-04 07:39:00,10.2,-7.3,29.68,East,90,0.0,0.0,44,0.00,,---,0.00,VWS V14.01,2014-03-04 12:39:00,
2014-03-04 07:40:00,10.4,-7.2,29.68,ESE,112,0.0,0.0,44,0.00,,---,0.00,VWS V14.01,2014-03-04 12:40:00,
2014-03-04 07:41:00,10.4,-7.2,29.68,East,90,0.0,0.0,44,0.00,,---,0.00,VWS V14.01,2014-03-04 12:41:00,
2014-03-04 07:42:00,10.4,-7.2,29.68,East,90,0.0,0.0,44,0.00,,---,0.00,VWS V14.01,2014-03-04 12:42:00,
2014-03-04 07:43:00,10.2,-7.3,29.68,East,90,0.0,0.0,44,0.00,,---,0.00,VWS V14.01,2014-03-04 12:43:00,
2014-03-04 07:44:00,10.2,-7.3,29.68,WNW,292,0.0,0.0,44,0.00,,---,0.00,VWS V14.01,2014-03-04 12:44:00,
2014-03-04 07:45:00,10.2,-7.3,29.68,WNW,292,0.0,0.0,44,0.00,,---,0.00,VWS V14.01,2014-03-04 12:45:00,
2014-03-04 07:46:00,11.1,-6.5,29.68,West,270,0.0,0.0,44,0.00,,---,0.00,VWS V14.01,2014-03-04 12:46:00,
2014-03-04 07:47:00,11.8,-5.9,29.68,West,270,0.0,0.0,44,0.00,,---,0.00,VWS V14.01,2014-03-04 12:47:00,
2014-03-04 07:48:00,12.4,-5.4,29.68,West,270,0.0,0.0,44,0.00,,---,0.00,VWS V14.01,2014-03-04 12:48:00,
2014-03-04 07:49:00,12.9,-4.9,29.68,West,270,0.0,0.0,44,0.00,,---,0.00,VWS V14.01,2014-03-04 12:49:00,
2014-03-04 07:50:00,13.3,-4.6,29.68,West,270,0.0,0.0,44,0.00,,---,0.00,VWS V14.01,2014-03-04 12:50:00,
2014-03-04 07:51:00,12.9,-4.9,29.65,NW,315,0.9,2.2,44,0.00,,---,0.00,VWS V14.01,2014-03-04 12:51:00,
2014-03-04 07:52:00,13.5,-4.4,29.68,West,270,0.0,0.0,44,0.00,,---,0.00,VWS V14.01,2014-03-04 12:52:00,
2014-03-04 07:53:00,12.9,-4.9,29.68,WNW,292,0.0,0.0,44,0.00,,---,0.00,VWS V14.01,2014-03-04 12:53:00,
2014-03-04 07:54:00,12.7,-5.0,29.68,WNW,292,0.0,0.0,44,0.00,,---,0.00,VWS V14.01,2014-03-04 12:54:00,
2014-03-04 07:55:00,12.6,-5.2,29.68,WNW,292,0.0,0.0,44,0.00,,---,0.00,VWS V14.01,2014-03-04 12:55:00,
2014-03-04 07:56:00,12.6,-5.2,29.68,WNW,292,0.0,0.0,44,0.00,,---,0.00,VWS V14.01,2014-03-04 12:56:00,
2014-03-04 07:57:00,12.2,-5.5,29.68,East,90,0.0,0.0,44,0.00,,---,0.00,VWS V14.01,2014-03-04 12:57:00,
2014-03-04 07:58:00,12.0,-5.7,29.68,East,90,0.0,0.0,44,0.00,,---,0.00,VWS V14.01,2014-03-04 12:58:00,
2014-03-04 07:59:00,12.0,-5.7,29.68,East,90,0.0,0.0,44,0.00,,---,0.00,VWS V14.01,2014-03-04 12:59:00,
2014-03-04 08:00:00,12.0,-5.7,29.68,East,90,0.0,0.0,44,0.00,,---,0.00,VWS V14.01,2014-03-04 13:00:00,
2014-03-04 08:01:00,11.8,-5.9,29.68,East,90,0.0,0.0,44,0.00,,---,0.00,VWS V14.01,2014-03-04 13:01:00,
2014-03-04 08:02:00,11.8,-5.9,29.68,East,90,0.0,0.0,44,0.00,,---,0.00,VWS V14.01,2014-03-04 13:02:00,
2014-03-04 08:03:00,11.8,-5.9,29.68,North,0,0.0,0.0,44,0.00,,---,0.00,VWS V14.01,2014-03-04 13:03:00,
2014-03-04 08:04:00,11.8,-5.9,29.68,North,0,0.0,0.0,44,0.00,,---,0.00,VWS V14.01,2014-03-04 13:04:00,
2014-03-04 08:05:00,11.8,-5.9,29.68,North,0,0.0,0.0,44,0.00,,---,0.00,VWS V14.01,2014-03-04 13:05:00,
2014-03-04 08:06:00,11.8,-5.9,29.68,West,270,0.0,0.0,44,0.00,,---,0.00,VWS V14.01,2014-03-04 13:06:00,
2014-03-04 08:07:00,11.8,-5.9,29.68,West,270,0.0,0.0,44,0.00,,---,0.00,VWS V14.01,2014-03-04 13:07:00,
2014-03-04 08:08:00,11.8,-5.9,29.68,West,270,0.0,0.0,44,0.00,,---,0.00,VWS V14.01,2014-03-04 13:08:00,
2014-03-04 08:09:00,11.7,-6.0,29.68,West,270,0.0,0.0,44,0.00,,---,0.00,VWS V14.01,2014-03-04 13:09:00,
2014-03-04 08:10:00,11.7,-6.0,29.68,East,90,0.0,0.0,44,0.00,,---,0.00,VWS V14.01,2014-03-04 13:10:00,
2014-03-04 08:11:00,11.7,-6.0,29.68,WNW,292,0.0,0.0,44,0.00,,---,0.00,VWS V14.01,2014-03-04 13:11:00,
2014-03-04 08:12:00,11.7,-6.0,29.68,WNW,292,0.0,0.0,44,0.00,,---,0.00,VWS V14.01,2014-03-04 13:12:00,
2014-03-04 08:13:00,11.7,-6.0,29.68,WNW,292,0.0,0.0,44,0.00,,---,0.00,VWS V14.01,2014-03-04 13:13:00,
2014-03-04 08:14:00,11.7,-6.0,29.68,WNW,292,0.0,0.0,44,0.00,,---,0.00,VWS V14.01,2014-03-04 13:14:00,
2014-03-04 08:15:00,11.7,-6.0,29.68,WNW,292,0.0,0.0,44,0.00,,---,0.00,VWS V14.01,2014-03-04 13:15:00,
2014-03-04 08:16:00,11.7,-6.0,29.68,East,90,0.0,0.0,44,0.00,,---,0.00,VWS V14.01,2014-03-04 13:16:00,
2014-03-04 08:17:00,11.8,-5.9,29.68,East,90,0.0,0.0,44,0.00,,---,0.00,VWS V14.01,2014-03-04 13:17:00,
2014-03-04 08:18:00,11.8,-5.9,29.68,East,90,0.0,0.0,44,0.00,,---,0.00,VWS V14.01,2014-03-04 13:18:00,
2014-03-04 08:19:00,12.0,-5.7,29.68,East,90,0.0,0.0,44,0.00,,---,0.00,VWS V14.01,2014-03-04 13:19:00,
2014-03-04 08:20:00,12.0,-5.7,29.68,East,90,0.0,0.0,44,0.00,,---,0.00,VWS V14.01,2014-03-04 13:20:00,
2014-03-04 08:21:00,12.0,-5.7,29.68,ESE,112,0.0,0.0,44,0.00,,---,0.00,VWS V14.01,2014-03-04 13:21:00,
2014-03-04 08:22:00,12.2,-5.5,29.68,East,90,0.0,0.0,44,0.00,,---,0.00,VWS V14.01,2014-03-04 13:22:00,
2014-03-04 08:23:00,12.2,-5.5,29.68,East,90,0.9,1.3,44,0.00,,---,0.00,VWS V14.01,2014-03-04 13:23:00,
2014-03-04 08:24:00,12.2,-5.5,29.68,West,270,0.0,0.9,44,0.00,,---,0.00,VWS V14.01,2014-03-04 13:24:00,
2014-03-04 08:25:00,12.2,-5.5,29.68,WNW,292,0.0,0.0,44,0.00,,---,0.00,VWS V14.01,2014-03-04 13:25:00,
2014-03-04 08:26:00,12.2,-5.5,29.68,WNW,292,3.1,3.1,44,0.00,,---,0.00,VWS V14.01,2014-03-04 13:26:00,
2014-03-04 08:27:00,12.2,-5.5,29.68,NW,315,2.7,3.1,44,0.00,,---,0.00,VWS V14.01,2014-03-04 13:27:00,
2014-03-04 08:28:00,12.2,-5.5,29.68,WNW,292,1.1,2.7,44,0.00,,---,0.00,VWS V14.01,2014-03-04 13:28:00,
2014-03-04 08:29:00,12.2,-5.5,29.68,WNW,292,1.1,2.2,44,0.00,,---,0.00,VWS V14.01,2014-03-04 13:29:00,
2014-03-04 08:30:00,12.2,-5.5,29.68,WNW,292,1.1,1.1,44,0.00,,---,0.00,VWS V14.01,2014-03-04 13:30:00,
2014-03-04 08:31:00,12.4,-5.4,29.68,WNW,292,0.0,2.7,44,0.00,,---,0.00,VWS V14.01,2014-03-04 13:31:00,
2014-03-04 08:32:00,15.3,-1.8,29.68,East,90,0.0,1.6,46,0.00,,---,0.00,VWS V14.01,2014-03-04 13:32:00,
2014-03-04 08:33:00,12.4,-5.4,29.68,WNW,292,2.2,2.5,44,0.00,,---,0.00,VWS V14.01,2014-03-04 13:33:00,
2014-03-04 08:34:00,12.6,-5.2,29.68,SW,225,0.0,2.2,44,0.00,,---,0.00,VWS V14.01,2014-03-04 13:34:00,
2014-03-04 08:35:00,12.6,-5.2,29.68,SW,225,0.0,0.0,44,0.00,,---,0.00,VWS V14.01,2014-03-04 13:35:00,
2014-03-04 08:36:00,12.6,-5.2,29.68,WNW,292,0.0,0.0,44,0.00,,---,0.00,VWS V14.01,2014-03-04 13:36:00,
2014-03-04 08:37:00,12.6,-5.2,29.68,West,270,2.7,2.7,44,0.00,,---,0.00,VWS V14.01,2014-03-04 13:37:00,
2014-03-04 08:38:00,12.6,-5.2,29.68,WNW,292,1.6,2.7,44,0.00,,---,0.00,VWS V14.01,2014-03-04 13:38:00,
2014-03-04 08:39:00,12.6,-5.2,29.68,WNW,292,1.1,1.6,44,0.00,,---,0.00,VWS V14.01,2014-03-04 13:39:00,
2014-03-04 08:40:00,12.6,-5.2,29.68,NW,315,1.1,1.1,44,0.00,,---,0.00,VWS V14.01,2014-03-04 13:40:00,
2014-03-04 08:41:00,12.6,-5.2,29.68,WNW,292,0.0,0.0,44,0.00,,---,0.00,VWS V14.01,2014-03-04 13:41:00,
2014-03-04 08:42:00,12.7,-5.0,29.65,WNW,292,0.0,0.0,44,0.00,,---,0.00,VWS V14.01,2014-03-04 13:42:00,
2014-03-04 08:43:00,12.7,-5.0,29.65,West,270,0.0,3.1,44,0.00,,---,0.00,VWS V14.01,2014-03-04 13:43:00,
2014-03-04 08:44:00,12.7,-5.0,29.65,West,270,0.0,0.0,44,0.00,,---,0.00,VWS V14.01,2014-03-04 13:44:00,
2014-03-04 08:45:00,12.7,-5.0,29.65,WSW,248,0.0,0.0,44,0.00,,---,0.00,VWS V14.01,2014-03-04 13:45:00,
2014-03-04 08:46:00,12.7,-5.0,29.65,NW,315,0.0,0.0,44,0.00,,---,0.00,VWS V14.01,2014-03-04 13:46:00,
2014-03-04 08:47:00,12.7,-5.0,29.65,NW,315,0.0,0.0,44,0.00,,---,0.00,VWS V14.01,2014-03-04 13:47:00,
2014-03-04 08:48:00,12.9,-4.9,29.65,West,270,0.0,0.0,44,0.00,,---,0.00,VWS V14.01,2014-03-04 13:48:00,
2014-03-04 08:49:00,12.9,-4.9,29.65,NW,315,2.5,2.5,44,0.00,,---,0.00,VWS V14.01,2014-03-04 13:49:00,
2014-03-04 08:50:00,12.9,-4.9,29.65,NW,315,2.2,2.7,44,0.00,,---,0.00,VWS V14.01,2014-03-04 13:50:00,
2014-03-04 08:51:00,12.9,-4.9,29.65,NW,315,0.9,2.2,44,0.00,,---,0.00,VWS V14.01,2014-03-04 13:51:00,
2014-03-04 08:52:00,12.9,-4.9,29.65,WNW,292,1.6,2.0,44,0.00,,---,0.00,VWS V14.01,2014-03-04 13:52:00,
2014-03-04 08:53:00,12.9,-4.9,29.65,WNW,292,1.3,2.2,44,0.00,,---,0.00,VWS V14.01,2014-03-04 13:53:00,
2014-03-04 08:54:00,13.1,-4.7,29.65,WNW,292,0.0,1.1,44,0.00,,---,0.00,VWS V14.01,2014-03-04 13:54:00,
2014-03-04 08:55:00,13.1,-4.7,29.65,SW,225,1.3,1.3,44,0.00,,---,0.00,VWS V14.01,2014-03-04 13:55:00,
2014-03-04 08:56:00,16.7,-0.9,29.68,WNW,292,0.0,0.0,45,0.00,,---,0.00,VWS V14.01,2014-03-04 13:56:00,
2014-03-04 08:57:00,13.3,-4.6,29.68,WNW,292,2.7,2.7,44,0.00,,---,0.00,VWS V14.01,2014-03-04 13:57:00,
2014-03-04 08:58:00,13.3,-4.6,29.68,WNW,292,2.9,2.9,44,0.00,,---,0.00,VWS V14.01,2014-03-04 13:58:00,
2014-03-04 08:59:00,13.3,-4.6,29.68,WNW,292,0.0,0.0,44,0.00,,---,0.00,VWS V14.01,2014-03-04 13:59:00,
2014-03-04 09:00:00,13.3,-4.6,29.68,NW,315,1.6,2.7,44,0.00,,---,0.00,VWS V14.01,2014-03-04 14:00:00,
2014-03-04 09:01:00,13.3,-4.6,29.68,West,270,2.9,2.9,44,0.00,,---,0.00,VWS V14.01,2014-03-04 14:01:00,
2014-03-04 09:02:00,13.3,-4.6,29.68,West,270,2.5,2.9,44,0.00,,---,0.00,VWS V14.01,2014-03-04 14:02:00,
2014-03-04 09:03:00,13.3,-4.6,29.68,WNW,292,2.9,2.9,44,0.00,,---,0.00,VWS V14.01,2014-03-04 14:03:00,
2014-03-04 09:04:00,13.5,-4.4,29.68,WSW,248,0.0,0.0,44,0.00,,---,0.00,VWS V14.01,2014-03-04 14:04:00,
2014-03-04 09:05:00,13.5,-4.4,29.68,East,90,0.0,0.0,44,0.00,,---,0.00,VWS V14.01,2014-03-04 14:05:00,
2014-03-04 09:06:00,13.5,-4.4,29.68,ENE,68,0.0,2.0,44,0.00,,---,0.00,VWS V14.01,2014-03-04 14:06:00,
2014-03-04 09:07:00,17.2,-0.4,29.68,NNW,338,1.6,1.6,45,0.00,,---,0.00,VWS V14.01,2014-03-04 14:07:00,
2014-03-04 09:08:00,13.5,-4.4,29.68,NE,45,0.0,0.0,44,0.00,,---,0.00,VWS V14.01,2014-03-04 14:08:00,
2014-03-04 09:09:00,13.8,-4.1,29.68,WNW,292,2.0,2.0,44,0.00,,---,0.00,VWS V14.01,2014-03-04 14:09:00,
2014-03-04 09:10:00,13.8,-4.1,29.68,WNW,292,2.0,2.2,44,0.00,,---,0.00,VWS V14.01,2014-03-04 14:10:00,
2014-03-04 09:11:00,13.8,-4.1,29.71,WNW,292,1.3,2.2,44,0.00,,---,0.00,VWS V14.01,2014-03-04 14:11:00,
2014-03-04 09:12:00,14.0,-3.0,29.71,WNW,292,0.0,1.3,46,0.00,,---,0.00,VWS V14.01,2014-03-04 14:12:00,
2014-03-04 09:13:00,14.0,-3.0,29.71,WNW,292,0.0,0.0,46,0.00,,---,0.00,VWS V14.01,2014-03-04 14:13:00,
2014-03-04 09:14:00,14.2,-2.8,29.71,West,270,2.5,2.5,46,0.00,,---,0.00,VWS V14.01,2014-03-04 14:14:00,
2014-03-04 09:15:00,17.2,-0.4,29.68,NW,315,0.0,0.0,45,0.00,,---,0.00,VWS V14.01,2014-03-04 14:15:00,
2014-03-04 09:16:00,14.4,-2.6,29.71,WNW,292,2.7,2.7,46,0.00,,---,0.00,VWS V14.01,2014-03-04 14:16:00,
2014-03-04 09:17:00,14.4,-2.6,29.71,North,0,0.0,2.7,46,0.00,,---,0.00,VWS V14.01,2014-03-04 14:17:00,
2014-03-04 09:18:00,14.4,-2.6,29.71,East,90,0.0,0.0,46,0.00,,---,0.00,VWS V14.01,2014-03-04 14:18:00,
2014-03-04 09:19:00,14.5,-2.5,29.71,NW,315,0.0,0.0,46,0.00,,---,0.00,VWS V14.01,2014-03-04 14:19:00,
2014-03-04 09:20:00,14.5,-2.5,29.71,South,180,0.0,0.0,46,0.00,,---,0.00,VWS V14.01,2014-03-04 14:20:00,
2014-03-04 09:21:00,14.7,-2.3,29.71,West,270,0.0,0.0,46,0.00,,---,0.00,VWS V14.01,2014-03-04 14:21:00,
2014-03-04 09:22:00,14.9,-2.1,29.71,SW,225,0.0,0.0,46,0.00,,---,0.00,VWS V14.01,2014-03-04 14:22:00,
2014-03-04 09:23:00,14.9,-2.1,29.71,WNW,292,2.5,2.5,46,0.00,,---,0.00,VWS V14.01,2014-03-04 14:23:00,
2014-03-04 09:24:00,14.9,-2.1,29.71,ESE,112,0.9,1.3,46,0.00,,---,0.00,VWS V14.01,2014-03-04 14:24:00,
2014-03-04 09:25:00,14.9,-2.1,29.71,ENE,68,0.9,1.3,46,0.00,,---,0.00,VWS V14.01,2014-03-04 14:25:00,
2014-03-04 09:26:00,14.9,-2.1,29.68,East,90,0.0,1.1,46,0.00,,---,0.00,VWS V14.01,2014-03-04 14:26:00,
2014-03-04 09:27:00,15.1,-2.0,29.68,West,270,0.0,0.0,46,0.00,,---,0.00,VWS V14.01,2014-03-04 14:27:00,
2014-03-04 09:28:00,15.1,-2.0,29.68,ENE,68,0.0,0.0,46,0.00,,---,0.00,VWS V14.01,2014-03-04 14:28:00,
2014-03-04 09:29:00,15.3,-1.8,29.68,East,90,0.0,1.1,46,0.00,,---,0.00,VWS V14.01,2014-03-04 14:29:00,
2014-03-04 09:30:00,15.3,-1.8,29.68,East,90,0.0,1.1,46,0.00,,---,0.00,VWS V14.01,2014-03-04 14:30:00,
2014-03-04 09:31:00,15.3,-1.8,29.68,East,90,0.0,0.0,46,0.00,,---,0.00,VWS V14.01,2014-03-04 14:31:00,
2014-03-04 09:32:00,15.3,-1.8,29.68,East,90,0.0,1.6,46,0.00,,---,0.00,VWS V14.01,2014-03-04 14:32:00,
2014-03-04 09:33:00,15.4,-1.6,29.68,East,90,0.0,1.1,46,0.00,,---,0.00,VWS V14.01,2014-03-04 14:33:00,
2014-03-04 09:34:00,16.0,-1.6,29.68,East,90,0.0,0.0,45,0.00,,---,0.00,VWS V14.01,2014-03-04 14:34:00,
2014-03-04 09:35:00,16.0,-1.6,29.68,East,90,2.0,2.0,45,0.00,,---,0.00,VWS V14.01,2014-03-04 14:35:00,
2014-03-04 09:36:00,18.5,1.2,29.68,East,90,0.0,2.0,46,0.00,,---,0.00,VWS V14.01,2014-03-04 14:36:00,
2014-03-04 09:37:00,19.8,2.3,29.68,ENE,68,0.0,0.0,46,0.00,,---,0.00,VWS V14.01,2014-03-04 14:37:00,
2014-03-04 09:38:00,19.6,1.7,29.68,SW,225,0.0,0.0,45,0.00,,---,0.00,VWS V14.01,2014-03-04 14:38:00,
2014-03-04 09:39:00,19.4,2.0,29.68,NW,315,0.0,0.0,46,0.00,,---,0.00,VWS V14.01,2014-03-04 14:39:00,
2014-03-04 09:40:00,19.0,1.2,29.68,East,90,0.0,0.0,45,0.00,,---,0.00,VWS V14.01,2014-03-04 14:40:00,
2014-03-04 09:41:00,18.7,0.9,29.68,ENE,68,0.0,0.0,45,0.00,,---,0.00,VWS V14.01,2014-03-04 14:41:00,
2014-03-04 09:42:00,18.5,0.7,29.68,WNW,292,0.0,1.6,45,0.00,,---,0.00,VWS V14.01,2014-03-04 14:42:00,
2014-03-04 09:43:00,18.3,0.6,29.68,West,270,0.0,0.0,45,0.00,,---,0.00,VWS V14.01,2014-03-04 14:43:00,
2014-03-04 09:44:00,18.0,0.2,29.68,WNW,292,3.4,3.4,45,0.00,,---,0.00,VWS V14.01,2014-03-04 14:44:00,
2014-03-04 09:45:00,18.0,0.2,29.68,WNW,292,3.1,3.4,45,0.00,,---,0.00,VWS V14.01,2014-03-04 14:45:00,
2014-03-04 09:46:00,17.8,0.1,29.68,SE,135,0.9,3.1,45,0.00,,---,0.00,VWS V14.01,2014-03-04 14:46:00,
2014-03-04 09:47:00,17.8,0.1,29.68,WNW,292,0.0,0.9,45,0.00,,---,0.00,VWS V14.01,2014-03-04 14:47:00,
2014-03-04 09:48:00,17.8,0.1,29.68,NW,315,2.9,2.9,45,0.00,,---,0.00,VWS V14.01,2014-03-04 14:48:00,
2014-03-04 09:49:00,17.4,-0.3,29.68,WNW,292,0.0,0.0,45,0.00,,---,0.00,VWS V14.01,2014-03-04 14:49:00,
2014-03-04 09:50:00,17.1,-0.6,29.68,WNW,292,2.7,2.7,45,0.00,,---,0.00,VWS V14.01,2014-03-04 14:50:00,
2014-03-04 09:51:00,17.1,-0.6,29.68,WNW,292,2.7,2.7,45,0.00,,---,0.00,VWS V14.01,2014-03-04 14:51:00,
2014-03-04 09:52:00,16.9,-0.8,29.68,NW,315,2.5,2.7,45,0.00,,---,0.00,VWS V14.01,2014-03-04 14:52:00,
2014-03-04 09:53:00,16.7,-0.9,29.68,NW,315,0.0,2.5,45,0.00,,---,0.00,VWS V14.01,2014-03-04 14:53:00,
2014-03-04 09:54:00,16.7,-0.9,29.68,West,270,0.0,0.0,45,0.00,,---,0.00,VWS V14.01,2014-03-04 14:54:00,
2014-03-04 09:55:00,16.7,-0.9,29.68,West,270,0.0,0.0,45,0.00,,---,0.00,VWS V14.01,2014-03-04 14:55:00,
2014-03-04 09:56:00,16.7,-0.9,29.68,WNW,292,0.0,0.0,45,0.00,,---,0.00,VWS V14.01,2014-03-04 14:56:00,
2014-03-04 09:57:00,16.9,-0.8,29.68,NW,315,0.0,0.0,45,0.00,,---,0.00,VWS V14.01,2014-03-04 14:57:00,
2014-03-04 09:58:00,16.9,-0.8,29.68,WNW,292,0.0,0.0,45,0.00,,---,0.00,VWS V14.01,2014-03-04 14:58:00,
2014-03-04 09:59:00,17.1,-0.6,29.68,East,90,0.0,0.0,45,0.00,,---,0.00,VWS V14.01,2014-03-04 14:59:00,
2014-03-04 10:00:00,17.1,-0.6,29.68,NNE,22,0.0,1.1,45,0.00,,---,0.00,VWS V14.01,2014-03-04 15:00:00,
2014-03-04 10:01:00,17.1,-0.6,29.68,WNW,292,2.0,2.0,45,0.00,,---,0.00,VWS V14.01,2014-03-04 15:01:00,
2014-03-04 10:02:00,17.1,-0.6,29.68,WNW,292,1.3,3.1,45,0.00,,---,0.00,VWS V14.01,2014-03-04 15:02:00,
2014-03-04 10:03:00,17.1,-0.6,29.68,NW,315,2.9,2.9,45,0.00,,---,0.00,VWS V14.01,2014-03-04 15:03:00,
2014-03-04 10:04:00,16.9,-0.8,29.68,WNW,292,0.0,0.0,45,0.00,,---,0.00,VWS V14.01,2014-03-04 15:04:00,
2014-03-04 10:05:00,16.9,-0.8,29.68,SW,225,0.9,1.6,45,0.00,,---,0.00,VWS V14.01,2014-03-04 15:05:00,
2014-03-04 10:06:00,16.9,-0.8,29.68,SW,225,0.0,0.9,45,0.00,,---,0.00,VWS V14.01,2014-03-04 15:06:00,
2014-03-04 10:07:00,17.2,-0.4,29.68,NNW,338,1.6,1.6,45,0.00,,---,0.00,VWS V14.01,2014-03-04 15:07:00,
2014-03-04 10:08:00,17.4,-0.3,29.68,SSW,202,0.0,1.6,45,0.00,,---,0.00,VWS V14.01,2014-03-04 15:08:00,
2014-03-04 10:09:00,17.4,-0.3,29.68,West,270,2.5,2.5,45,0.00,,---,0.00,VWS V14.01,2014-03-04 15:09:00,
2014-03-04 10:10:00,17.6,-0.1,29.68,WNW,292,1.6,2.9,45,0.00,,---,0.00,VWS V14.01,2014-03-04 15:10:00,
2014-03-04 10:11:00,17.6,-0.1,29.68,NW,315,2.9,2.9,45,0.00,,---,0.00,VWS V14.01,2014-03-04 15:11:00,
2014-03-04 10:12:00,17.4,-0.3,29.68,WNW,292,4.0,4.0,45,0.00,,---,0.00,VWS V14.01,2014-03-04 15:12:00,
2014-03-04 10:13:00,17.4,-0.3,29.68,WNW,292,2.7,4.0,45,0.00,,---,0.00,VWS V14.01,2014-03-04 15:13:00,
2014-03-04 10:14:00,17.2,-0.4,29.68,NW,315,0.0,0.0,45,0.00,,---,0.00,VWS V14.01,2014-03-04 15:14:00,
2014-03-04 10:15:00,17.2,-0.4,29.68,NW,315,0.0,0.0,45,0.00,,---,0.00,VWS V14.01,2014-03-04 15:15:00,
2014-03-04 10:16:00,17.2,-0.4,29.68,WNW,292,2.0,3.1,45,0.00,,---,0.00,VWS V14.01,2014-03-04 15:16:00,
2014-03-04 10:17:00,17.2,-0.4,29.68,WNW,292,0.0,2.0,45,0.00,,---,0.00,VWS V14.01,2014-03-04 15:17:00,
2014-03-04 10:18:00,17.4,-0.3,29.68,NW,315,2.5,2.5,45,0.00,,---,0.00,VWS V14.01,2014-03-04 15:18:00,
2014-03-04 10:19:00,17.4,-0.3,29.68,WNW,292,1.1,1.1,45,0.00,,---,0.00,VWS V14.01,2014-03-04 15:19:00,
2014-03-04 10:20:00,17.4,-0.3,29.68,West,270,0.0,1.1,45,0.00,,---,0.00,VWS V14.01,2014-03-04 15:20:00,
2014-03-04 10:21:00,17.6,-0.1,29.68,WNW,292,1.3,1.3,45,0.00,,---,0.00,VWS V14.01,2014-03-04 15:21:00,
2014-03-04 10:22:00,17.8,-0.4,29.68,WNW,292,1.3,1.6,44,0.00,,---,0.00,VWS V14.01,2014-03-04 15:22:00,
2014-03-04 10:23:00,18.0,0.2,29.68,West,270,0.0,1.3,45,0.00,,---,0.00,VWS V14.01,2014-03-04 15:23:00,
2014-03-04 10:24:00,18.1,0.4,29.68,WNW,292,0.0,0.0,45,0.00,,---,0.00,VWS V14.01,2014-03-04 15:24:00,
2014-03-04 10:25:00,18.1,0.4,29.68,WNW,292,0.0,0.9,45,0.00,,---,0.00,VWS V14.01,2014-03-04 15:25:00,
2014-03-04 10:26:00,18.3,0.1,29.65,NW,315,0.0,0.0,44,0.00,,---,0.00,VWS V14.01,2014-03-04 15:26:00,
2014-03-04 10:27:00,18.3,0.1,29.65,NW,315,0.0,0.0,44,0.00,,---,0.00,VWS V14.01,2014-03-04 15:27:00,
2014-03-04 10:28:00,18.3,0.1,29.65,NW,315,3.4,3.4,44,0.00,,---,0.00,VWS V14.01,2014-03-04 15:28:00,
2014-03-04 10:29:00,18.3,0.1,29.65,NNW,338,2.7,2.9,44,0.00,,---,0.00,VWS V14.01,2014-03-04 15:29:00,
2014-03-04 10:30:00,18.3,0.1,29.65,WNW,292,1.3,2.9,44,0.00,,---,0.00,VWS V14.01,2014-03-04 15:30:00,
2014-03-04 10:31:00,18.5,0.2,29.65,SSE,158,0.0,1.3,44,0.00,,---,0.00,VWS V14.01,2014-03-04 15:31:00,
2014-03-04 10:32:00,18.5,0.2,29.65,SSW,202,1.6,1.6,44,0.00,,---,0.00,VWS V14.01,2014-03-04 15:32:00,
2014-03-04 10:33:00,18.5,0.2,29.65,SE,135,0.0,1.6,44,0.00,,---,0.00,VWS V14.01,2014-03-04 15:33:00,
2014-03-04 10:34:00,18.5,0.2,29.65,SE,135,0.0,0.0,44,0.00,,---,0.00,VWS V14.01,2014-03-04 15:34:00,
2014-03-04 10:35:00,18.7,0.4,29.65,ENE,68,0.0,0.0,44,0.00,,---,0.00,VWS V14.01,2014-03-04 15:35:00,
2014-03-04 10:36:00,18.7,0.4,29.65,WNW,292,0.0,0.0,44,0.00,,---,0.00,VWS V14.01,2014-03-04 15:36:00,
2014-03-04 10:37:00,19.0,0.7,29.65,West,270,1.6,1.6,44,0.00,,---,0.00,VWS V14.01,2014-03-04 15:37:00,
2014-03-04 10:38:00,19.0,0.7,29.65,West,270,2.0,2.0,44,0.00,,---,0.00,VWS V14.01,2014-03-04 15:38:00,
2014-03-04 10:39:00,19.0,0.7,29.65,SSE,158,0.0,0.0,44,0.00,,---,0.00,VWS V14.01,2014-03-04 15:39:00,
2014-03-04 10:40:00,19.2,1.4,29.65,South,180,0.9,1.3,45,0.00,,---,0.00,VWS V14.01,2014-03-04 15:40:00,
2014-03-04 10:41:00,19.2,1.4,29.65,SSE,158,0.0,0.9,45,0.00,,---,0.00,VWS V14.01,2014-03-04 15:41:00,
2014-03-04 10:42:00,19.2,1.4,29.65,East,90,0.9,0.9,45,0.00,,---,0.00,VWS V14.01,2014-03-04 15:42:00,
2014-03-04 10:43:00,19.4,1.1,29.65,East,90,1.1,2.5,44,0.00,,---,0.00,VWS V14.01,2014-03-04 15:43:00,
2014-03-04 10:44:00,19.6,1.2,29.65,East,90,2.2,2.5,44,0.00,,---,0.00,VWS V14.01,2014-03-04 15:44:00,
2014-03-04 10:45:00,19.6,1.2,29.65,East,90,2.2,2.2,44,0.00,,---,0.00,VWS V14.01,2014-03-04 15:45:00,
2014-03-04 10:46:00,19.8,1.4,29.65,WNW,292,0.0,2.2,44,0.00,,---,0.00,VWS V14.01,2014-03-04 15:46:00,
2014-03-04 10:47:00,19.8,1.4,29.65,WNW,292,0.0,0.0,44,0.00,,---,0.00,VWS V14.01,2014-03-04 15:47:00,
2014-03-04 10:48:00,19.6,1.2,29.65,East,90,2.9,2.9,44,0.00,,---,0.00,VWS V14.01,2014-03-04 15:48:00,
2014-03-04 10:49:00,19.8,1.4,29.65,East,90,2.9,2.9,44,0.00,,---,0.00,VWS V14.01,2014-03-04 15:49:00,
2014-03-04 10:50:00,19.8,1.4,29.65,ENE,68,2.0,2.9,44,0.00,,---,0.00,VWS V14.01,2014-03-04 15:50:00,
2014-03-04 10:51:00,19.8,1.4,29.65,ENE,68,2.2,2.5,44,0.00,,---,0.00,VWS V14.01,2014-03-04 15:51:00,
2014-03-04 10:52:00,19.9,1.5,29.65,ENE,68,2.7,2.7,44,0.00,,---,0.00,VWS V14.01,2014-03-04 15:52:00,
2014-03-04 10:53:00,19.9,1.5,29.65,East,90,1.3,2.7,44,0.00,,---,0.00,VWS V14.01,2014-03-04 15:53:00,
2014-03-04 10:54:00,20.1,1.7,29.65,East,90,0.0,1.3,44,0.00,,---,0.00,VWS V14.01,2014-03-04 15:54:00,
2014-03-04 10:55:00,20.1,1.7,29.65,ESE,112,1.3,1.3,44,0.00,,---,0.00,VWS V14.01,2014-03-04 15:55:00,
2014-03-04 10:56:00,20.1,1.7,29.65,ENE,68,2.2,2.5,44,0.00,,---,0.00,VWS V14.01,2014-03-04 15:56:00,
2014-03-04 10:57:00,20.3,1.9,29.65,East,90,1.3,2.2,44,0.00,,---,0.00,VWS V14.01,2014-03-04 15:57:00,
2014-03-04 10:58:00,20.3,1.9,29.65,ENE,68,0.0,1.3,44,0.00,,---,0.00,VWS V14.01,2014-03-04 15:58:00,
2014-03-04 10:59:00,20.3,1.9,29.65,ENE,68,0.0,0.0,44,0.00,,---,0.00,VWS V14.01,2014-03-04 15:59:00,
2014-03-04 11:00:00,20.5,2.0,29.65,ENE,68,0.0,0.0,44,0.00,,---,0.00,VWS V14.01,2014-03-04 16:00:00,
2014-03-04 11:01:00,20.5,2.0,29.65,SW,225,0.9,1.3,44,0.00,,---,0.00,VWS V14.01,2014-03-04 16:01:00,
2014-03-04 11:02:00,20.7,2.2,29.65,ENE,68,0.0,0.9,44,0.00,,---,0.00,VWS V14.01,2014-03-04 16:02:00,
2014-03-04 11:03:00,20.7,2.2,29.65,ENE,68,0.0,0.0,44,0.00,,---,0.00,VWS V14.01,2014-03-04 16:03:00,
2014-03-04 11:04:00,20.7,2.2,29.65,WNW,292,0.0,0.0,44,0.00,,---,0.00,VWS V14.01,2014-03-04 16:04:00,
2014-03-04 11:05:00,20.7,2.2,29.65,NW,315,3.4,3.4,44,0.00,,---,0.00,VWS V14.01,2014-03-04 16:05:00,
2014-03-04 11:06:00,20.7,2.2,29.65,West,270,0.0,3.4,44,0.00,,---,0.00,VWS V14.01,2014-03-04 16:06:00,
2014-03-04 11:07:00,20.8,2.4,29.65,SE,135,0.0,0.0,44,0.00,,---,0.00,VWS V14.01,2014-03-04 16:07:00,
2014-03-04 11:08:00,20.8,2.4,29.65,SSE,158,2.5,2.5,44,0.00,,---,0.00,VWS V14.01,2014-03-04 16:08:00,
2014-03-04 11:09:00,20.8,2.4,29.65,SE,135,2.5,2.5,44,0.00,,---,0.00,VWS V14.01,2014-03-04 16:09:00,
2014-03-04 11:10:00,20.8,2.4,29.65,East,90,3.6,3.8,44,0.00,,---,0.00,VWS V14.01,2014-03-04 16:10:00,
2014-03-04 11:11:00,20.8,2.4,29.62,East,90,2.9,3.6,44,0.00,,---,0.00,VWS V14.01,2014-03-04 16:11:00,
2014-03-04 11:12:00,20.8,2.4,29.62,ESE,112,2.2,2.9,44,0.00,,---,0.00,VWS V14.01,2014-03-04 16:12:00,
2014-03-04 11:13:00,21.0,2.5,29.62,NNE,22,2.7,2.7,44,0.00,,---,0.00,VWS V14.01,2014-03-04 16:13:00,
2014-03-04 11:14:00,21.2,2.7,29.62,NNE,22,1.6,2.7,44,0.00,,---,0.00,VWS V14.01,2014-03-04 16:14:00,
2014-03-04 11:15:00,21.2,2.2,29.62,ESE,112,1.6,1.6,43,0.00,,---,0.00,VWS V14.01,2014-03-04 16:15:00,
2014-03-04 11:16:00,21.2,2.7,29.62,East,90,3.4,3.4,44,0.00,,---,0.00,VWS V14.01,2014-03-04 16:16:00,
2014-03-04 11:17:00,21.2,2.7,29.62,ESE,112,2.7,3.4,44,0.00,,---,0.00,VWS V14.01,2014-03-04 16:17:00,
2014-03-04 11:18:00,24.8,5.0,29.62,WNW,292,0.0,2.0,42,0.00,,---,0.00,VWS V14.01,2014-03-04 16:18:00,
2014-03-04 11:19:00,21.4,2.4,29.62,East,90,2.9,3.4,43,0.00,,---,0.00,VWS V14.01,2014-03-04 16:19:00,
2014-03-04 11:20:00,21.4,2.4,29.62,West,270,0.0,2.9,43,0.00,,---,0.00,VWS V14.01,2014-03-04 16:20:00,
2014-03-04 11:21:00,21.4,2.4,29.62,SSE,158,0.0,1.6,43,0.00,,---,0.00,VWS V14.01,2014-03-04 16:21:00,
2014-03-04 11:22:00,21.6,2.5,29.62,NE,45,0.0,0.0,43,0.00,,---,0.00,VWS V14.01,2014-03-04 16:22:00,
2014-03-04 11:23:00,21.6,2.5,29.62,East,90,3.8,3.8,43,0.00,,---,0.00,VWS V14.01,2014-03-04 16:23:00,
2014-03-04 11:24:00,21.6,2.5,29.62,East,90,2.5,3.8,43,0.00,,---,0.00,VWS V14.01,2014-03-04 16:24:00,
2014-03-04 11:25:00,21.6,2.5,29.62,East,90,2.5,3.8,43,0.00,,---,0.00,VWS V14.01,2014-03-04 16:25:00,
2014-03-04 11:26:00,21.7,2.7,29.62,East,90,3.6,3.6,43,0.00,,---,0.00,VWS V14.01,2014-03-04 16:26:00,
2014-03-04 11:27:00,21.7,2.7,29.62,ENE,68,1.3,3.6,43,0.00,,---,0.00,VWS V14.01,2014-03-04 16:27:00,
2014-03-04 11:28:00,21.9,2.9,29.62,East,90,3.6,3.6,43,0.00,,---,0.00,VWS V14.01,2014-03-04 16:28:00,
2014-03-04 11:29:00,21.9,2.9,29.62,ENE,68,2.0,3.6,43,0.00,,---,0.00,VWS V14.01,2014-03-04 16:29:00,
2014-03-04 11:30:00,22.1,3.0,29.62,ENE,68,3.8,5.4,43,0.00,,---,0.00,VWS V14.01,2014-03-04 16:30:00,
2014-03-04 11:31:00,22.1,3.0,29.62,ENE,68,3.6,3.8,43,0.00,,---,0.00,VWS V14.01,2014-03-04 16:31:00,
2014-03-04 11:32:00,25.3,4.9,29.62,ENE,68,2.0,3.8,41,0.00,,---,0.00,VWS V14.01,2014-03-04 16:32:00,
2014-03-04 11:33:00,23.5,4.3,29.62,East,90,2.2,2.2,43,0.00,,---,0.00,VWS V14.01,2014-03-04 16:33:00,
2014-03-04 11:34:00,24.1,4.8,29.62,East,90,3.4,3.4,43,0.00,,---,0.00,VWS V14.01,2014-03-04 16:34:00,
2014-03-04 11:35:00,24.1,4.8,29.62,NE,45,4.0,4.7,43,0.00,,---,0.00,VWS V14.01,2014-03-04 16:35:00,
2014-03-04 11:36:00,24.4,5.2,29.62,ESE,112,1.1,4.0,43,0.00,,---,0.00,VWS V14.01,2014-03-04 16:36:00,
2014-03-04 11:37:00,24.4,5.2,29.62,ENE,68,2.7,2.7,43,0.00,,---,0.00,VWS V14.01,2014-03-04 16:37:00,
2014-03-04 11:38:00,23.9,4.7,29.62,East,90,4.3,4.3,43,0.00,,---,0.00,VWS V14.01,2014-03-04 16:38:00,
2014-03-04 11:39:00,23.9,4.7,29.62,ENE,68,3.1,4.3,43,0.00,,---,0.00,VWS V14.01,2014-03-04 16:39:00,
2014-03-04 11:40:00,23.7,4.5,29.62,ESE,112,4.5,5.4,43,0.00,,---,0.00,VWS V14.01,2014-03-04 16:40:00,
2014-03-04 11:41:00,23.7,4.5,29.59,East,90,3.8,4.7,43,0.00,,---,0.00,VWS V14.01,2014-03-04 16:41:00,
2014-03-04 11:42:00,23.7,4.5,29.59,ENE,68,2.7,4.0,43,0.00,,---,0.00,VWS V14.01,2014-03-04 16:42:00,
2014-03-04 11:43:00,23.5,3.8,29.59,ENE,68,3.1,3.8,42,0.00,,---,0.00,VWS V14.01,2014-03-04 16:43:00,
2014-03-04 11:44:00,23.5,3.8,29.59,ESE,112,2.5,3.1,42,0.00,,---,0.00,VWS V14.01,2014-03-04 16:44:00,
2014-03-04 11:45:00,23.7,4.5,29.59,East,90,3.8,3.8,43,0.00,,---,0.00,VWS V14.01,2014-03-04 16:45:00,
2014-03-04 11:46:00,23.7,4.0,29.59,East,90,1.6,3.8,42,0.00,,---,0.00,VWS V14.01,2014-03-04 16:46:00,
2014-03-04 11:47:00,23.7,4.0,29.59,NNE,22,0.0,1.6,42,0.00,,---,0.00,VWS V14.01,2014-03-04 16:47:00,
2014-03-04 11:48:00,23.7,4.0,29.59,ENE,68,2.5,3.1,42,0.00,,---,0.00,VWS V14.01,2014-03-04 16:48:00,
2014-03-04 11:49:00,23.7,4.0,29.59,ENE,68,2.5,3.1,42,0.00,,---,0.00,VWS V14.01,2014-03-04 16:49:00,
2014-03-04 11:50:00,23.7,4.0,29.59,East,90,2.7,3.6,42,0.00,,---,0.00,VWS V14.01,2014-03-04 16:50:00,
2014-03-04 11:51:00,23.7,4.0,29.59,ENE,68,3.4,3.4,42,0.00,,---,0.00,VWS V14.01,2014-03-04 16:51:00,
2014-03-04 11:52:00,23.9,4.2,29.59,ENE,68,2.5,3.4,42,0.00,,---,0.00,VWS V14.01,2014-03-04 16:52:00,
2014-03-04 11:53:00,24.1,4.3,29.59,NE,45,2.0,2.5,42,0.00,,---,0.00,VWS V14.01,2014-03-04 16:53:00,
2014-03-04 11:54:00,24.1,4.3,29.59,WNW,292,2.2,2.2,42,0.00,,---,0.00,VWS V14.01,2014-03-04 16:54:00,
2014-03-04 11:55:00,24.1,4.3,29.59,South,180,1.6,2.7,42,0.00,,---,0.00,VWS V14.01,2014-03-04 16:55:00,
2014-03-04 11:56:00,24.1,4.3,29.62,SE,135,3.1,3.1,42,0.00,,---,0.00,VWS V14.01,2014-03-04 16:56:00,
2014-03-04 11:57:00,24.1,4.3,29.62,ENE,68,2.5,3.1,42,0.00,,---,0.00,VWS V14.01,2014-03-04 16:57:00,
2014-03-04 11:58:00,24.1,4.3,29.62,East,90,2.7,3.4,42,0.00,,---,0.00,VWS V14.01,2014-03-04 16:58:00,
2014-03-04 11:59:00,24.1,4.3,29.62,East,90,2.7,3.4,42,0.00,,---,0.00,VWS V14.01,2014-03-04 16:59:00,
2014-03-04 12:00:00,24.1,4.3,29.62,East,90,2.7,2.7,42,0.00,,---,0.00,VWS V14.01,2014-03-04 17:00:00,
2014-03-04 12:01:00,24.3,4.5,29.62,East,90,1.1,2.7,42,0.00,,---,0.00,VWS V14.01,2014-03-04 17:01:00,
2014-03-04 12:02:00,24.3,4.5,29.62,East,90,2.0,3.6,42,0.00,,---,0.00,VWS V14.01,2014-03-04 17:02:00,
2014-03-04 12:03:00,24.3,4.5,29.62,East,90,2.5,2.5,42,0.00,,---,0.00,VWS V14.01,2014-03-04 17:03:00,
2014-03-04 12:04:00,24.4,4.7,29.62,East,90,3.4,3.4,42,0.00,,---,0.00,VWS V14.01,2014-03-04 17:04:00,
2014-03-04 12:05:00,24.4,4.7,29.62,ESE,112,2.0,3.4,42,0.00,,---,0.00,VWS V14.01,2014-03-04 17:05:00,
2014-03-04 12:06:00,24.4,4.7,29.62,East,90,0.0,2.0,42,0.00,,---,0.00,VWS V14.01,2014-03-04 17:06:00,
2014-03-04 12:07:00,24.6,4.8,29.62,East,90,0.0,0.0,42,0.00,,---,0.00,VWS V14.01,2014-03-04 17:07:00,
2014-03-04 12:08:00,24.4,4.7,29.62,SE,135,2.2,2.2,42,0.00,,---,0.00,VWS V14.01,2014-03-04 17:08:00,
2014-03-04 12:09:00,24.4,4.7,29.62,SE,135,0.9,2.7,42,0.00,,---,0.00,VWS V14.01,2014-03-04 17:09:00,
2014-03-04 12:10:00,24.4,4.7,29.62,NE,45,0.0,0.0,42,0.00,,---,0.00,VWS V14.01,2014-03-04 17:10:00,
2014-03-04 12:11:00,24.6,4.8,29.62,SSE,158,0.0,0.0,42,0.00,,---,0.00,VWS V14.01,2014-03-04 17:11:00,
2014-03-04 12:12:00,24.6,4.8,29.62,West,270,0.9,2.0,42,0.00,,---,0.00,VWS V14.01,2014-03-04 17:12:00,
2014-03-04 12:13:00,24.6,4.8,29.62,NE,45,1.6,1.6,42,0.00,,---,0.00,VWS V14.01,2014-03-04 17:13:00,
2014-03-04 12:14:00,24.6,4.8,29.62,NE,45,2.9,2.9,42,0.00,,---,0.00,VWS V14.01,2014-03-04 17:14:00,
2014-03-04 12:15:00,24.6,4.8,29.62,East,90,0.0,2.9,42,0.00,,---,0.00,VWS V14.01,2014-03-04 17:15:00,
2014-03-04 12:16:00,24.6,4.8,29.62,West,270,1.6,1.6,42,0.00,,---,0.00,VWS V14.01,2014-03-04 17:16:00,
2014-03-04 12:17:00,24.6,4.8,29.62,NW,315,2.0,2.7,42,0.00,,---,0.00,VWS V14.01,2014-03-04 17:17:00,
2014-03-04 12:18:00,24.8,5.0,29.62,WNW,292,0.0,2.0,42,0.00,,---,0.00,VWS V14.01,2014-03-04 17:18:00,
2014-03-04 12:19:00,24.8,5.0,29.62,NNW,338,2.5,2.5,42,0.00,,---,0.00,VWS V14.01,2014-03-04 17:19:00,
2014-03-04 12:20:00,24.8,5.0,29.62,WSW,248,1.3,2.5,42,0.00,,---,0.00,VWS V14.01,2014-03-04 17:20:00,
2014-03-04 12:21:00,25.0,5.1,29.62,SE,135,1.3,2.0,42,0.00,,---,0.00,VWS V14.01,2014-03-04 17:21:00,
2014-03-04 12:22:00,25.0,5.1,29.62,South,180,2.9,2.9,42,0.00,,---,0.00,VWS V14.01,2014-03-04 17:22:00,
2014-03-04 12:23:00,25.0,5.1,29.62,SSE,158,0.0,2.9,42,0.00,,---,0.00,VWS V14.01,2014-03-04 17:23:00,
2014-03-04 12:24:00,25.0,4.6,29.62,ESE,112,0.0,1.1,41,0.00,,---,0.00,VWS V14.01,2014-03-04 17:24:00,
2014-03-04 12:25:00,25.0,4.6,29.62,SE,135,0.0,1.1,41,0.00,,---,0.00,VWS V14.01,2014-03-04 17:25:00,
2014-03-04 12:26:00,25.0,4.6,29.62,SE,135,0.0,0.9,41,0.00,,---,0.00,VWS V14.01,2014-03-04 17:26:00,
2014-03-04 12:27:00,25.0,4.6,29.62,SE,135,1.3,1.3,41,0.00,,---,0.00,VWS V14.01,2014-03-04 17:27:00,
2014-03-04 12:28:00,25.2,4.8,29.62,East,90,4.0,4.0,41,0.00,,---,0.00,VWS V14.01,2014-03-04 17:28:00,
2014-03-04 12:29:00,25.2,4.8,29.62,ESE,112,2.9,4.0,41,0.00,,---,0.00,VWS V14.01,2014-03-04 17:29:00,
2014-03-04 12:30:00,25.2,4.2,29.62,ESE,112,1.1,2.9,40,0.00,,---,0.00,VWS V14.01,2014-03-04 17:30:00,
2014-03-04 12:31:00,25.3,4.9,29.62,ENE,68,3.8,3.8,41,0.00,,---,0.00,VWS V14.01,2014-03-04 17:31:00,
2014-03-04 12:32:00,25.3,4.9,29.62,ENE,68,2.0,3.8,41,0.00,,---,0.00,VWS V14.01,2014-03-04 17:32:00,
2014-03-04 12:33:00,25.5,5.1,29.62,ENE,68,0.0,2.0,41,0.00,,---,0.00,VWS V14.01,2014-03-04 17:33:00,
2014-03-04 12:34:00,25.5,5.1,29.62,East,90,0.0,0.0,41,0.00,,---,0.00,VWS V14.01,2014-03-04 17:34:00,
2014-03-04 12:35:00,25.7,5.3,29.62,ESE,112,0.0,0.0,41,0.00,,---,0.00,VWS V14.01,2014-03-04 17:35:00,
2014-03-04 12:36:00,25.7,5.3,29.62,West,270,1.1,1.3,41,0.00,,---,0.00,VWS V14.01,2014-03-04 17:36:00,
2014-03-04 12:37:00,25.7,4.7,29.62,NW,315,0.9,3.1,40,0.00,,---,0.00,VWS V14.01,2014-03-04 17:37:00,
2014-03-04 12:38:00,25.7,4.7,29.62,WNW,292,0.0,0.9,40,0.00,,---,0.00,VWS V14.01,2014-03-04 17:38:00,
2014-03-04 12:39:00,25.7,4.7,29.62,ESE,112,2.0,2.0,40,0.00,,---,0.00,VWS V14.01,2014-03-04 17:39:00,
2014-03-04 12:40:00,25.7,5.3,29.62,ESE,112,2.9,4.0,41,0.00,,---,0.00,VWS V14.01,2014-03-04 17:40:00,
2014-03-04 12:41:00,25.7,5.3,29.62,East,90,0.0,2.9,41,0.00,,---,0.00,VWS V14.01,2014-03-04 17:41:00,
2014-03-04 12:42:00,25.7,4.7,29.62,ENE,68,3.8,4.5,40,0.00,,---,0.00,VWS V14.01,2014-03-04 17:42:00,
2014-03-04 12:43:00,25.7,5.3,29.62,ENE,68,0.0,3.8,41,0.00,,---,0.00,VWS V14.01,2014-03-04 17:43:00,
2014-03-04 12:44:00,25.9,5.4,29.62,ENE,68,2.5,2.5,41,0.00,,---,0.00,VWS V14.01,2014-03-04 17:44:00,
2014-03-04 12:45:00,25.9,5.4,29.62,ENE,68,2.5,2.7,41,0.00,,---,0.00,VWS V14.01,2014-03-04 17:45:00,
2014-03-04 12:46:00,26.1,5.6,29.62,ENE,68,2.2,2.5,41,0.00,,---,0.00,VWS V14.01,2014-03-04 17:46:00,
2014-03-04 12:47:00,26.1,5.6,29.62,East,90,1.3,3.8,41,0.00,,---,0.00,VWS V14.01,2014-03-04 17:47:00,
2014-03-04 12:48:00,26.1,5.6,29.62,ESE,112,0.0,2.9,41,0.00,,---,0.00,VWS V14.01,2014-03-04 17:48:00,
2014-03-04 12:49:00,26.1,5.6,29.62,ESE,112,0.0,0.0,41,0.00,,---,0.00,VWS V14.01,2014-03-04 17:49:00,
2014-03-04 12:50:00,26.6,6.1,29.62,ESE,112,1.3,1.3,41,0.00,,---,0.00,VWS V14.01,2014-03-04 17:50:00,
2014-03-04 12:51:00,26.6,6.1,29.62,ESE,112,2.7,4.0,41,0.00,,---,0.00,VWS V14.01,2014-03-04 17:51:00,
2014-03-04 12:52:00,26.6,6.1,29.62,ESE,112,2.7,2.7,41,0.00,,---,0.00,VWS V14.01,2014-03-04 17:52:00,
2014-03-04 12:53:00,26.8,5.7,29.62,South,180,0.0,2.7,40,0.00,,---,0.00,VWS V14.01,2014-03-04 17:53:00,
2014-03-04 12:54:00,26.8,5.7,29.62,ESE,112,3.1,3.1,40,0.00,,---,0.00,VWS V14.01,2014-03-04 17:54:00,
2014-03-04 12:55:00,26.8,5.7,29.62,East,90,3.1,3.4,40,0.00,,---,0.00,VWS V14.01,2014-03-04 17:55:00,
2014-03-04 12:56:00,27.0,5.9,29.59,ESE,112,4.7,4.7,40,0.00,,---,0.00,VWS V14.01,2014-03-04 17:56:00,
2014-03-04 12:57:00,27.0,5.9,29.59,East,90,0.9,4.7,40,0.00,,---,0.00,VWS V14.01,2014-03-04 17:57:00,
2014-03-04 12:58:00,26.8,5.2,29.59,NE,45,0.0,0.9,39,0.00,,---,0.00,VWS V14.01,2014-03-04 17:58:00,
2014-03-04 12:59:00,26.8,5.2,29.59,NW,315,0.9,0.9,39,0.00,,---,0.00,VWS V14.01,2014-03-04 17:59:00,
2014-03-04 13:00:00,26.8,5.2,29.59,WNW,292,0.0,1.6,39,0.00,,---,0.00,VWS V14.01,2014-03-04 18:00:00,
2014-03-04 13:01:00,27.0,5.3,29.59,NW,315,1.3,1.3,39,0.00,,---,0.00,VWS V14.01,2014-03-04 18:01:00,
2014-03-04 13:02:00,27.0,5.3,29.59,SE,135,2.7,2.7,39,0.00,,---,0.00,VWS V14.01,2014-03-04 18:02:00,
2014-03-04 13:03:00,27.0,5.3,29.59,SE,135,1.6,2.7,39,0.00,,---,0.00,VWS V14.01,2014-03-04 18:03:00,
2014-03-04 13:04:00,27.1,5.5,29.59,East,90,2.7,2.7,39,0.00,,---,0.00,VWS V14.01,2014-03-04 18:04:00,
2014-03-04 13:05:00,27.9,6.7,29.59,South,180,0.0,2.7,40,0.00,,---,0.00,VWS V14.01,2014-03-04 18:05:00,
2014-03-04 13:06:00,28.4,7.7,29.59,South,180,0.0,0.0,41,0.00,,---,0.00,VWS V14.01,2014-03-04 18:06:00,
2014-03-04 13:07:00,28.8,7.5,29.59,SE,135,2.9,2.9,40,0.00,,---,0.00,VWS V14.01,2014-03-04 18:07:00,
2014-03-04 13:08:00,29.8,9.0,29.59,ESE,112,3.6,3.8,41,0.00,,---,0.00,VWS V14.01,2014-03-04 18:08:00,
2014-03-04 13:09:00,29.8,9.0,29.59,East,90,1.3,3.6,41,0.00,,---,0.00,VWS V14.01,2014-03-04 18:09:00,
2014-03-04 13:10:00,30.2,9.4,29.59,NW,315,0.0,1.3,41,0.00,,---,0.00,VWS V14.01,2014-03-04 18:10:00,
2014-03-04 13:11:00,30.0,8.6,29.59,WNW,292,0.0,0.0,40,0.00,,---,0.00,VWS V14.01,2014-03-04 18:11:00,
2014-03-04 13:12:00,30.4,5.4,29.56,East,90,0.9,0.9,34,0.00,,---,0.00,VWS V14.01,2014-03-04 18:12:00,
2014-03-04 13:13:00,30.2,8.8,29.59,SE,135,1.1,1.3,40,0.00,,---,0.00,VWS V14.01,2014-03-04 18:13:00,
2014-03-04 13:14:00,30.2,8.8,29.59,SSE,158,2.9,3.4,40,0.00,,---,0.00,VWS V14.01,2014-03-04 18:14:00,
2014-03-04 13:15:00,30.2,8.8,29.59,SSE,158,0.9,2.9,40,0.00,,---,0.00,VWS V14.01,2014-03-04 18:15:00,
2014-03-04 13:16:00,30.2,8.8,29.59,NW,315,2.2,2.2,40,0.00,,---,0.00,VWS V14.01,2014-03-04 18:16:00,
2014-03-04 13:17:00,30.6,9.1,29.59,NW,315,1.1,2.2,40,0.00,,---,0.00,VWS V14.01,2014-03-04 18:17:00,
2014-03-04 13:18:00,30.6,9.1,29.59,SE,135,1.1,2.2,40,0.00,,---,0.00,VWS V14.01,2014-03-04 18:18:00,
2014-03-04 13:19:00,30.7,9.3,29.59,SE,135,2.5,3.6,40,0.00,,---,0.00,VWS V14.01,2014-03-04 18:19:00,
2014-03-04 13:20:00,30.9,9.4,29.59,WNW,292,1.1,2.0,40,0.00,,---,0.00,VWS V14.01,2014-03-04 18:20:00,
2014-03-04 13:21:00,30.7,8.7,29.59,NNW,338,0.0,1.6,39,0.00,,---,0.00,VWS V14.01,2014-03-04 18:21:00,
2014-03-04 13:22:00,30.9,8.9,29.59,NNW,338,0.0,0.0,39,0.00,,---,0.00,VWS V14.01,2014-03-04 18:22:00,
2014-03-04 13:23:00,30.2,7.7,29.59,NNW,338,0.0,0.0,38,0.00,,---,0.00,VWS V14.01,2014-03-04 18:23:00,
2014-03-04 13:24:00,30.2,7.7,29.59,NNW,338,0.0,0.0,38,0.00,,---,0.00,VWS V14.01,2014-03-04 18:24:00,
2014-03-04 13:25:00,30.0,6.9,29.59,NNW,338,0.0,0.0,37,0.00,,---,0.00,VWS V14.01,2014-03-04 18:25:00,
2014-03-04 13:26:00,29.7,6.6,29.59,West,270,0.0,0.0,37,0.00,,---,0.00,VWS V14.01,2014-03-04 18:26:00,
2014-03-04 13:27:00,29.5,6.4,29.59,West,270,0.0,0.0,37,0.00,,---,0.00,VWS V14.01,2014-03-04 18:27:00,
2014-03-04 13:28:00,29.5,6.4,29.59,West,270,0.0,0.0,37,0.00,,---,0.00,VWS V14.01,2014-03-04 18:28:00,
2014-03-04 13:29:00,29.5,6.4,29.59,West,270,0.0,0.0,37,0.00,,---,0.00,VWS V14.01,2014-03-04 18:29:00,
2014-03-04 13:30:00,29.5,6.4,29.59,West,270,0.0,0.0,37,0.00,,---,0.00,VWS V14.01,2014-03-04 18:30:00,
2014-03-04 13:31:00,29.3,6.3,29.59,West,270,0.0,0.0,37,0.00,,---,0.00,VWS V14.01,2014-03-04 18:31:00,
2014-03-04 13:32:00,29.1,5.5,29.59,West,270,0.0,0.0,36,0.00,,---,0.00,VWS V14.01,2014-03-04 18:32:00,
2014-03-04 13:33:00,28.9,5.3,29.59,South,180,2.2,2.2,36,0.00,,---,0.00,VWS V14.01,2014-03-04 18:33:00,
2014-03-04 13:34:00,28.9,5.3,29.59,South,180,2.2,2.2,36,0.00,,---,0.00,VWS V14.01,2014-03-04 18:34:00,
2014-03-04 13:35:00,28.9,4.7,29.59,South,180,2.2,2.2,35,0.00,,---,0.00,VWS V14.01,2014-03-04 18:35:00,
2014-03-04 13:36:00,28.6,3.8,29.59,South,180,2.2,2.2,34,0.00,,---,0.00,VWS V14.01,2014-03-04 18:36:00,
2014-03-04 13:37:00,28.6,4.4,29.59,South,180,2.2,2.2,35,0.00,,---,0.00,VWS V14.01,2014-03-04 18:37:00,
2014-03-04 13:38:00,28.6,3.8,29.59,South,180,2.2,2.2,34,0.00,,---,0.00,VWS V14.01,2014-03-04 18:38:00,
2014-03-04 13:39:00,28.4,4.2,29.59,South,180,2.2,2.2,35,0.00,,---,0.00,VWS V14.01,2014-03-04 18:39:00,
2014-03-04 13:40:00,28.6,4.4,29.59,NE,45,1.6,2.2,35,0.00,,---,0.00,VWS V14.01,2014-03-04 18:40:00,
2014-03-04 13:41:00,28.6,4.4,29.56,West,270,0.0,2.7,35,0.00,,---,0.00,VWS V14.01,2014-03-04 18:41:00,
2014-03-04 13:42:00,28.6,3.8,29.56,WNW,292,1.1,2.0,34,0.00,,---,0.00,VWS V14.01,2014-03-04 18:42:00,
2014-03-04 13:43:00,28.6,3.8,29.56,West,270,0.0,1.1,34,0.00,,---,0.00,VWS V14.01,2014-03-04 18:43:00,
2014-03-04 13:44:00,28.6,3.8,29.56,West,270,0.0,1.1,34,0.00,,---,0.00,VWS V14.01,2014-03-04 18:44:00,
2014-03-04 13:45:00,28.6,4.4,29.56,NE,45,2.9,4.3,35,0.00,,---,0.00,VWS V14.01,2014-03-04 18:45:00,
2014-03-04 13:46:00,28.8,4.6,29.56,ENE,68,1.3,2.9,35,0.00,,---,0.00,VWS V14.01,2014-03-04 18:46:00,
2014-03-04 13:47:00,28.9,4.7,29.56,East,90,3.8,5.6,35,0.00,,---,0.00,VWS V14.01,2014-03-04 18:47:00,
2014-03-04 13:48:00,29.5,4.6,29.56,ESE,112,0.9,2.2,34,0.00,,---,0.00,VWS V14.01,2014-03-04 18:48:00,
2014-03-04 13:49:00,29.1,5.5,29.56,ENE,68,4.9,4.9,36,0.00,,---,0.00,VWS V14.01,2014-03-04 18:49:00,
2014-03-04 13:50:00,29.1,5.5,29.56,ENE,68,2.7,4.9,36,0.00,,---,0.00,VWS V14.01,2014-03-04 18:50:00,
2014-03-04 13:51:00,29.5,5.8,29.56,ENE,68,3.6,3.6,36,0.00,,---,0.00,VWS V14.01,2014-03-04 18:51:00,
2014-03-04 13:52:00,29.5,5.8,29.56,SE,135,2.5,3.6,36,0.00,,---,0.00,VWS V14.01,2014-03-04 18:52:00,
2014-03-04 13:53:00,29.5,6.4,29.56,SE,135,0.0,3.6,37,0.00,,---,0.00,VWS V14.01,2014-03-04 18:53:00,
2014-03-04 13:54:00,29.5,6.4,29.56,ESE,112,3.6,3.6,37,0.00,,---,0.00,VWS V14.01,2014-03-04 18:54:00,
2014-03-04 13:55:00,29.5,5.2,29.56,ENE,68,3.8,4.7,35,0.00,,---,0.00,VWS V14.01,2014-03-04 18:55:00,
2014-03-04 13:56:00,29.5,4.6,29.56,ESE,112,4.3,4.3,34,0.00,,---,0.00,VWS V14.01,2014-03-04 18:56:00,
2014-03-04 13:57:00,29.5,4.6,29.56,East,90,3.4,4.3,34,0.00,,---,0.00,VWS V14.01,2014-03-04 18:57:00,
2014-03-04 13:58:00,29.7,5.4,29.56,East,90,3.8,3.8,35,0.00,,---,0.00,VWS V14.01,2014-03-04 18:58:00,
2014-03-04 13:59:00,29.7,5.4,29.56,East,90,3.1,3.8,35,0.00,,---,0.00,VWS V14.01,2014-03-04 18:59:00,
2014-03-04 14:00:00,29.7,5.4,29.56,SW,225,0.9,3.4,35,0.00,,---,0.00,VWS V14.01,2014-03-04 19:00:00,
2014-03-04 14:01:00,29.8,5.5,29.56,NW,315,0.0,0.9,35,0.00,,---,0.00,VWS V14.01,2014-03-04 19:01:00,
2014-03-04 14:02:00,29.8,4.9,29.56,SW,225,2.9,2.9,34,0.00,,---,0.00,VWS V14.01,2014-03-04 19:02:00,
2014-03-04 14:03:00,29.8,4.9,29.56,SSW,202,0.0,2.9,34,0.00,,---,0.00,VWS V14.01,2014-03-04 19:03:00,
2014-03-04 14:04:00,30.2,5.2,29.56,SSE,158,0.0,0.0,34,0.00,,---,0.00,VWS V14.01,2014-03-04 19:04:00,
2014-03-04 14:05:00,30.0,5.7,29.56,East,90,4.0,4.0,35,0.00,,---,0.00,VWS V14.01,2014-03-04 19:05:00,
2014-03-04 14:06:00,30.0,5.7,29.56,East,90,3.4,4.0,35,0.00,,---,0.00,VWS V14.01,2014-03-04 19:06:00,
2014-03-04 14:07:00,30.2,5.9,29.56,ENE,68,3.1,3.4,35,0.00,,---,0.00,VWS V14.01,2014-03-04 19:07:00,
2014-03-04 14:08:00,30.2,5.9,29.56,ENE,68,3.1,3.1,35,0.00,,---,0.00,VWS V14.01,2014-03-04 19:08:00,
2014-03-04 14:09:00,30.2,5.9,29.56,ENE,68,2.5,3.1,35,0.00,,---,0.00,VWS V14.01,2014-03-04 19:09:00,
2014-03-04 14:10:00,30.4,5.4,29.56,ENE,68,3.1,3.1,34,0.00,,---,0.00,VWS V14.01,2014-03-04 19:10:00,
2014-03-04 14:11:00,30.4,5.4,29.56,East,90,0.9,3.1,34,0.00,,---,0.00,VWS V14.01,2014-03-04 19:11:00,
2014-03-04 14:12:00,30.4,5.4,29.56,East,90,0.9,0.9,34,0.00,,---,0.00,VWS V14.01,2014-03-04 19:12:00,
2014-03-04 14:13:00,30.2,5.2,29.56,SSW,202,0.0,1.6,34,0.00,,---,0.00,VWS V14.01,2014-03-04 19:13:00,
2014-03-04 14:14:00,30.2,5.2,29.56,West,270,0.9,0.9,34,0.00,,---,0.00,VWS V14.01,2014-03-04 19:14:00,
2014-03-04 14:15:00,30.2,5.2,29.56,ENE,68,1.6,1.6,34,0.00,,---,0.00,VWS V14.01,2014-03-04 19:15:00,
2014-03-04 14:16:00,30.2,5.2,29.56,East,90,2.5,2.5,34,0.00,,---,0.00,VWS V14.01,2014-03-04 19:16:00,
2014-03-04 14:17:00,30.0,5.1,29.56,ENE,68,2.5,2.5,34,0.00,,---,0.00,VWS V14.01,2014-03-04 19:17:00,
2014-03-04 14:18:00,30.0,5.1,29.56,ESE,112,2.7,2.7,34,0.00,,---,0.00,VWS V14.01,2014-03-04 19:18:00,
2014-03-04 14:19:00,30.2,5.9,29.56,East,90,2.7,2.9,35,0.00,,---,0.00,VWS V14.01,2014-03-04 19:19:00,
2014-03-04 14:20:00,30.2,5.9,29.56,East,90,3.4,3.4,35,0.00,,---,0.00,VWS V14.01,2014-03-04 19:20:00,
2014-03-04 14:21:00,30.2,5.9,29.56,East,90,4.0,4.0,35,0.00,,---,0.00,VWS V14.01,2014-03-04 19:21:00,
2014-03-04 14:22:00,30.2,5.9,29.56,ENE,68,3.1,4.3,35,0.00,,---,0.00,VWS V14.01,2014-03-04 19:22:00,
2014-03-04 14:23:00,30.2,5.9,29.56,NE,45,3.8,3.8,35,0.00,,---,0.00,VWS V14.01,2014-03-04 19:23:00,
2014-03-04 14:24:00,30.2,5.9,29.56,East,90,1.6,3.8,35,0.00,,---,0.00,VWS V14.01,2014-03-04 19:24:00,
2014-03-04 14:25:00,30.2,5.9,29.56,ENE,68,3.4,3.6,35,0.00,,---,0.00,VWS V14.01,2014-03-04 19:25:00,
2014-03-04 14:26:00,30.4,5.4,29.56,ESE,112,0.0,3.4,34,0.00,,---,0.00,VWS V14.01,2014-03-04 19:26:00,
2014-03-04 14:27:00,30.4,5.4,29.56,East,90,0.0,1.3,34,0.00,,---,0.00,VWS V14.01,2014-03-04 19:27:00,
2014-03-04 14:28:00,30.4,5.4,29.56,East,90,0.0,0.0,34,0.00,,---,0.00,VWS V14.01,2014-03-04 19:28:00,
2014-03-04 14:29:00,30.2,5.2,29.56,East,90,0.9,0.9,34,0.00,,---,0.00,VWS V14.01,2014-03-04 19:29:00,
2014-03-04 14:30:00,30.2,5.9,29.56,NW,315,0.0,0.0,35,0.00,,---,0.00,VWS V14.01,2014-03-04 19:30:00,
2014-03-04 14:31:00,30.2,5.9,29.56,NW,315,1.1,1.1,35,0.00,,---,0.00,VWS V14.01,2014-03-04 19:31:00,
2014-03-04 14:32:00,30.0,5.1,29.56,SSE,158,0.0,2.0,34,0.00,,---,0.00,VWS V14.01,2014-03-04 19:32:00,
2014-03-04 14:33:00,30.0,5.1,29.56,NE,45,2.5,2.5,34,0.00,,---,0.00,VWS V14.01,2014-03-04 19:33:00,
2014-03-04 14:34:00,30.0,5.1,29.56,East,90,0.0,2.5,34,0.00,,---,0.00,VWS V14.01,2014-03-04 19:34:00,
2014-03-04 14:35:00,30.0,5.1,29.56,WNW,292,1.1,2.5,34,0.00,,---,0.00,VWS V14.01,2014-03-04 19:35:00,
2014-03-04 14:36:00,29.8,4.9,29.56,West,270,2.0,3.4,34,0.00,,---,0.00,VWS V14.01,2014-03-04 19:36:00,
2014-03-04 14:37:00,29.8,4.9,29.56,WNW,292,2.7,2.7,34,0.00,,---,0.00,VWS V14.01,2014-03-04 19:37:00,
2014-03-04 14:38:00,29.8,4.9,29.56,West,270,2.2,2.7,34,0.00,,---,0.00,VWS V14.01,2014-03-04 19:38:00,
2014-03-04 14:39:00,29.5,3.9,29.56,South,180,0.0,2.2,33,0.00,,---,0.00,VWS V14.01,2014-03-04 19:39:00,
2014-03-04 14:40:00,29.5,3.9,29.56,ENE,68,0.0,0.0,33,0.00,,---,0.00,VWS V14.01,2014-03-04 19:40:00,
2014-03-04 14:41:00,29.7,4.1,29.56,ENE,68,0.0,0.0,33,0.00,,---,0.00,VWS V14.01,2014-03-04 19:41:00,
2014-03-04 14:42:00,29.5,4.6,29.56,SE,135,0.0,0.0,34,0.00,,---,0.00,VWS V14.01,2014-03-04 19:42:00,
2014-03-04 14:43:00,29.5,4.6,29.56,East,90,0.0,0.0,34,0.00,,---,0.00,VWS V14.01,2014-03-04 19:43:00,
2014-03-04 14:44:00,29.7,4.7,29.56,SE,135,0.0,0.0,34,0.00,,---,0.00,VWS V14.01,2014-03-04 19:44:00,
2014-03-04 14:45:00,29.7,4.7,29.56,ENE,68,2.7,2.7,34,0.00,,---,0.00,VWS V14.01,2014-03-04 19:45:00,
2014-03-04 14:46:00,29.5,4.6,29.56,East,90,1.6,2.7,34,0.00,,---,0.00,VWS V14.01,2014-03-04 19:46:00,
2014-03-04 14:47:00,29.5,4.6,29.56,East,90,1.3,2.9,34,0.00,,---,0.00,VWS V14.01,2014-03-04 19:47:00,
2014-03-04 14:48:00,29.5,4.6,29.56,ESE,112,0.9,2.2,34,0.00,,---,0.00,VWS V14.01,2014-03-04 19:48:00,
2014-03-04 14:49:00,29.5,4.6,29.56,WSW,248,0.0,0.9,34,0.00,,---,0.00,VWS V14.01,2014-03-04 19:49:00,
2014-03-04 14:50:00,29.7,4.1,29.56,NW,315,2.9,2.9,33,0.00,,---,0.00,VWS V14.01,2014-03-04 19:50:00,
2014-03-04 14:51:00,29.7,4.1,29.56,NW,315,0.0,2.9,33,0.00,,---,0.00,VWS V14.01,2014-03-04 19:51:00,
2014-03-04 14:52:00,29.7,4.1,29.56,East,90,0.0,0.0,33,0.00,,---,0.00,VWS V14.01,2014-03-04 19:52:00,
2014-03-04 14:53:00,29.7,4.1,29.56,SSE,158,1.6,1.6,33,0.00,,---,0.00,VWS V14.01,2014-03-04 19:53:00,
2014-03-04 14:54:00,30.0,4.4,29.56,ESE,112,2.5,2.5,33,0.00,,---,0.00,VWS V14.01,2014-03-04 19:54:00,
2014-03-04 14:55:00,30.0,4.4,29.56,South,180,0.0,2.5,33,0.00,,---,0.00,VWS V14.01,2014-03-04 19:55:00,
2014-03-04 14:56:00,29.8,4.2,29.56,WSW,248,0.0,1.6,33,0.00,,---,0.00,VWS V14.01,2014-03-04 19:56:00,
2014-03-04 14:57:00,29.8,4.2,29.56,West,270,2.5,2.5,33,0.00,,---,0.00,VWS V14.01,2014-03-04 19:57:00,
2014-03-04 14:58:00,29.8,4.2,29.56,West,270,1.3,2.5,33,0.00,,---,0.00,VWS V14.01,2014-03-04 19:58:00,
2014-03-04 14:59:00,29.8,3.6,29.56,WNW,292,0.0,1.3,32,0.00,,---,0.00,VWS V14.01,2014-03-04 19:59:00,
2014-03-04 15:00:00,29.8,3.6,29.56,East,90,2.0,2.0,32,0.00,,---,0.00,VWS V14.01,2014-03-04 20:00:00,
2014-03-04 15:01:00,29.7,3.4,29.56,ESE,112,2.2,2.7,32,0.00,,---,0.00,VWS V14.01,2014-03-04 20:01:00,
2014-03-04 15:02:00,29.7,4.1,29.56,East,90,0.9,2.2,33,0.00,,---,0.00,VWS V14.01,2014-03-04 20:02:00,
2014-03-04 15:03:00,29.7,4.1,29.56,East,90,0.0,0.9,33,0.00,,---,0.00,VWS V14.01,2014-03-04 20:03:00,
2014-03-04 15:04:00,29.7,4.1,29.56,North,0,0.0,0.0,33,0.00,,---,0.00,VWS V14.01,2014-03-04 20:04:00,
2014-03-04 15:05:00,29.5,3.9,29.56,ENE,68,2.0,2.5,33,0.00,,---,0.00,VWS V14.01,2014-03-04 20:05:00,
2014-03-04 15:06:00,29.5,4.6,29.56,ESE,112,0.0,2.0,34,0.00,,---,0.00,VWS V14.01,2014-03-04 20:06:00,
2014-03-04 15:07:00,29.5,4.6,29.56,ESE,112,0.0,0.0,34,0.00,,---,0.00,VWS V14.01,2014-03-04 20:07:00,
2014-03-04 15:08:00,29.5,4.6,29.56,SE,135,0.0,1.1,34,0.00,,---,0.00,VWS V14.01,2014-03-04 20:08:00,
2014-03-04 15:09:00,29.5,3.9,29.56,NNW,338,0.0,0.0,33,0.00,,---,0.00,VWS V14.01,2014-03-04 20:09:00,
2014-03-04 15:10:00,31.3,6.8,29.56,SW,225,1.1,3.1,35,0.00,,---,0.00,VWS V14.01,2014-03-04 20:10:00,
2014-03-04 15:11:00,29.5,3.9,29.56,SE,135,0.0,0.0,33,0.00,,---,0.00,VWS V14.01,2014-03-04 20:11:00,
2014-03-04 15:12:00,29.5,4.6,29.56,SE,135,2.2,2.5,34,0.00,,---,0.00,VWS V14.01,2014-03-04 20:12:00,
2014-03-04 15:13:00,29.7,5.4,29.56,ESE,112,0.0,2.2,35,0.00,,---,0.00,VWS V14.01,2014-03-04 20:13:00,
2014-03-04 15:14:00,29.8,4.9,29.56,ESE,112,0.0,0.0,34,0.00,,---,0.00,VWS V14.01,2014-03-04 20:14:00,
2014-03-04 15:15:00,29.8,4.9,29.56,East,90,0.0,0.0,34,0.00,,---,0.00,VWS V14.01,2014-03-04 20:15:00,
2014-03-04 15:16:00,30.0,5.7,29.56,WSW,248,0.0,0.0,35,0.00,,---,0.00,VWS V14.01,2014-03-04 20:16:00,
2014-03-04 15:17:00,30.0,5.1,29.56,WNW,292,3.8,3.8,34,0.00,,---,0.00,VWS V14.01,2014-03-04 20:17:00,
2014-03-04 15:18:00,30.0,5.1,29.56,WNW,292,2.2,3.8,34,0.00,,---,0.00,VWS V14.01,2014-03-04 20:18:00,
2014-03-04 15:19:00,30.0,5.1,29.56,SSE,158,0.0,2.2,34,0.00,,---,0.00,VWS V14.01,2014-03-04 20:19:00,
2014-03-04 15:20:00,30.0,5.1,29.56,East,90,1.6,1.6,34,0.00,,---,0.00,VWS V14.01,2014-03-04 20:20:00,
2014-03-04 15:21:00,30.0,4.4,29.56,North,0,0.0,1.6,33,0.00,,---,0.00,VWS V14.01,2014-03-04 20:21:00,
2014-03-04 15:22:00,30.2,5.2,29.56,SE,135,2.2,2.2,34,0.00,,---,0.00,VWS V14.01,2014-03-04 20:22:00,
2014-03-04 15:23:00,30.2,5.9,29.56,East,90,1.6,3.6,35,0.00,,---,0.00,VWS V14.01,2014-03-04 20:23:00,
2014-03-04 15:24:00,30.2,5.9,29.56,East,90,2.5,2.5,35,0.00,,---,0.00,VWS V14.01,2014-03-04 20:24:00,
2014-03-04 15:25:00,30.4,5.4,29.56,ESE,112,2.7,2.7,34,0.00,,---,0.00,VWS V14.01,2014-03-04 20:25:00,
2014-03-04 15:26:00,30.6,6.2,29.56,South,180,2.0,2.7,35,0.00,,---,0.00,VWS V14.01,2014-03-04 20:26:00,
2014-03-04 15:27:00,30.7,5.7,29.56,SE,135,0.0,2.0,34,0.00,,---,0.00,VWS V14.01,2014-03-04 20:27:00,
2014-03-04 15:28:00,30.7,5.7,29.56,South,180,0.0,0.0,34,0.00,,---,0.00,VWS V14.01,2014-03-04 20:28:00,
2014-03-04 15:29:00,30.6,5.5,29.56,West,270,0.0,0.0,34,0.00,,---,0.00,VWS V14.01,2014-03-04 20:29:00,
2014-03-04 15:30:00,30.6,5.5,29.56,NW,315,0.0,1.3,34,0.00,,---,0.00,VWS V14.01,2014-03-04 20:30:00,
2014-03-04 15:31:00,30.6,5.5,29.56,East,90,1.6,1.6,34,0.00,,---,0.00,VWS V14.01,2014-03-04 20:31:00,
2014-03-04 15:32:00,30.6,5.5,29.56,East,90,0.0,1.6,34,0.00,,---,0.00,VWS V14.01,2014-03-04 20:32:00,
2014-03-04 15:33:00,30.6,5.5,29.56,SE,135,2.2,2.2,34,0.00,,---,0.00,VWS V14.01,2014-03-04 20:33:00,
2014-03-04 15:34:00,30.6,5.5,29.56,ENE,68,1.6,2.2,34,0.00,,---,0.00,VWS V14.01,2014-03-04 20:34:00,
2014-03-04 15:35:00,30.7,5.7,29.56,East,90,2.0,2.2,34,0.00,,---,0.00,VWS V14.01,2014-03-04 20:35:00,
2014-03-04 15:36:00,30.9,6.5,29.56,ENE,68,2.7,2.7,35,0.00,,---,0.00,VWS V14.01,2014-03-04 20:36:00,
2014-03-04 15:37:00,30.7,6.3,29.56,ESE,112,2.7,2.7,35,0.00,,---,0.00,VWS V14.01,2014-03-04 20:37:00,
2014-03-04 15:38:00,30.9,7.1,29.56,SSE,158,1.6,2.7,36,0.00,,---,0.00,VWS V14.01,2014-03-04 20:38:00,
2014-03-04 15:39:00,30.9,7.1,29.56,SSE,158,1.6,1.6,36,0.00,,---,0.00,VWS V14.01,2014-03-04 20:39:00,
2014-03-04 15:40:00,31.8,7.3,29.56,West,270,0.0,1.1,35,0.00,,---,0.00,VWS V14.01,2014-03-04 20:40:00,
2014-03-04 15:41:00,31.8,7.3,29.56,NW,315,0.0,0.0,35,0.00,,---,0.00,VWS V14.01,2014-03-04 20:41:00,
2014-03-04 15:42:00,31.6,7.1,29.56,SSE,158,0.0,0.0,35,0.00,,---,0.00,VWS V14.01,2014-03-04 20:42:00,
2014-03-04 15:43:00,31.5,7.0,29.56,East,90,0.0,1.3,35,0.00,,---,0.00,VWS V14.01,2014-03-04 20:43:00,
2014-03-04 15:44:00,31.6,7.1,29.56,ESE,112,2.7,2.7,35,0.00,,---,0.00,VWS V14.01,2014-03-04 20:44:00,
2014-03-04 15:45:00,31.6,7.1,29.56,SSE,158,1.6,1.6,35,0.00,,---,0.00,VWS V14.01,2014-03-04 20:45:00,
2014-03-04 15:46:00,31.6,7.1,29.56,SE,135,1.1,1.6,35,0.00,,---,0.00,VWS V14.01,2014-03-04 20:46:00,
2014-03-04 15:47:00,31.6,7.8,29.56,ESE,112,3.4,3.4,36,0.00,,---,0.00,VWS V14.01,2014-03-04 20:47:00,
2014-03-04 15:48:00,32.0,8.1,29.56,East,90,2.5,3.4,36,0.00,,---,0.00,VWS V14.01,2014-03-04 20:48:00,
2014-03-04 15:49:00,32.0,8.1,29.56,East,90,2.0,2.5,36,0.00,,---,0.00,VWS V14.01,2014-03-04 20:49:00,
2014-03-04 15:50:00,32.7,8.7,29.56,East,90,1.3,2.5,36,0.00,,---,0.00,VWS V14.01,2014-03-04 20:50:00,
2014-03-04 15:51:00,32.7,8.7,29.56,ESE,112,1.1,1.3,36,0.00,,---,0.00,VWS V14.01,2014-03-04 20:51:00,
2014-03-04 15:52:00,32.7,8.7,29.56,ESE,112,0.0,1.1,36,0.00,,---,0.00,VWS V14.01,2014-03-04 20:52:00,
2014-03-04 15:53:00,32.5,8.6,29.56,ESE,112,0.0,0.0,36,0.00,,---,0.00,VWS V14.01,2014-03-04 20:53:00,
2014-03-04 15:54:00,32.2,8.2,29.56,ESE,112,0.0,0.0,36,0.00,,---,0.00,VWS V14.01,2014-03-04 20:54:00,
2014-03-04 15:55:00,31.6,7.1,29.56,ESE,112,0.0,0.0,35,0.00,,---,0.00,VWS V14.01,2014-03-04 20:55:00,
2014-03-04 15:56:00,31.3,6.2,29.56,ESE,112,0.0,0.0,34,0.00,,---,0.00,VWS V14.01,2014-03-04 20:56:00,
2014-03-04 15:57:00,31.3,6.2,29.56,ESE,112,0.0,0.0,34,0.00,,---,0.00,VWS V14.01,2014-03-04 20:57:00,
2014-03-04 15:58:00,31.1,6.7,29.56,ESE,112,0.0,0.0,35,0.00,,---,0.00,VWS V14.01,2014-03-04 20:58:00,
2014-03-04 15:59:00,31.1,6.7,29.56,ESE,112,0.0,0.0,35,0.00,,---,0.00,VWS V14.01,2014-03-04 20:59:00,
2014-03-04 16:00:00,31.1,6.7,29.56,East,90,3.1,3.1,35,0.00,,---,0.00,VWS V14.01,2014-03-04 21:00:00,
2014-03-04 16:01:00,30.9,6.5,29.56,East,90,3.1,3.1,35,0.00,,---,0.00,VWS V14.01,2014-03-04 21:01:00,
2014-03-04 16:02:00,30.7,6.3,29.56,ESE,112,0.0,3.1,35,0.00,,---,0.00,VWS V14.01,2014-03-04 21:02:00,
2014-03-04 16:03:00,30.7,6.3,29.56,East,90,0.0,0.0,35,0.00,,---,0.00,VWS V14.01,2014-03-04 21:03:00,
2014-03-04 16:04:00,30.7,6.3,29.56,East,90,0.0,0.0,35,0.00,,---,0.00,VWS V14.01,2014-03-04 21:04:00,
2014-03-04 16:05:00,30.7,7.0,29.56,East,90,0.0,0.0,36,0.00,,---,0.00,VWS V14.01,2014-03-04 21:05:00,
2014-03-04 16:06:00,30.9,7.1,29.56,East,90,0.0,0.0,36,0.00,,---,0.00,VWS V14.01,2014-03-04 21:06:00,
2014-03-04 16:07:00,30.9,7.1,29.56,ESE,112,1.6,2.2,36,0.00,,---,0.00,VWS V14.01,2014-03-04 21:07:00,
2014-03-04 16:08:00,31.3,7.4,29.56,East,90,1.6,1.6,36,0.00,,---,0.00,VWS V14.01,2014-03-04 21:08:00,
2014-03-04 16:09:00,31.3,7.4,29.56,SE,135,1.1,2.9,36,0.00,,---,0.00,VWS V14.01,2014-03-04 21:09:00,
2014-03-04 16:10:00,31.3,6.8,29.56,SW,225,1.1,3.1,35,0.00,,---,0.00,VWS V14.01,2014-03-04 21:10:00,
2014-03-04 16:11:00,31.3,6.8,29.56,ESE,112,1.3,1.3,35,0.00,,---,0.00,VWS V14.01,2014-03-04 21:11:00,
2014-03-04 16:12:00,31.5,7.0,29.56,ESE,112,1.3,1.3,35,0.00,,---,0.00,VWS V14.01,2014-03-04 21:12:00,
2014-03-04 16:13:00,31.3,6.8,29.56,SSE,158,2.5,2.5,35,0.00,,---,0.00,VWS V14.01,2014-03-04 21:13:00,
2014-03-04 16:14:00,31.3,6.8,29.56,SE,135,1.1,2.5,35,0.00,,---,0.00,VWS V14.01,2014-03-04 21:14:00,
2014-03-04 16:15:00,31.1,6.7,29.56,SE,135,1.1,1.1,35,0.00,,---,0.00,VWS V14.01,2014-03-04 21:15:00,
2014-03-04 16:16:00,31.1,6.7,29.56,WNW,292,0.0,1.1,35,0.00,,---,0.00,VWS V14.01,2014-03-04 21:16:00,
2014-03-04 16:17:00,31.1,6.7,29.56,North,0,0.0,2.0,35,0.00,,---,0.00,VWS V14.01,2014-03-04 21:17:00,
2014-03-04 16:18:00,30.9,5.9,29.56,SW,225,0.0,0.0,34,0.00,,---,0.00,VWS V14.01,2014-03-04 21:18:00,
2014-03-04 16:19:00,30.9,5.9,29.56,West,270,0.0,0.0,34,0.00,,---,0.00,VWS V14.01,2014-03-04 21:19:00,
2014-03-04 16:20:00,30.7,5.7,29.56,SSE,158,0.0,0.0,34,0.00,,---,0.00,VWS V14.01,2014-03-04 21:20:00,
2014-03-04 16:21:00,30.7,5.7,29.56,WNW,292,2.2,2.2,34,0.00,,---,0.00,VWS V14.01,2014-03-04 21:21:00,
2014-03-04 16:22:00,30.7,5.7,29.56,WSW,248,0.0,2.2,34,0.00,,---,0.00,VWS V14.01,2014-03-04 21:22:00,
2014-03-04 16:23:00,30.6,5.5,29.56,West,270,1.6,1.6,34,0.00,,---,0.00,VWS V14.01,2014-03-04 21:23:00,
2014-03-04 16:24:00,30.4,5.4,29.56,SSE,158,0.0,1.6,34,0.00,,---,0.00,VWS V14.01,2014-03-04 21:24:00,
2014-03-04 16:25:00,30.4,5.4,29.56,SE,135,0.0,0.0,34,0.00,,---,0.00,VWS V14.01,2014-03-04 21:25:00,
2014-03-04 16:26:00,30.2,6.5,29.56,SE,135,0.0,0.0,36,0.00,,---,0.00,VWS V14.01,2014-03-04 21:26:00,
2014-03-04 16:27:00,30.2,6.5,29.56,ENE,68,2.9,2.9,36,0.00,,---,0.00,VWS V14.01,2014-03-04 21:27:00,
2014-03-04 16:28:00,30.0,6.3,29.56,East,90,1.1,2.9,36,0.00,,---,0.00,VWS V14.01,2014-03-04 21:28:00,
2014-03-04 16:29:00,30.0,6.3,29.56,East,90,0.9,1.1,36,0.00,,---,0.00,VWS V14.01,2014-03-04 21:29:00,
2014-03-04 16:30:00,29.7,4.7,29.56,SE,135,0.0,0.0,34,0.00,,---,0.00,VWS V14.01,2014-03-04 21:30:00,
2014-03-04 16:31:00,29.7,5.4,29.56,SE,135,0.0,0.0,35,0.00,,---,0.00,VWS V14.01,2014-03-04 21:31:00,
2014-03-04 16:32:00,29.7,4.7,29.56,ESE,112,0.0,0.0,34,0.00,,---,0.00,VWS V14.01,2014-03-04 21:32:00,
2014-03-04 16:33:00,29.7,5.4,29.56,SE,135,0.0,0.0,35,0.00,,---,0.00,VWS V14.01,2014-03-04 21:33:00,
2014-03-04 16:34:00,29.7,5.4,29.56,SE,135,0.0,0.0,35,0.00,,---,0.00,VWS V14.01,2014-03-04 21:34:00,
2014-03-04 16:35:00,29.7,5.4,29.56,West,270,0.0,0.0,35,0.00,,---,0.00,VWS V14.01,2014-03-04 21:35:00,
2014-03-04 16:36:00,29.5,5.2,29.56,ESE,112,2.0,2.0,35,0.00,,---,0.00,VWS V14.01,2014-03-04 21:36:00,
2014-03-04 16:37:00,29.5,5.2,29.56,East,90,0.9,2.0,35,0.00,,---,0.00,VWS V14.01,2014-03-04 21:37:00,
2014-03-04 16:38:00,29.3,5.1,29.56,SSE,158,1.6,1.6,35,0.00,,---,0.00,VWS V14.01,2014-03-04 21:38:00,
2014-03-04 16:39:00,29.3,5.7,29.56,South,180,2.2,2.2,36,0.00,,---,0.00,VWS V14.01,2014-03-04 21:39:00,
2014-03-04 16:40:00,29.1,4.9,29.56,SE,135,1.1,1.6,35,0.00,,---,0.00,VWS V14.01,2014-03-04 21:40:00,
2014-03-04 16:41:00,29.1,5.5,29.56,SE,135,1.1,1.1,36,0.00,,---,0.00,VWS V14.01,2014-03-04 21:41:00,
2014-03-04 16:42:00,28.9,5.3,29.56,WNW,292,3.6,3.6,36,0.00,,---,0.00,VWS V14.01,2014-03-04 21:42:00,
2014-03-04 16:43:00,28.9,5.3,29.56,SSE,158,1.1,3.6,36,0.00,,---,0.00,VWS V14.01,2014-03-04 21:43:00,
2014-03-04 16:44:00,28.9,5.3,29.56,South,180,0.0,1.1,36,0.00,,---,0.00,VWS V14.01,2014-03-04 21:44:00,
2014-03-04 16:45:00,28.6,4.4,29.56,SE,135,0.0,0.0,35,0.00,,---,0.00,VWS V14.01,2014-03-04 21:45:00,
2014-03-04 16:46:00,28.6,4.4,29.56,ESE,112,2.7,2.9,35,0.00,,---,0.00,VWS V14.01,2014-03-04 21:46:00,
2014-03-04 16:47:00,28.6,4.4,29.56,East,90,1.3,2.7,35,0.00,,---,0.00,VWS V14.01,2014-03-04 21:47:00,
2014-03-04 16:48:00,28.4,4.9,29.56,NE,45,1.6,1.6,36,0.00,,---,0.00,VWS V14.01,2014-03-04 21:48:00,
2014-03-04 16:49:00,28.4,4.9,29.56,NE,45,2.2,2.2,36,0.00,,---,0.00,VWS V14.01,2014-03-04 21:49:00,
2014-03-04 16:50:00,28.4,4.9,29.56,NW,315,0.9,0.9,36,0.00,,---,0.00,VWS V14.01,2014-03-04 21:50:00,
2014-03-04 16:51:00,28.4,4.9,29.56,ESE,112,0.0,0.9,36,0.00,,---,0.00,VWS V14.01,2014-03-04 21:51:00,
2014-03-04 16:52:00,28.2,4.7,29.56,WNW,292,0.0,2.2,36,0.00,,---,0.00,VWS V14.01,2014-03-04 21:52:00,
2014-03-04 16:53:00,28.2,4.7,29.56,ESE,112,0.9,0.9,36,0.00,,---,0.00,VWS V14.01,2014-03-04 21:53:00,
2014-03-04 16:54:00,28.2,4.7,29.56,East,90,2.7,2.7,36,0.00,,---,0.00,VWS V14.01,2014-03-04 21:54:00,
2014-03-04 16:55:00,27.9,3.8,29.56,ENE,68,1.3,2.9,35,0.00,,---,0.00,VWS V14.01,2014-03-04 21:55:00,
2014-03-04 16:56:00,27.9,3.8,29.56,East,90,0.0,1.3,35,0.00,,---,0.00,VWS V14.01,2014-03-04 21:56:00,
2014-03-04 16:57:00,27.9,3.8,29.56,ESE,112,1.6,1.6,35,0.00,,---,0.00,VWS V14.01,2014-03-04 21:57:00,
2014-03-04 16:58:00,27.9,4.4,29.56,East,90,2.2,2.2,36,0.00,,---,0.00,VWS V14.01,2014-03-04 21:58:00,
2014-03-04 16:59:00,27.9,4.4,29.56,East,90,1.1,2.2,36,0.00,,---,0.00,VWS V14.01,2014-03-04 21:59:00,
2014-03-04 17:00:00,27.9,4.4,29.56,ESE,112,0.0,1.1,36,0.00,,---,0.00,VWS V14.01,2014-03-04 22:00:00,
2014-03-04 17:01:00,27.9,4.4,29.56,East,90,1.3,1.3,36,0.00,,---,0.00,VWS V14.01,2014-03-04 22:01:00,
2014-03-04 17:02:00,27.9,4.4,29.56,NE,45,1.1,1.6,36,0.00,,---,0.00,VWS V14.01,2014-03-04 22:02:00,
2014-03-04 17:03:00,27.7,4.8,29.56,ESE,112,0.0,1.1,37,0.00,,---,0.00,VWS V14.01,2014-03-04 22:03:00,
2014-03-04 17:04:00,27.7,4.8,29.56,ESE,112,0.0,1.1,37,0.00,,---,0.00,VWS V14.01,2014-03-04 22:04:00,
2014-03-04 17:05:00,27.5,4.7,29.56,SSW,202,0.0,0.0,37,0.00,,---,0.00,VWS V14.01,2014-03-04 22:05:00,
2014-03-04 17:06:00,27.5,4.7,29.56,West,270,0.0,0.0,37,0.00,,---,0.00,VWS V14.01,2014-03-04 22:06:00,
2014-03-04 17:07:00,27.5,4.7,29.56,ESE,112,2.5,2.5,37,0.00,,---,0.00,VWS V14.01,2014-03-04 22:07:00,
2014-03-04 17:08:00,27.5,4.1,29.56,East,90,0.0,0.0,36,0.00,,---,0.00,VWS V14.01,2014-03-04 22:08:00,
2014-03-04 17:09:00,27.5,4.1,29.56,ESE,112,1.6,2.2,36,0.00,,---,0.00,VWS V14.01,2014-03-04 22:09:00,
2014-03-04 17:10:00,27.3,3.9,29.56,SSE,158,0.0,1.6,36,0.00,,---,0.00,VWS V14.01,2014-03-04 22:10:00,
2014-03-04 17:11:00,27.3,4.5,29.53,South,180,0.0,0.0,37,0.00,,---,0.00,VWS V14.01,2014-03-04 22:11:00,
2014-03-04 17:12:00,27.1,3.7,29.53,SSE,158,0.9,0.9,36,0.00,,---,0.00,VWS V14.01,2014-03-04 22:12:00,
2014-03-04 17:13:00,27.1,4.3,29.53,East,90,0.9,0.9,37,0.00,,---,0.00,VWS V14.01,2014-03-04 22:13:00,
2014-03-04 17:14:00,27.1,3.7,29.53,East,90,2.5,2.5,36,0.00,,---,0.00,VWS V14.01,2014-03-04 22:14:00,
2014-03-04 17:15:00,27.0,3.6,29.53,SE,135,2.7,2.7,36,0.00,,---,0.00,VWS V14.01,2014-03-04 22:15:00,
2014-03-04 17:16:00,27.0,3.6,29.53,ESE,112,1.1,3.6,36,0.00,,---,0.00,VWS V14.01,2014-03-04 22:16:00,
2014-03-04 17:17:00,27.0,3.6,29.53,East,90,2.9,2.9,36,0.00,,---,0.00,VWS V14.01,2014-03-04 22:17:00,
2014-03-04 17:18:00,26.8,3.4,29.53,ENE,68,2.5,3.4,36,0.00,,---,0.00,VWS V14.01,2014-03-04 22:18:00,
2014-03-04 17:19:00,26.8,3.4,29.53,East,90,2.2,3.4,36,0.00,,---,0.00,VWS V14.01,2014-03-04 22:19:00,
2014-03-04 17:20:00,26.8,3.4,29.53,East,90,0.9,2.2,36,0.00,,---,0.00,VWS V14.01,2014-03-04 22:20:00,
2014-03-04 17:21:00,26.8,3.4,29.53,West,270,0.0,0.9,36,0.00,,---,0.00,VWS V14.01,2014-03-04 22:21:00,
2014-03-04 17:22:00,26.6,3.8,29.53,East,90,2.5,2.5,37,0.00,,---,0.00,VWS V14.01,2014-03-04 22:22:00,
2014-03-04 17:23:00,26.6,3.8,29.53,East,90,1.1,2.0,37,0.00,,---,0.00,VWS V14.01,2014-03-04 22:23:00,
2014-03-04 17:24:00,26.6,3.8,29.53,ESE,112,1.1,2.0,37,0.00,,---,0.00,VWS V14.01,2014-03-04 22:24:00,
2014-03-04 17:25:00,26.4,4.3,29.53,ESE,112,0.0,1.1,38,0.00,,---,0.00,VWS V14.01,2014-03-04 22:25:00,
2014-03-04 17:26:00,26.4,3.7,29.53,ESE,112,0.0,0.0,37,0.00,,---,0.00,VWS V14.01,2014-03-04 22:26:00,
2014-03-04 17:27:00,26.6,3.8,29.53,ESE,112,0.0,0.0,37,0.00,,---,0.00,VWS V14.01,2014-03-04 22:27:00,
2014-03-04 17:28:00,26.4,3.7,29.53,NNE,22,0.0,0.0,37,0.00,,---,0.00,VWS V14.01,2014-03-04 22:28:00,
2014-03-04 17:29:00,26.4,3.7,29.53,SE,135,0.0,0.0,37,0.00,,---,0.00,VWS V14.01,2014-03-04 22:29:00,
2014-03-04 17:30:00,26.4,3.7,29.53,East,90,0.0,0.0,37,0.00,,---,0.00,VWS V14.01,2014-03-04 22:30:00,
2014-03-04 17:31:00,26.4,3.7,29.53,East,90,0.0,0.0,37,0.00,,---,0.00,VWS V14.01,2014-03-04 22:31:00,
2014-03-04 17:32:00,26.4,3.7,29.53,WNW,292,0.0,0.0,37,0.00,,---,0.00,VWS V14.01,2014-03-04 22:32:00,
2014-03-04 17:33:00,26.2,4.1,29.53,WNW,292,0.0,0.0,38,0.00,,---,0.00,VWS V14.01,2014-03-04 22:33:00,
2014-03-04 17:34:00,26.2,3.5,29.53,NW,315,1.1,1.1,37,0.00,,---,0.00,VWS V14.01,2014-03-04 22:34:00,
2014-03-04 17:35:00,26.1,3.4,29.53,SSE,158,0.0,1.1,37,0.00,,---,0.00,VWS V14.01,2014-03-04 22:35:00,
2014-03-04 17:36:00,26.1,3.4,29.53,SSE,158,0.0,0.0,37,0.00,,---,0.00,VWS V14.01,2014-03-04 22:36:00,
2014-03-04 17:37:00,25.3,3.9,29.53,East,90,0.0,1.3,39,0.00,,---,0.00,VWS V14.01,2014-03-04 22:37:00,
2014-03-04 17:38:00,26.1,3.4,29.53,SE,135,2.0,2.5,37,0.00,,---,0.00,VWS V14.01,2014-03-04 22:38:00,
2014-03-04 17:39:00,26.1,3.4,29.53,East,90,2.9,2.9,37,0.00,,---,0.00,VWS V14.01,2014-03-04 22:39:00,
2014-03-04 17:40:00,25.9,3.2,29.53,East,90,2.0,2.9,37,0.00,,---,0.00,VWS V14.01,2014-03-04 22:40:00,
2014-03-04 17:41:00,27.0,5.3,29.56,SE,135,1.3,2.7,39,0.00,,---,0.00,VWS V14.01,2014-03-04 22:41:00,
2014-03-04 17:42:00,27.0,5.3,29.56,ESE,112,1.1,2.5,39,0.00,,---,0.00,VWS V14.01,2014-03-04 22:42:00,
2014-03-04 17:43:00,28.4,7.7,29.56,ESE,112,1.3,1.3,41,0.00,,---,0.00,VWS V14.01,2014-03-04 22:43:00,
2014-03-04 17:44:00,28.6,7.3,29.56,SE,135,1.1,1.3,40,0.00,,---,0.00,VWS V14.01,2014-03-04 22:44:00,
2014-03-04 17:45:00,28.4,7.2,29.56,SE,135,0.0,1.1,40,0.00,,---,0.00,VWS V14.01,2014-03-04 22:45:00,
2014-03-04 17:46:00,27.9,6.7,29.56,ESE,112,0.0,0.0,40,0.00,,---,0.00,VWS V14.01,2014-03-04 22:46:00,
2014-03-04 17:47:00,27.7,6.0,29.56,SE,135,0.0,0.0,39,0.00,,---,0.00,VWS V14.01,2014-03-04 22:47:00,
2014-03-04 17:48:00,27.1,5.5,29.56,East,90,2.5,2.5,39,0.00,,---,0.00,VWS V14.01,2014-03-04 22:48:00,
2014-03-04 17:49:00,27.0,5.3,29.56,ESE,112,1.1,3.1,39,0.00,,---,0.00,VWS V14.01,2014-03-04 22:49:00,
2014-03-04 17:50:00,27.0,5.3,29.56,ESE,112,1.1,1.1,39,0.00,,---,0.00,VWS V14.01,2014-03-04 22:50:00,
2014-03-04 17:51:00,26.8,4.6,29.56,ESE,112,2.5,2.5,38,0.00,,---,0.00,VWS V14.01,2014-03-04 22:51:00,
2014-03-04 17:52:00,26.6,4.4,29.56,ESE,112,2.5,2.9,38,0.00,,---,0.00,VWS V14.01,2014-03-04 22:52:00,
2014-03-04 17:53:00,26.6,4.4,29.56,East,90,2.2,2.5,38,0.00,,---,0.00,VWS V14.01,2014-03-04 22:53:00,
2014-03-04 17:54:00,26.6,4.4,29.56,East,90,2.2,2.5,38,0.00,,---,0.00,VWS V14.01,2014-03-04 22:54:00,
2014-03-04 17:55:00,26.4,4.3,29.56,ESE,112,1.1,2.2,38,0.00,,---,0.00,VWS V14.01,2014-03-04 22:55:00,
2014-03-04 17:56:00,26.2,4.7,29.56,SSE,158,0.0,1.6,39,0.00,,---,0.00,VWS V14.01,2014-03-04 22:56:00,
2014-03-04 17:57:00,26.2,4.7,29.56,SSE,158,0.0,0.0,39,0.00,,---,0.00,VWS V14.01,2014-03-04 22:57:00,
2014-03-04 17:58:00,26.1,3.9,29.56,ESE,112,1.3,1.3,38,0.00,,---,0.00,VWS V14.01,2014-03-04 22:58:00,
2014-03-04 17:59:00,26.1,4.5,29.56,East,90,0.9,1.6,39,0.00,,---,0.00,VWS V14.01,2014-03-04 22:59:00,
2014-03-04 18:00:00,26.1,3.9,29.56,ESE,112,2.0,2.0,38,0.00,,---,0.00,VWS V14.01,2014-03-04 23:00:00,
2014-03-04 18:01:00,26.1,3.9,29.56,SE,135,1.6,2.2,38,0.00,,---,0.00,VWS V14.01,2014-03-04 23:01:00,
2014-03-04 18:02:00,26.1,3.9,29.56,East,90,0.0,1.6,38,0.00,,---,0.00,VWS V14.01,2014-03-04 23:02:00,
2014-03-04 18:03:00,26.1,4.5,29.56,SSE,158,0.0,0.0,39,0.00,,---,0.00,VWS V14.01,2014-03-04 23:03:00,
2014-03-04 18:04:00,26.1,4.5,29.56,SSE,158,0.0,0.0,39,0.00,,---,0.00,VWS V14.01,2014-03-04 23:04:00,
2014-03-04 18:05:00,26.1,4.5,29.56,East,90,1.3,1.3,39,0.00,,---,0.00,VWS V14.01,2014-03-04 23:05:00,
2014-03-04 18:06:00,25.9,4.3,29.56,East,90,0.0,1.3,39,0.00,,---,0.00,VWS V14.01,2014-03-04 23:06:00,
2014-03-04 18:07:00,25.9,3.8,29.56,East,90,0.0,0.0,38,0.00,,---,0.00,VWS V14.01,2014-03-04 23:07:00,
2014-03-04 18:08:00,25.9,3.8,29.56,SE,135,0.0,0.0,38,0.00,,---,0.00,VWS V14.01,2014-03-04 23:08:00,
2014-03-04 18:09:00,25.9,4.3,29.56,ESE,112,0.0,0.0,39,0.00,,---,0.00,VWS V14.01,2014-03-04 23:09:00,
2014-03-04 18:10:00,25.9,4.3,29.56,ESE,112,0.0,0.0,39,0.00,,---,0.00,VWS V14.01,2014-03-04 23:10:00,
2014-03-04 18:11:00,25.7,4.2,29.56,SE,135,0.0,0.0,39,0.00,,---,0.00,VWS V14.01,2014-03-04 23:11:00,
2014-03-04 18:12:00,25.7,4.2,29.56,East,90,0.0,0.0,39,0.00,,---,0.00,VWS V14.01,2014-03-04 23:12:00,
2014-03-04 18:13:00,25.7,4.2,29.56,ESE,112,0.0,0.0,39,0.00,,---,0.00,VWS V14.01,2014-03-04 23:13:00,
2014-03-04 18:14:00,25.7,4.2,29.56,SSE,158,0.0,0.0,39,0.00,,---,0.00,VWS V14.01,2014-03-04 23:14:00,
2014-03-04 18:15:00,25.7,4.2,29.56,South,180,0.0,0.0,39,0.00,,---,0.00,VWS V14.01,2014-03-04 23:15:00,
2014-03-04 18:16:00,25.7,4.2,29.56,South,180,0.0,0.0,39,0.00,,---,0.00,VWS V14.01,2014-03-04 23:16:00,
2014-03-04 18:17:00,25.7,4.2,29.56,WSW,248,0.0,0.0,39,0.00,,---,0.00,VWS V14.01,2014-03-04 23:17:00,
2014-03-04 18:18:00,25.5,4.6,29.56,NW,315,0.0,0.0,40,0.00,,---,0.00,VWS V14.01,2014-03-04 23:18:00,
2014-03-04 18:19:00,25.5,4.0,29.56,East,90,0.0,0.0,39,0.00,,---,0.00,VWS V14.01,2014-03-04 23:19:00,
2014-03-04 18:20:00,25.5,4.0,29.56,ESE,112,0.0,0.0,39,0.00,,---,0.00,VWS V14.01,2014-03-04 23:20:00,
2014-03-04 18:21:00,25.5,4.0,29.56,ESE,112,0.0,0.0,39,0.00,,---,0.00,VWS V14.01,2014-03-04 23:21:00,
2014-03-04 18:22:00,25.5,4.0,29.56,NW,315,0.0,0.0,39,0.00,,---,0.00,VWS V14.01,2014-03-04 23:22:00,
2014-03-04 18:23:00,25.5,4.6,29.56,West,270,0.0,0.0,40,0.00,,---,0.00,VWS V14.01,2014-03-04 23:23:00,
2014-03-04 18:24:00,25.5,4.6,29.56,SW,225,0.0,0.0,40,0.00,,---,0.00,VWS V14.01,2014-03-04 23:24:00,
2014-03-04 18:25:00,25.5,4.6,29.56,SSE,158,0.9,0.9,40,0.00,,---,0.00,VWS V14.01,2014-03-04 23:25:00,
2014-03-04 18:26:00,25.5,4.6,29.53,SW,225,0.0,0.9,40,0.00,,---,0.00,VWS V14.01,2014-03-04 23:26:00,
2014-03-04 18:27:00,25.5,4.0,29.53,NW,315,0.0,0.0,39,0.00,,---,0.00,VWS V14.01,2014-03-04 23:27:00,
2014-03-04 18:28:00,25.5,4.0,29.53,North,0,0.0,0.0,39,0.00,,---,0.00,VWS V14.01,2014-03-04 23:28:00,
2014-03-04 18:29:00,25.5,4.0,29.53,NNW,338,0.0,0.0,39,0.00,,---,0.00,VWS V14.01,2014-03-04 23:29:00,
2014-03-04 18:30:00,25.5,4.0,29.53,SE,135,0.0,0.0,39,0.00,,---,0.00,VWS V14.01,2014-03-04 23:30:00,
2014-03-04 18:31:00,25.5,4.0,29.53,East,90,0.0,0.0,39,0.00,,---,0.00,VWS V14.01,2014-03-04 23:31:00,
2014-03-04 18:32:00,25.5,4.0,29.53,SE,135,0.0,0.0,39,0.00,,---,0.00,VWS V14.01,2014-03-04 23:32:00,
2014-03-04 18:33:00,25.5,4.0,29.53,SSE,158,0.0,0.0,39,0.00,,---,0.00,VWS V14.01,2014-03-04 23:33:00,
2014-03-04 18:34:00,25.5,4.0,29.53,SSE,158,0.0,0.0,39,0.00,,---,0.00,VWS V14.01,2014-03-04 23:34:00,
2014-03-04 18:35:00,25.3,3.9,29.53,ESE,112,2.5,2.5,39,0.00,,---,0.00,VWS V14.01,2014-03-04 23:35:00,
2014-03-04 18:36:00,25.3,3.3,29.53,East,90,0.0,2.5,38,0.00,,---,0.00,VWS V14.01,2014-03-04 23:36:00,
2014-03-04 18:37:00,25.3,3.9,29.53,East,90,0.0,1.3,39,0.00,,---,0.00,VWS V14.01,2014-03-04 23:37:00,
2014-03-04 18:38:00,25.3,3.9,29.53,ESE,112,2.5,2.5,39,0.00,,---,0.00,VWS V14.01,2014-03-04 23:38:00,
2014-03-04 18:39:00,25.3,3.3,29.53,South,180,0.0,2.5,38,0.00,,---,0.00,VWS V14.01,2014-03-04 23:39:00,
2014-03-04 18:40:00,25.3,3.3,29.53,SSW,202,0.0,0.0,38,0.00,,---,0.00,VWS V14.01,2014-03-04 23:40:00,
2014-03-04 18:41:00,25.3,3.9,29.56,East,90,0.0,0.0,39,0.00,,---,0.00,VWS V14.01,2014-03-04 23:41:00,
2014-03-04 18:42:00,25.3,3.9,29.56,East,90,0.0,0.9,39,0.00,,---,0.00,VWS V14.01,2014-03-04 23:42:00,
2014-03-04 18:43:00,25.3,3.9,29.56,East,90,0.0,0.0,39,0.00,,---,0.00,VWS V14.01,2014-03-04 23:43:00,
2014-03-04 18:44:00,25.3,3.9,29.56,East,90,0.0,0.0,39,0.00,,---,0.00,VWS V14.01,2014-03-04 23:44:00,
2014-03-04 18:45:00,25.3,3.9,29.56,ENE,68,0.0,0.0,39,0.00,,---,0.00,VWS V14.01,2014-03-04 23:45:00,
2014-03-04 18:46:00,25.3,3.9,29.56,ESE,112,0.0,0.0,39,0.00,,---,0.00,VWS V14.01,2014-03-04 23:46:00,
2014-03-04 18:47:00,25.2,3.7,29.56,East,90,0.0,2.0,39,0.00,,---,0.00,VWS V14.01,2014-03-04 23:47:00,
2014-03-04 18:48:00,25.2,4.2,29.56,ENE,68,1.3,1.3,40,0.00,,---,0.00,VWS V14.01,2014-03-04 23:48:00,
2014-03-04 18:49:00,25.2,4.2,29.56,ESE,112,0.0,1.3,40,0.00,,---,0.00,VWS V14.01,2014-03-04 23:49:00,
2014-03-04 18:50:00,25.2,4.2,29.56,ESE,112,1.3,1.6,40,0.00,,---,0.00,VWS V14.01,2014-03-04 23:50:00,
2014-03-04 18:51:00,26.1,5.6,29.56,West,270,0.0,0.0,41,0.00,,---,0.00,VWS V14.01,2014-03-04 23:51:00,
2014-03-04 18:52:00,25.2,4.2,29.56,NE,45,0.0,1.3,40,0.00,,---,0.00,VWS V14.01,2014-03-04 23:52:00,
2014-03-04 18:53:00,25.2,4.2,29.56,SSE,158,0.0,0.0,40,0.00,,---,0.00,VWS V14.01,2014-03-04 23:53:00,
2014-03-04 18:54:00,25.2,4.2,29.56,SSE,158,0.0,0.0,40,0.00,,---,0.00,VWS V14.01,2014-03-04 23:54:00,
2014-03-04 18:55:00,25.2,4.2,29.56,East,90,0.0,0.0,40,0.00,,---,0.00,VWS V14.01,2014-03-04 23:55:00,
2014-03-04 18:56:00,25.2,4.2,29.59,East,90,0.0,0.0,40,0.00,,---,0.00,VWS V14.01,2014-03-04 23:56:00,
2014-03-04 18:57:00,25.0,4.1,29.59,East,90,1.1,1.1,40,0.00,,---,0.00,VWS V14.01,2014-03-04 23:57:00,
2014-03-04 18:58:00,25.0,4.1,29.59,SSE,158,0.0,0.0,40,0.00,,---,0.00,VWS V14.01,2014-03-04 23:58:00,
2014-03-04 18:59:00,25.0,4.1,29.59,SSE,158,0.0,1.6,40,0.00,,---,0.00,VWS V14.01,2014-03-04 23:59:00,
2014-03-04 19:00:00,25.0,3.5,29.59,SE,135,0.0,0.0,39,0.00,,---,0.00,VWS V14.01,2014-03-05 00:00:00,
2014-03-04 19:01:00,25.0,3.5,29.59,NW,315,0.0,0.0,39,0.00,,---,0.00,VWS V14.01,2014-03-05 00:01:00,
2014-03-04 19:02:00,25.0,3.5,29.59,ENE,68,0.0,1.1,39,0.00,,---,0.00,VWS V14.01,2014-03-05 00:02:00,
2014-03-04 19:03:00,25.0,3.5,29.59,ENE,68,0.0,0.0,39,0.00,,---,0.00,VWS V14.01,2014-03-05 00:03:00,
2014-03-04 19:04:00,25.0,3.5,29.59,SSW,202,0.0,0.0,39,0.00,,---,0.00,VWS V14.01,2014-03-05 00:04:00,
2014-03-04 19:05:00,25.0,4.1,29.59,NW,315,0.0,0.0,40,0.00,,---,0.00,VWS V14.01,2014-03-05 00:05:00,
2014-03-04 19:06:00,25.0,3.5,29.59,ESE,112,0.0,0.0,39,0.00,,---,0.00,VWS V14.01,2014-03-05 00:06:00,
2014-03-04 19:07:00,25.0,4.1,29.59,East,90,0.0,0.9,40,0.00,,---,0.00,VWS V14.01,2014-03-05 00:07:00,
2014-03-04 19:08:00,25.0,4.1,29.59,South,180,0.0,0.0,40,0.00,,---,0.00,VWS V14.01,2014-03-05 00:08:00,
2014-03-04 19:09:00,25.0,3.5,29.59,South,180,0.0,0.0,39,0.00,,---,0.00,VWS V14.01,2014-03-05 00:09:00,
2014-03-04 19:10:00,25.0,4.1,29.59,South,180,0.0,0.0,40,0.00,,---,0.00,VWS V14.01,2014-03-05 00:10:00,
2014-03-04 19:11:00,25.0,4.1,29.56,NW,315,2.5,2.5,40,0.00,,---,0.00,VWS V14.01,2014-03-05 00:11:00,
2014-03-04 19:12:00,25.0,3.5,29.56,SSW,202,0.0,2.5,39,0.00,,---,0.00,VWS V14.01,2014-03-05 00:12:00,
2014-03-04 19:13:00,25.0,4.1,29.56,West,270,0.0,0.0,40,0.00,,---,0.00,VWS V14.01,2014-03-05 00:13:00,
2014-03-04 19:14:00,25.0,4.1,29.56,ENE,68,0.0,0.0,40,0.00,,---,0.00,VWS V14.01,2014-03-05 00:14:00,
2014-03-04 19:15:00,25.0,4.1,29.56,NW,315,0.0,0.0,40,0.00,,---,0.00,VWS V14.01,2014-03-05 00:15:00,
2014-03-04 19:16:00,25.0,3.5,29.56,SE,135,0.0,0.0,39,0.00,,---,0.00,VWS V14.01,2014-03-05 00:16:00,
2014-03-04 19:17:00,25.0,3.5,29.56,SE,135,0.0,0.0,39,0.00,,---,0.00,VWS V14.01,2014-03-05 00:17:00,
2014-03-04 19:18:00,25.0,3.5,29.56,West,270,0.0,2.7,39,0.00,,---,0.00,VWS V14.01,2014-03-05 00:18:00,
2014-03-04 19:19:00,25.0,3.5,29.56,SSW,202,0.0,2.7,39,0.00,,---,0.00,VWS V14.01,2014-03-05 00:19:00,
2014-03-04 19:20:00,25.0,3.5,29.56,ENE,68,0.0,0.0,39,0.00,,---,0.00,VWS V14.01,2014-03-05 00:20:00,
2014-03-04 19:21:00,24.8,3.4,29.56,ESE,112,1.6,2.0,39,0.00,,---,0.00,VWS V14.01,2014-03-05 00:21:00,
2014-03-04 19:22:00,24.8,3.9,29.56,ESE,112,0.0,1.6,40,0.00,,---,0.00,VWS V14.01,2014-03-05 00:22:00,
2014-03-04 19:23:00,24.8,3.9,29.56,South,180,0.0,0.0,40,0.00,,---,0.00,VWS V14.01,2014-03-05 00:23:00,
2014-03-04 19:24:00,24.8,3.9,29.56,SSE,158,0.0,0.0,40,0.00,,---,0.00,VWS V14.01,2014-03-05 00:24:00,
2014-03-04 19:25:00,24.8,3.9,29.56,ESE,112,0.0,0.0,40,0.00,,---,0.00,VWS V14.01,2014-03-05 00:25:00,
2014-03-04 19:26:00,24.8,4.4,29.56,East,90,1.1,1.1,41,0.00,,---,0.00,VWS V14.01,2014-03-05 00:26:00,
2014-03-04 19:27:00,24.8,4.4,29.56,SSE,158,0.0,1.1,41,0.00,,---,0.00,VWS V14.01,2014-03-05 00:27:00,
2014-03-04 19:28:00,24.8,4.4,29.56,SE,135,0.0,0.0,41,0.00,,---,0.00,VWS V14.01,2014-03-05 00:28:00,
2014-03-04 19:29:00,24.8,3.9,29.56,ESE,112,0.0,0.0,40,0.00,,---,0.00,VWS V14.01,2014-03-05 00:29:00,
2014-03-04 19:30:00,24.8,3.9,29.56,ESE,112,0.0,1.1,40,0.00,,---,0.00,VWS V14.01,2014-03-05 00:30:00,
2014-03-04 19:31:00,25.0,4.6,29.56,SE,135,0.0,0.0,41,0.00,,---,0.00,VWS V14.01,2014-03-05 00:31:00,
2014-03-04 19:32:00,25.3,4.9,29.56,ESE,112,0.0,0.0,41,0.00,,---,0.00,VWS V14.01,2014-03-05 00:32:00,
2014-03-04 19:33:00,25.9,5.4,29.56,ESE,112,0.0,0.0,41,0.00,,---,0.00,VWS V14.01,2014-03-05 00:33:00,
2014-03-04 19:34:00,26.1,5.6,29.56,East,90,0.0,0.0,41,0.00,,---,0.00,VWS V14.01,2014-03-05 00:34:00,
2014-03-04 19:35:00,26.1,5.6,29.56,SSE,158,0.0,0.0,41,0.00,,---,0.00,VWS V14.01,2014-03-05 00:35:00,
2014-03-04 19:36:00,26.1,5.6,29.56,SE,135,0.0,0.0,41,0.00,,---,0.00,VWS V14.01,2014-03-05 00:36:00,
2014-03-04 19:37:00,26.1,5.6,29.56,SE,135,0.0,0.0,41,0.00,,---,0.00,VWS V14.01,2014-03-05 00:37:00,
2014-03-04 19:38:00,26.2,6.3,29.56,SE,135,0.0,0.0,42,0.00,,---,0.00,VWS V14.01,2014-03-05 00:38:00,
2014-03-04 19:39:00,26.2,6.3,29.56,SE,135,0.0,0.0,42,0.00,,---,0.00,VWS V14.01,2014-03-05 00:39:00,
2014-03-04 19:40:00,26.2,6.3,29.56,SSE,158,2.2,2.2,42,0.00,,---,0.00,VWS V14.01,2014-03-05 00:40:00,
2014-03-04 19:41:00,27.0,6.4,29.56,ESE,112,2.5,2.5,41,0.00,,---,0.00,VWS V14.01,2014-03-05 00:41:00,
2014-03-04 19:42:00,27.7,7.1,29.56,SE,135,1.6,2.5,41,0.00,,---,0.00,VWS V14.01,2014-03-05 00:42:00,
2014-03-04 19:43:00,27.5,6.9,29.56,East,90,2.0,2.0,41,0.00,,---,0.00,VWS V14.01,2014-03-05 00:43:00,
2014-03-04 19:44:00,27.3,6.7,29.56,ENE,68,0.0,2.0,41,0.00,,---,0.00,VWS V14.01,2014-03-05 00:44:00,
2014-03-04 19:45:00,27.3,6.7,29.56,East,90,0.0,0.0,41,0.00,,---,0.00,VWS V14.01,2014-03-05 00:45:00,
2014-03-04 19:46:00,27.3,6.7,29.56,SSE,158,0.0,0.0,41,0.00,,---,0.00,VWS V14.01,2014-03-05 00:46:00,
2014-03-04 19:47:00,26.6,6.1,29.56,SSE,158,0.0,0.0,41,0.00,,---,0.00,VWS V14.01,2014-03-05 00:47:00,
2014-03-04 19:48:00,26.4,5.9,29.56,SE,135,0.0,0.0,41,0.00,,---,0.00,VWS V14.01,2014-03-05 00:48:00,
2014-03-04 19:49:00,26.2,5.8,29.56,SSE,158,0.0,0.0,41,0.00,,---,0.00,VWS V14.01,2014-03-05 00:49:00,
2014-03-04 19:50:00,26.2,5.8,29.56,WNW,292,0.0,0.0,41,0.00,,---,0.00,VWS V14.01,2014-03-05 00:50:00,
2014-03-04 19:51:00,26.1,5.6,29.56,West,270,0.0,0.0,41,0.00,,---,0.00,VWS V14.01,2014-03-05 00:51:00,
2014-03-04 19:52:00,26.1,5.6,29.56,NNE,22,0.0,0.0,41,0.00,,---,0.00,VWS V14.01,2014-03-05 00:52:00,
2014-03-04 19:53:00,25.9,5.4,29.56,East,90,0.0,0.0,41,0.00,,---,0.00,VWS V14.01,2014-03-05 00:53:00,
2014-03-04 19:54:00,25.9,5.4,29.56,East,90,0.0,0.0,41,0.00,,---,0.00,VWS V14.01,2014-03-05 00:54:00,
2014-03-04 19:55:00,25.9,5.4,29.56,East,90,0.0,0.0,41,0.00,,---,0.00,VWS V14.01,2014-03-05 00:55:00,
2014-03-04 19:56:00,25.7,5.3,29.56,East,90,0.0,0.0,41,0.00,,---,0.00,VWS V14.01,2014-03-05 00:56:00,
2014-03-04 19:57:00,25.7,5.3,29.56,East,90,0.0,0.0,41,0.00,,---,0.00,VWS V14.01,2014-03-05 00:57:00,
2014-03-04 19:58:00,25.5,5.1,29.56,East,90,0.0,0.0,41,0.00,,---,0.00,VWS V14.01,2014-03-05 00:58:00,
2014-03-04 19:59:00,25.5,5.1,29.56,East,90,0.0,0.0,41,0.00,,---,0.00,VWS V14.01,2014-03-05 00:59:00,
2014-03-04 20:00:00,25.3,4.9,29.56,East,90,0.0,0.0,41,0.00,,---,0.00,VWS V14.01,2014-03-05 01:00:00,
2014-03-04 20:01:00,25.3,4.9,29.56,East,90,0.0,0.0,41,0.00,,---,0.00,VWS V14.01,2014-03-05 01:01:00,
2014-03-04 20:02:00,25.3,4.9,29.56,East,90,0.0,0.0,41,0.00,,---,0.00,VWS V14.01,2014-03-05 01:02:00,
2014-03-04 20:03:00,25.3,4.9,29.56,East,90,0.0,0.0,41,0.00,,---,0.00,VWS V14.01,2014-03-05 01:03:00,
2014-03-04 20:04:00,25.3,4.9,29.56,East,90,0.0,0.0,41,0.00,,---,0.00,VWS V14.01,2014-03-05 01:04:00,
2014-03-04 20:05:00,24.1,4.8,29.53,ENE,68,0.0,0.0,43,0.00,,---,0.00,VWS V14.01,2014-03-05 01:05:00,
2014-03-04 20:06:00,24.1,4.8,29.53,ENE,68,0.0,0.0,43,0.00,,---,0.00,VWS V14.01,2014-03-05 01:06:00,
2014-03-04 20:07:00,24.1,5.3,29.53,East,90,0.0,0.0,44,0.00,,---,0.00,VWS V14.01,2014-03-05 01:07:00,
2014-03-04 20:08:00,25.0,5.1,29.56,East,90,0.0,0.0,42,0.00,,---,0.00,VWS V14.01,2014-03-05 01:08:00,
2014-03-04 20:09:00,25.0,5.1,29.56,East,90,0.0,0.0,42,0.00,,---,0.00,VWS V14.01,2014-03-05 01:09:00,
2014-03-04 20:10:00,25.0,5.1,29.56,East,90,0.0,0.0,42,0.00,,---,0.00,VWS V14.01,2014-03-05 01:10:00,
2014-03-04 20:11:00,25.0,5.1,29.59,ENE,68,0.0,0.0,42,0.00,,---,0.00,VWS V14.01,2014-03-05 01:11:00,
2014-03-04 20:12:00,24.8,5.0,29.59,ENE,68,0.0,0.0,42,0.00,,---,0.00,VWS V14.01,2014-03-05 01:12:00,
2014-03-04 20:13:00,24.8,5.0,29.59,ENE,68,0.0,0.0,42,0.00,,---,0.00,VWS V14.01,2014-03-05 01:13:00,
2014-03-04 20:14:00,24.8,5.0,29.59,East,90,0.0,0.0,42,0.00,,---,0.00,VWS V14.01,2014-03-05 01:14:00,
2014-03-04 20:15:00,24.6,4.8,29.59,East,90,0.0,0.0,42,0.00,,---,0.00,VWS V14.01,2014-03-05 01:15:00,
2014-03-04 20:16:00,24.6,4.8,29.59,East,90,0.0,0.0,42,0.00,,---,0.00,VWS V14.01,2014-03-05 01:16:00,
2014-03-04 20:17:00,24.6,4.8,29.59,East,90,0.0,0.0,42,0.00,,---,0.00,VWS V14.01,2014-03-05 01:17:00,
2014-03-04 20:18:00,24.6,4.8,29.59,East,90,0.0,0.0,42,0.00,,---,0.00,VWS V14.01,2014-03-05 01:18:00,
2014-03-04 20:19:00,24.6,4.8,29.59,ENE,68,0.0,0.0,42,0.00,,---,0.00,VWS V14.01,2014-03-05 01:19:00,
2014-03-04 20:20:00,24.4,4.7,29.59,East,90,0.0,0.0,42,0.00,,---,0.00,VWS V14.01,2014-03-05 01:20:00,
2014-03-04 20:21:00,24.4,4.7,29.59,East,90,0.0,0.0,42,0.00,,---,0.00,VWS V14.01,2014-03-05 01:21:00,
2014-03-04 20:22:00,24.4,4.7,29.59,East,90,0.0,0.0,42,0.00,,---,0.00,VWS V14.01,2014-03-05 01:22:00,
2014-03-04 20:23:00,24.4,4.7,29.59,East,90,0.0,0.0,42,0.00,,---,0.00,VWS V14.01,2014-03-05 01:23:00,
2014-03-04 20:24:00,24.4,5.2,29.59,East,90,0.0,0.0,43,0.00,,---,0.00,VWS V14.01,2014-03-05 01:24:00,
2014-03-04 20:25:00,24.4,5.2,29.59,East,90,0.0,0.0,43,0.00,,---,0.00,VWS V14.01,2014-03-05 01:25:00,
2014-03-04 20:26:00,24.4,5.2,29.56,East,90,0.0,0.0,43,0.00,,---,0.00,VWS V14.01,2014-03-05 01:26:00,
2014-03-04 20:27:00,24.4,5.2,29.56,East,90,0.0,0.0,43,0.00,,---,0.00,VWS V14.01,2014-03-05 01:27:00,
2014-03-04 20:28:00,24.4,5.2,29.56,East,90,0.0,0.0,43,0.00,,---,0.00,VWS V14.01,2014-03-05 01:28:00,
2014-03-04 20:29:00,24.4,5.2,29.56,NE,45,0.0,0.0,43,0.00,,---,0.00,VWS V14.01,2014-03-05 01:29:00,
2014-03-04 20:30:00,24.4,5.2,29.56,East,90,0.0,0.0,43,0.00,,---,0.00,VWS V14.01,2014-03-05 01:30:00,
2014-03-04 20:31:00,24.4,5.2,29.56,NE,45,0.0,0.0,43,0.00,,---,0.00,VWS V14.01,2014-03-05 01:31:00,
2014-03-04 20:32:00,24.4,5.2,29.56,NE,45,0.0,0.0,43,0.00,,---,0.00,VWS V14.01,2014-03-05 01:32:00,
2014-03-04 20:33:00,24.4,5.2,29.56,NE,45,0.0,0.0,43,0.00,,---,0.00,VWS V14.01,2014-03-05 01:33:00,
2014-03-04 20:34:00,24.4,5.2,29.56,NE,45,0.0,0.0,43,0.00,,---,0.00,VWS V14.01,2014-03-05 01:34:00,
2014-03-04 20:35:00,24.4,5.2,29.56,NE,45,0.0,0.0,43,0.00,,---,0.00,VWS V14.01,2014-03-05 01:35:00,
2014-03-04 20:36:00,24.4,5.2,29.56,NE,45,0.0,0.0,43,0.00,,---,0.00,VWS V14.01,2014-03-05 01:36:00,
2014-03-04 20:37:00,24.4,5.2,29.56,NNE,22,0.0,0.0,43,0.00,,---,0.00,VWS V14.01,2014-03-05 01:37:00,
2014-03-04 20:38:00,24.4,5.2,29.56,East,90,0.0,0.0,43,0.00,,---,0.00,VWS V14.01,2014-03-05 01:38:00,
2014-03-04 20:39:00,24.4,5.2,29.56,East,90,0.0,0.0,43,0.00,,---,0.00,VWS V14.01,2014-03-05 01:39:00,
2014-03-04 20:40:00,24.4,5.2,29.56,NE,45,0.0,0.0,43,0.00,,---,0.00,VWS V14.01,2014-03-05 01:40:00,
2014-03-04 20:41:00,24.3,5.0,29.56,NNE,22,0.0,0.0,43,0.00,,---,0.00,VWS V14.01,2014-03-05 01:41:00,
2014-03-04 20:42:00,24.3,5.0,29.56,WNW,292,0.0,0.0,43,0.00,,---,0.00,VWS V14.01,2014-03-05 01:42:00,
2014-03-04 20:43:00,24.3,5.0,29.56,East,90,0.0,0.0,43,0.00,,---,0.00,VWS V14.01,2014-03-05 01:43:00,
2014-03-04 20:44:00,24.3,5.0,29.56,East,90,0.0,0.0,43,0.00,,---,0.00,VWS V14.01,2014-03-05 01:44:00,
2014-03-04 20:45:00,24.3,5.0,29.56,East,90,0.0,0.0,43,0.00,,---,0.00,VWS V14.01,2014-03-05 01:45:00,
2014-03-04 20:46:00,24.3,5.0,29.56,East,90,0.0,0.0,43,0.00,,---,0.00,VWS V14.01,2014-03-05 01:46:00,
2014-03-04 20:47:00,24.3,5.0,29.56,East,90,0.0,0.0,43,0.00,,---,0.00,VWS V14.01,2014-03-05 01:47:00,
2014-03-04 20:48:00,24.3,5.0,29.56,ENE,68,0.0,0.0,43,0.00,,---,0.00,VWS V14.01,2014-03-05 01:48:00,
2014-03-04 20:49:00,24.3,5.0,29.56,ENE,68,0.0,0.0,43,0.00,,---,0.00,VWS V14.01,2014-03-05 01:49:00,
2014-03-04 20:50:00,24.3,5.0,29.56,East,90,0.0,0.0,43,0.00,,---,0.00,VWS V14.01,2014-03-05 01:50:00,
2014-03-04 20:51:00,24.3,5.0,29.56,East,90,0.0,0.0,43,0.00,,---,0.00,VWS V14.01,2014-03-05 01:51:00,
2014-03-04 20:52:00,24.3,5.0,29.56,East,90,0.0,0.0,43,0.00,,---,0.00,VWS V14.01,2014-03-05 01:52:00,
2014-03-04 20:53:00,24.3,5.0,29.56,East,90,0.0,0.0,43,0.00,,---,0.00,VWS V14.01,2014-03-05 01:53:00,
2014-03-04 20:54:00,24.3,5.0,29.56,East,90,0.0,0.0,43,0.00,,---,0.00,VWS V14.01,2014-03-05 01:54:00,
2014-03-04 20:55:00,24.4,5.2,29.56,East,90,0.0,0.0,43,0.00,,---,0.00,VWS V14.01,2014-03-05 01:55:00,
2014-03-04 20:56:00,24.4,5.2,29.53,WNW,292,0.0,0.0,43,0.00,,---,0.00,VWS V14.01,2014-03-05 01:56:00,
2014-03-04 20:57:00,24.3,5.0,29.53,WNW,292,0.0,0.0,43,0.00,,---,0.00,VWS V14.01,2014-03-05 01:57:00,
2014-03-04 20:58:00,24.3,5.0,29.53,WNW,292,0.0,0.0,43,0.00,,---,0.00,VWS V14.01,2014-03-05 01:58:00,
2014-03-04 20:59:00,24.1,5.3,29.56,East,90,0.0,0.0,44,0.00,,---,0.00,VWS V14.01,2014-03-05 01:59:00,
2014-03-04 21:00:00,24.3,5.0,29.53,WNW,292,0.0,0.0,43,0.00,,---,0.00,VWS V14.01,2014-03-05 02:00:00,
2014-03-04 21:01:00,24.1,4.8,29.53,NW,315,0.0,0.0,43,0.00,,---,0.00,VWS V14.01,2014-03-05 02:01:00,
2014-03-04 21:02:00,24.1,4.8,29.53,NW,315,0.0,0.0,43,0.00,,---,0.00,VWS V14.01,2014-03-05 02:02:00,
2014-03-04 21:03:00,24.1,4.8,29.53,NW,315,0.0,0.0,43,0.00,,---,0.00,VWS V14.01,2014-03-05 02:03:00,
2014-03-04 21:04:00,24.1,4.8,29.53,ENE,68,0.0,0.0,43,0.00,,---,0.00,VWS V14.01,2014-03-05 02:04:00,
2014-03-04 21:05:00,24.1,4.8,29.53,ENE,68,0.0,0.0,43,0.00,,---,0.00,VWS V14.01,2014-03-05 02:05:00,
2014-03-04 21:06:00,24.1,4.8,29.53,ENE,68,0.0,0.0,43,0.00,,---,0.00,VWS V14.01,2014-03-05 02:06:00,
2014-03-04 21:07:00,24.1,5.3,29.53,East,90,0.0,0.0,44,0.00,,---,0.00,VWS V14.01,2014-03-05 02:07:00,
2014-03-04 21:08:00,24.1,5.3,29.53,East,90,0.0,0.0,44,0.00,,---,0.00,VWS V14.01,2014-03-05 02:08:00,
2014-03-04 21:09:00,24.1,5.3,29.53,East,90,0.0,0.0,44,0.00,,---,0.00,VWS V14.01,2014-03-05 02:09:00,
2014-03-04 21:10:00,24.1,5.3,29.53,East,90,0.0,0.0,44,0.00,,---,0.00,VWS V14.01,2014-03-05 02:10:00,
2014-03-04 21:11:00,24.1,5.3,29.56,East,90,0.0,0.0,44,0.00,,---,0.00,VWS V14.01,2014-03-05 02:11:00,
2014-03-04 21:12:00,24.3,5.5,29.56,East,90,0.0,0.0,44,0.00,,---,0.00,VWS V14.01,2014-03-05 02:12:00,
2014-03-04 21:13:00,24.3,5.5,29.56,East,90,0.0,0.0,44,0.00,,---,0.00,VWS V14.01,2014-03-05 02:13:00,
2014-03-04 21:14:00,24.3,5.5,29.56,East,90,0.0,0.0,44,0.00,,---,0.00,VWS V14.01,2014-03-05 02:14:00,
2014-03-04 21:15:00,24.3,5.5,29.56,East,90,0.0,0.0,44,0.00,,---,0.00,VWS V14.01,2014-03-05 02:15:00,
2014-03-04 21:16:00,24.3,5.5,29.56,East,90,0.0,0.0,44,0.00,,---,0.00,VWS V14.01,2014-03-05 02:16:00,
2014-03-04 21:17:00,24.3,5.5,29.56,East,90,0.0,0.0,44,0.00,,---,0.00,VWS V14.01,2014-03-05 02:17:00,
2014-03-04 21:18:00,24.3,5.5,29.56,East,90,0.0,0.0,44,0.00,,---,0.00,VWS V14.01,2014-03-05 02:18:00,
2014-03-04 21:19:00,24.3,5.5,29.56,ENE,68,0.0,0.0,44,0.00,,---,0.00,VWS V14.01,2014-03-05 02:19:00,
2014-03-04 21:20:00,24.3,5.5,29.56,ENE,68,0.0,0.0,44,0.00,,---,0.00,VWS V14.01,2014-03-05 02:20:00,
2014-03-04 21:21:00,24.3,5.5,29.56,ENE,68,0.0,0.0,44,0.00,,---,0.00,VWS V14.01,2014-03-05 02:21:00,
2014-03-04 21:22:00,24.3,5.5,29.56,ENE,68,0.0,0.0,44,0.00,,---,0.00,VWS V14.01,2014-03-05 02:22:00,
2014-03-04 21:23:00,24.3,5.5,29.56,East,90,0.0,0.0,44,0.00,,---,0.00,VWS V14.01,2014-03-05 02:23:00,
2014-03-04 21:24:00,24.3,5.5,29.56,East,90,0.0,0.0,44,0.00,,---,0.00,VWS V14.01,2014-03-05 02:24:00,
2014-03-04 21:25:00,24.3,5.5,29.56,East,90,0.0,0.0,44,0.00,,---,0.00,VWS V14.01,2014-03-05 02:25:00,
2014-03-04 21:26:00,24.3,5.5,29.56,East,90,0.0,0.0,44,0.00,,---,0.00,VWS V14.01,2014-03-05 02:26:00,
2014-03-04 21:27:00,24.4,5.7,29.56,East,90,0.0,0.0,44,0.00,,---,0.00,VWS V14.01,2014-03-05 02:27:00,
2014-03-04 21:28:00,24.4,5.7,29.56,East,90,0.0,0.0,44,0.00,,---,0.00,VWS V14.01,2014-03-05 02:28:00,
2014-03-04 21:29:00,24.4,5.2,29.56,East,90,0.0,0.0,43,0.00,,---,0.00,VWS V14.01,2014-03-05 02:29:00,
2014-03-04 21:30:00,24.4,5.2,29.56,East,90,0.0,0.0,43,0.00,,---,0.00,VWS V14.01,2014-03-05 02:30:00,
2014-03-04 21:31:00,24.4,5.2,29.56,East,90,0.0,0.0,43,0.00,,---,0.00,VWS V14.01,2014-03-05 02:31:00,
2014-03-04 21:32:00,24.3,5.0,29.56,East,90,0.0,0.0,43,0.00,,---,0.00,VWS V14.01,2014-03-05 02:32:00,
2014-03-04 21:33:00,24.3,5.0,29.56,East,90,0.0,0.0,43,0.00,,---,0.00,VWS V14.01,2014-03-05 02:33:00,
2014-03-04 21:34:00,24.3,5.0,29.56,East,90,0.0,0.0,43,0.00,,---,0.00,VWS V14.01,2014-03-05 02:34:00,
2014-03-04 21:35:00,24.3,5.0,29.56,East,90,0.0,0.0,43,0.00,,---,0.00,VWS V14.01,2014-03-05 02:35:00,
2014-03-04 21:36:00,24.3,5.0,29.56,East,90,0.0,0.0,43,0.00,,---,0.00,VWS V14.01,2014-03-05 02:36:00,
2014-03-04 21:37:00,24.3,5.0,29.56,NW,315,0.0,0.0,43,0.00,,---,0.00,VWS V14.01,2014-03-05 02:37:00,
2014-03-04 21:38:00,24.3,5.0,29.56,WNW,292,0.0,0.0,43,0.00,,---,0.00,VWS V14.01,2014-03-05 02:38:00,
2014-03-04 21:39:00,24.3,5.0,29.56,NW,315,0.0,0.0,43,0.00,,---,0.00,VWS V14.01,2014-03-05 02:39:00,
2014-03-04 21:40:00,24.3,5.0,29.56,WNW,292,0.0,0.0,43,0.00,,---,0.00,VWS V14.01,2014-03-05 02:40:00,
2014-03-04 21:41:00,24.3,5.0,29.56,WNW,292,0.0,0.0,43,0.00,,---,0.00,VWS V14.01,2014-03-05 02:41:00,
2014-03-04 21:42:00,24.3,5.0,29.56,WNW,292,0.0,0.0,43,0.00,,---,0.00,VWS V14.01,2014-03-05 02:42:00,
2014-03-04 21:43:00,24.3,5.0,29.56,WNW,292,0.0,0.0,43,0.00,,---,0.00,VWS V14.01,2014-03-05 02:43:00,
2014-03-04 21:44:00,24.3,5.0,29.56,South,180,0.0,0.0,43,0.00,,---,0.00,VWS V14.01,2014-03-05 02:44:00,
2014-03-04 21:45:00,24.3,5.0,29.56,East,90,0.0,0.0,43,0.00,,---,0.00,VWS V14.01,2014-03-05 02:45:00,
2014-03-04 21:46:00,24.3,5.0,29.56,East,90,0.0,0.0,43,0.00,,---,0.00,VWS V14.01,2014-03-05 02:46:00,
2014-03-04 21:47:00,24.4,5.7,29.56,East,90,0.0,0.0,44,0.00,,---,0.00,VWS V14.01,2014-03-05 02:47:00,
2014-03-04 21:48:00,24.4,5.7,29.56,East,90,0.0,0.0,44,0.00,,---,0.00,VWS V14.01,2014-03-05 02:48:00,
2014-03-04 21:49:00,24.3,5.5,29.56,East,90,0.0,0.0,44,0.00,,---,0.00,VWS V14.01,2014-03-05 02:49:00,
2014-03-04 21:50:00,24.3,5.5,29.56,East,90,0.0,0.0,44,0.00,,---,0.00,VWS V14.01,2014-03-05 02:50:00,
2014-03-04 21:51:00,24.3,5.5,29.56,ESE,112,0.0,0.0,44,0.00,,---,0.00,VWS V14.01,2014-03-05 02:51:00,
2014-03-04 21:52:00,24.1,5.3,29.56,East,90,0.0,0.0,44,0.00,,---,0.00,VWS V14.01,2014-03-05 02:52:00,
2014-03-04 21:53:00,24.1,5.3,29.56,East,90,0.0,0.0,44,0.00,,---,0.00,VWS V14.01,2014-03-05 02:53:00,
2014-03-04 21:54:00,24.1,5.3,29.56,East,90,0.0,0.0,44,0.00,,---,0.00,VWS V14.01,2014-03-05 02:54:00,
2014-03-04 21:55:00,24.1,5.3,29.56,East,90,0.0,0.0,44,0.00,,---,0.00,VWS V14.01,2014-03-05 02:55:00,
2014-03-04 21:56:00,24.1,5.3,29.56,East,90,0.0,0.0,44,0.00,,---,0.00,VWS V14.01,2014-03-05 02:56:00,
2014-03-04 21:57:00,24.1,5.3,29.56,East,90,0.0,0.0,44,0.00,,---,0.00,VWS V14.01,2014-03-05 02:57:00,
2014-03-04 21:58:00,24.1,5.3,29.56,East,90,0.0,0.0,44,0.00,,---,0.00,VWS V14.01,2014-03-05 02:58:00,
2014-03-04 21:59:00,24.1,5.3,29.56,East,90,0.0,0.0,44,0.00,,---,0.00,VWS V14.01,2014-03-05 02:59:00,
2014-03-04 22:00:00,24.1,5.3,29.56,East,90,0.0,0.0,44,0.00,,---,0.00,VWS V14.01,2014-03-05 03:00:00,
2014-03-04 22:01:00,23.9,5.2,29.56,East,90,0.0,0.0,44,0.00,,---,0.00,VWS V14.01,2014-03-05 03:01:00,
2014-03-04 22:02:00,23.9,5.2,29.56,East,90,0.0,0.0,44,0.00,,---,0.00,VWS V14.01,2014-03-05 03:02:00,
2014-03-04 22:03:00,23.9,5.2,29.56,East,90,0.0,0.0,44,0.00,,---,0.00,VWS V14.01,2014-03-05 03:03:00,
2014-03-04 22:04:00,23.9,5.2,29.56,East,90,0.0,0.0,44,0.00,,---,0.00,VWS V14.01,2014-03-05 03:04:00,
2014-03-04 22:05:00,23.9,5.2,29.56,East,90,0.0,0.0,44,0.00,,---,0.00,VWS V14.01,2014-03-05 03:05:00,
2014-03-04 22:06:00,23.9,5.7,29.56,East,90,0.0,0.0,45,0.00,,---,0.00,VWS V14.01,2014-03-05 03:06:00,
2014-03-04 22:07:00,23.9,5.7,29.56,East,90,0.0,0.0,45,0.00,,---,0.00,VWS V14.01,2014-03-05 03:07:00,
2014-03-04 22:08:00,23.9,5.7,29.56,East,90,0.0,0.0,45,0.00,,---,0.00,VWS V14.01,2014-03-05 03:08:00,
2014-03-04 22:09:00,23.9,5.7,29.56,East,90,0.0,0.0,45,0.00,,---,0.00,VWS V14.01,2014-03-05 03:09:00,
2014-03-04 22:10:00,23.7,5.5,29.56,NW,315,0.0,0.0,45,0.00,,---,0.00,VWS V14.01,2014-03-05 03:10:00,
2014-03-04 22:11:00,23.7,5.0,29.56,WNW,292,0.0,0.0,44,0.00,,---,0.00,VWS V14.01,2014-03-05 03:11:00,
2014-03-04 22:12:00,23.7,5.0,29.56,WNW,292,0.0,0.0,44,0.00,,---,0.00,VWS V14.01,2014-03-05 03:12:00,
2014-03-04 22:13:00,23.7,5.0,29.56,WNW,292,0.0,0.0,44,0.00,,---,0.00,VWS V14.01,2014-03-05 03:13:00,
2014-03-04 22:14:00,23.7,5.0,29.56,NW,315,0.0,0.0,44,0.00,,---,0.00,VWS V14.01,2014-03-05 03:14:00,
2014-03-04 22:15:00,23.7,5.0,29.56,East,90,0.0,0.0,44,0.00,,---,0.00,VWS V14.01,2014-03-05 03:15:00,
2014-03-04 22:16:00,23.7,5.0,29.56,East,90,0.0,0.0,44,0.00,,---,0.00,VWS V14.01,2014-03-05 03:16:00,
2014-03-04 22:17:00,23.7,5.0,29.56,East,90,0.0,0.0,44,0.00,,---,0.00,VWS V14.01,2014-03-05 03:17:00,
2014-03-04 22:18:00,23.7,5.0,29.56,East,90,0.0,0.0,44,0.00,,---,0.00,VWS V14.01,2014-03-05 03:18:00,
2014-03-04 22:19:00,23.7,5.0,29.56,East,90,0.0,0.0,44,0.00,,---,0.00,VWS V14.01,2014-03-05 03:19:00,
2014-03-04 22:20:00,23.7,5.0,29.56,East,90,0.0,0.0,44,0.00,,---,0.00,VWS V14.01,2014-03-05 03:20:00,
2014-03-04 22:21:00,23.7,5.0,29.56,East,90,0.0,0.0,44,0.00,,---,0.00,VWS V14.01,2014-03-05 03:21:00,
2014-03-04 22:22:00,23.5,5.3,29.56,East,90,0.0,0.0,45,0.00,,---,0.00,VWS V14.01,2014-03-05 03:22:00,
2014-03-04 22:23:00,23.5,5.3,29.56,East,90,0.0,0.0,45,0.00,,---,0.00,VWS V14.01,2014-03-05 03:23:00,
2014-03-04 22:24:00,23.5,5.3,29.56,East,90,0.0,0.0,45,0.00,,---,0.00,VWS V14.01,2014-03-05 03:24:00,
2014-03-04 22:25:00,23.7,5.5,29.56,East,90,0.0,0.0,45,0.00,,---,0.00,VWS V14.01,2014-03-05 03:25:00,
2014-03-04 22:26:00,23.7,5.5,29.56,East,90,0.0,0.0,45,0.00,,---,0.00,VWS V14.01,2014-03-05 03:26:00,
2014-03-04 22:27:00,23.7,5.5,29.56,East,90,0.0,0.0,45,0.00,,---,0.00,VWS V14.01,2014-03-05 03:27:00,
2014-03-04 22:28:00,23.7,5.5,29.56,WNW,292,0.0,0.0,45,0.00,,---,0.00,VWS V14.01,2014-03-05 03:28:00,
2014-03-04 22:29:00,23.5,5.3,29.56,West,270,0.0,0.0,45,0.00,,---,0.00,VWS V14.01,2014-03-05 03:29:00,
2014-03-04 22:30:00,23.5,5.3,29.56,NW,315,0.0,0.0,45,0.00,,---,0.00,VWS V14.01,2014-03-05 03:30:00,
2014-03-04 22:31:00,23.5,5.3,29.56,WNW,292,0.0,0.0,45,0.00,,---,0.00,VWS V14.01,2014-03-05 03:31:00,
2014-03-04 22:32:00,23.5,5.3,29.56,ESE,112,0.0,0.0,45,0.00,,---,0.00,VWS V14.01,2014-03-05 03:32:00,
2014-03-04 22:33:00,23.5,5.3,29.56,East,90,0.0,0.0,45,0.00,,---,0.00,VWS V14.01,2014-03-05 03:33:00,
2014-03-04 22:34:00,23.5,5.3,29.56,East,90,0.0,0.0,45,0.00,,---,0.00,VWS V14.01,2014-03-05 03:34:00,
2014-03-04 22:35:00,23.5,5.3,29.56,East,90,0.0,0.0,45,0.00,,---,0.00,VWS V14.01,2014-03-05 03:35:00,
2014-03-04 22:36:00,23.5,5.3,29.56,East,90,0.0,0.0,45,0.00,,---,0.00,VWS V14.01,2014-03-05 03:36:00,
2014-03-04 22:37:00,23.5,5.3,29.56,East,90,0.0,0.0,45,0.00,,---,0.00,VWS V14.01,2014-03-05 03:37:00,
2014-03-04 22:38:00,23.5,5.3,29.56,East,90,0.0,0.0,45,0.00,,---,0.00,VWS V14.01,2014-03-05 03:38:00,
2014-03-04 22:39:00,23.5,5.3,29.56,East,90,0.0,0.0,45,0.00,,---,0.00,VWS V14.01,2014-03-05 03:39:00,
2014-03-04 22:40:00,23.5,5.3,29.56,East,90,0.0,0.0,45,0.00,,---,0.00,VWS V14.01,2014-03-05 03:40:00,
2014-03-04 22:41:00,23.5,5.3,29.53,East,90,0.0,0.0,45,0.00,,---,0.00,VWS V14.01,2014-03-05 03:41:00,
2014-03-04 22:42:00,23.5,5.3,29.53,West,270,0.0,0.0,45,0.00,,---,0.00,VWS V14.01,2014-03-05 03:42:00,
2014-03-04 22:43:00,23.5,5.3,29.53,East,90,0.0,0.0,45,0.00,,---,0.00,VWS V14.01,2014-03-05 03:43:00,
2014-03-04 22:44:00,23.5,5.3,29.53,WNW,292,0.0,0.0,45,0.00,,---,0.00,VWS V14.01,2014-03-05 03:44:00,
2014-03-04 22:45:00,23.5,5.3,29.53,WNW,292,0.0,0.0,45,0.00,,---,0.00,VWS V14.01,2014-03-05 03:45:00,
2014-03-04 22:46:00,23.5,5.3,29.53,NW,315,0.0,0.0,45,0.00,,---,0.00,VWS V14.01,2014-03-05 03:46:00,
2014-03-04 22:47:00,23.5,5.3,29.53,WNW,292,0.0,0.0,45,0.00,,---,0.00,VWS V14.01,2014-03-05 03:47:00,
2014-03-04 22:48:00,23.4,5.2,29.53,NW,315,0.0,0.0,45,0.00,,---,0.00,VWS V14.01,2014-03-05 03:48:00,
2014-03-04 22:49:00,23.0,5.3,29.53,WNW,292,0.0,0.0,46,0.00,,---,0.00,VWS V14.01,2014-03-05 03:49:00,
2014-03-04 22:50:00,23.4,5.2,29.53,WNW,292,0.0,0.0,45,0.00,,---,0.00,VWS V14.01,2014-03-05 03:50:00,
2014-03-04 22:51:00,23.2,5.0,29.53,WNW,292,0.0,0.0,45,0.00,,---,0.00,VWS V14.01,2014-03-05 03:51:00,
2014-03-04 22:52:00,23.2,5.0,29.53,WNW,292,0.0,0.0,45,0.00,,---,0.00,VWS V14.01,2014-03-05 03:52:00,
2014-03-04 22:53:00,23.2,5.0,29.53,WNW,292,0.0,0.0,45,0.00,,---,0.00,VWS V14.01,2014-03-05 03:53:00,
2014-03-04 22:54:00,23.2,5.0,29.53,SE,135,0.0,0.0,45,0.00,,---,0.00,VWS V14.01,2014-03-05 03:54:00,
2014-03-04 22:55:00,23.2,5.0,29.53,East,90,0.0,0.0,45,0.00,,---,0.00,VWS V14.01,2014-03-05 03:55:00,
2014-03-04 22:56:00,23.2,5.0,29.53,East,90,0.0,0.0,45,0.00,,---,0.00,VWS V14.01,2014-03-05 03:56:00,
2014-03-04 22:57:00,23.4,5.2,29.53,East,90,0.0,0.0,45,0.00,,---,0.00,VWS V14.01,2014-03-05 03:57:00,
2014-03-04 22:58:00,23.4,5.2,29.53,East,90,0.0,0.0,45,0.00,,---,0.00,VWS V14.01,2014-03-05 03:58:00,
2014-03-04 22:59:00,23.4,5.2,29.53,East,90,0.0,0.0,45,0.00,,---,0.00,VWS V14.01,2014-03-05 03:59:00,
2014-03-04 23:00:00,23.4,5.7,29.53,East,90,0.0,0.0,46,0.00,,---,0.00,VWS V14.01,2014-03-05 04:00:00,
2014-03-04 23:01:00,23.4,5.7,29.53,ESE,112,0.0,0.0,46,0.00,,---,0.00,VWS V14.01,2014-03-05 04:01:00,
2014-03-04 23:02:00,23.4,5.2,29.53,ESE,112,0.0,0.0,45,0.00,,---,0.00,VWS V14.01,2014-03-05 04:02:00,
2014-03-04 23:03:00,23.4,5.2,29.53,ESE,112,0.0,0.0,45,0.00,,---,0.00,VWS V14.01,2014-03-05 04:03:00,
2014-03-04 23:04:00,23.4,5.2,29.53,East,90,0.0,0.0,45,0.00,,---,0.00,VWS V14.01,2014-03-05 04:04:00,
2014-03-04 23:05:00,23.4,5.2,29.53,WSW,248,0.0,0.0,45,0.00,,---,0.00,VWS V14.01,2014-03-05 04:05:00,
2014-03-04 23:06:00,23.4,5.2,29.53,WSW,248,0.0,0.0,45,0.00,,---,0.00,VWS V14.01,2014-03-05 04:06:00,
2014-03-04 23:07:00,23.2,5.0,29.53,West,270,0.0,0.0,45,0.00,,---,0.00,VWS V14.01,2014-03-05 04:07:00,
2014-03-04 23:08:00,23.2,5.0,29.53,West,270,0.0,0.0,45,0.00,,---,0.00,VWS V14.01,2014-03-05 04:08:00,
2014-03-04 23:09:00,23.2,5.0,29.53,WSW,248,0.0,0.0,45,0.00,,---,0.00,VWS V14.01,2014-03-05 04:09:00,
2014-03-04 23:10:00,23.2,5.0,29.53,WSW,248,0.0,0.0,45,0.00,,---,0.00,VWS V14.01,2014-03-05 04:10:00,
2014-03-04 23:11:00,23.2,5.0,29.50,West,270,0.0,0.0,45,0.00,,---,0.00,VWS V14.01,2014-03-05 04:11:00,
2014-03-04 23:12:00,23.2,5.0,29.50,North,0,0.0,0.0,45,0.00,,---,0.00,VWS V14.01,2014-03-05 04:12:00,
2014-03-04 23:13:00,23.2,5.0,29.50,North,0,0.0,0.0,45,0.00,,---,0.00,VWS V14.01,2014-03-05 04:13:00,
2014-03-04 23:14:00,23.2,5.0,29.50,North,0,0.0,0.0,45,0.00,,---,0.00,VWS V14.01,2014-03-05 04:14:00,
2014-03-04 23:15:00,23.2,5.0,29.50,North,0,0.0,0.0,45,0.00,,---,0.00,VWS V14.01,2014-03-05 04:15:00,
2014-03-04 23:16:00,23.2,5.0,29.50,North,0,0.0,0.0,45,0.00,,---,0.00,VWS V14.01,2014-03-05 04:16:00,
2014-03-04 23:17:00,23.2,5.0,29.50,North,0,0.0,0.0,45,0.00,,---,0.00,VWS V14.01,2014-03-05 04:17:00,
2014-03-04 23:18:00,23.2,5.0,29.50,WNW,292,0.0,0.0,45,0.00,,---,0.00,VWS V14.01,2014-03-05 04:18:00,
2014-03-04 23:19:00,23.2,5.0,29.50,West,270,0.0,0.0,45,0.00,,---,0.00,VWS V14.01,2014-03-05 04:19:00,
2014-03-04 23:20:00,23.2,5.5,29.50,WNW,292,0.0,0.0,46,0.00,,---,0.00,VWS V14.01,2014-03-05 04:20:00,
2014-03-04 23:21:00,23.2,5.5,29.50,WNW,292,0.0,0.0,46,0.00,,---,0.00,VWS V14.01,2014-03-05 04:21:00,
2014-03-04 23:22:00,23.0,5.3,29.50,NNW,338,0.0,0.0,46,0.00,,---,0.00,VWS V14.01,2014-03-05 04:22:00,
2014-03-04 23:23:00,23.0,5.3,29.50,NNE,22,0.0,0.0,46,0.00,,---,0.00,VWS V14.01,2014-03-05 04:23:00,
2014-03-04 23:24:00,23.0,4.8,29.50,ENE,68,0.0,0.0,45,0.00,,---,0.00,VWS V14.01,2014-03-05 04:24:00,
2014-03-04 23:25:00,23.0,4.8,29.50,East,90,0.0,0.0,45,0.00,,---,0.00,VWS V14.01,2014-03-05 04:25:00,
2014-03-04 23:26:00,23.0,4.8,29.53,ENE,68,0.0,0.0,45,0.00,,---,0.00,VWS V14.01,2014-03-05 04:26:00,
2014-03-04 23:27:00,23.0,5.3,29.53,ENE,68,0.0,0.0,46,0.00,,---,0.00,VWS V14.01,2014-03-05 04:27:00,
2014-03-04 23:28:00,23.2,5.0,29.53,ENE,68,0.0,0.0,45,0.00,,---,0.00,VWS V14.01,2014-03-05 04:28:00,
2014-03-04 23:29:00,23.2,5.0,29.53,NE,45,0.0,0.0,45,0.00,,---,0.00,VWS V14.01,2014-03-05 04:29:00,
2014-03-04 23:30:00,23.2,5.5,29.53,NW,315,0.0,0.0,46,0.00,,---,0.00,VWS V14.01,2014-03-05 04:30:00,
2014-03-04 23:31:00,23.2,5.5,29.53,NW,315,0.0,0.0,46,0.00,,---,0.00,VWS V14.01,2014-03-05 04:31:00,
2014-03-04 23:32:00,23.2,5.5,29.53,NW,315,0.0,0.0,46,0.00,,---,0.00,VWS V14.01,2014-03-05 04:32:00,
2014-03-04 23:33:00,23.2,5.5,29.53,WNW,292,0.0,0.0,46,0.00,,---,0.00,VWS V14.01,2014-03-05 04:33:00,
2014-03-04 23:34:00,23.2,5.0,29.53,WNW,292,0.0,0.0,45,0.00,,---,0.00,VWS V14.01,2014-03-05 04:34:00,
2014-03-04 23:35:00,23.2,5.0,29.53,East,90,0.0,0.0,45,0.00,,---,0.00,VWS V14.01,2014-03-05 04:35:00,
2014-03-04 23:36:00,23.2,5.0,29.53,East,90,0.0,0.0,45,0.00,,---,0.00,VWS V14.01,2014-03-05 04:36:00,
2014-03-04 23:37:00,23.2,5.0,29.53,East,90,0.0,0.0,45,0.00,,---,0.00,VWS V14.01,2014-03-05 04:37:00,
2014-03-04 23:38:00,23.2,5.0,29.53,East,90,0.0,0.0,45,0.00,,---,0.00,VWS V14.01,2014-03-05 04:38:00,
2014-03-04 23:39:00,23.2,5.5,29.53,East,90,0.0,0.0,46,0.00,,---,0.00,VWS V14.01,2014-03-05 04:39:00,
2014-03-04 23:40:00,23.2,5.5,29.53,West,270,0.0,0.0,46,0.00,,---,0.00,VWS V14.01,2014-03-05 04:40:00,
2014-03-04 23:41:00,23.2,5.5,29.53,West,270,0.0,0.0,46,0.00,,---,0.00,VWS V14.01,2014-03-05 04:41:00,
2014-03-04 23:42:00,23.0,5.3,29.53,WNW,292,0.0,0.0,46,0.00,,---,0.00,VWS V14.01,2014-03-05 04:42:00,
2014-03-04 23:43:00,23.0,5.3,29.53,West,270,0.0,0.0,46,0.00,,---,0.00,VWS V14.01,2014-03-05 04:43:00,
2014-03-04 23:44:00,23.0,5.3,29.53,West,270,0.0,0.0,46,0.00,,---,0.00,VWS V14.01,2014-03-05 04:44:00,
2014-03-04 23:45:00,23.0,5.3,29.53,WNW,292,0.0,0.0,46,0.00,,---,0.00,VWS V14.01,2014-03-05 04:45:00,
2014-03-04 23:46:00,23.0,5.3,29.53,WNW,292,0.0,0.0,46,0.00,,---,0.00,VWS V14.01,2014-03-05 04:46:00,
2014-03-04 23:47:00,23.0,5.3,29.53,WNW,292,0.0,0.0,46,0.00,,---,0.00,VWS V14.01,2014-03-05 04:47:00,
2014-03-04 23:48:00,23.0,5.3,29.53,WNW,292,0.0,0.0,46,0.00,,---,0.00,VWS V14.01,2014-03-05 04:48:00,
2014-03-04 23:49:00,23.0,5.3,29.53,WNW,292,0.0,0.0,46,0.00,,---,0.00,VWS V14.01,2014-03-05 04:49:00,
2014-03-04 23:50:00,23.5,6.3,29.50,East,90,0.0,0.0,47,0.00,,---,0.00,VWS V14.01,2014-03-05 04:50:00,
2014-03-04 23:51:00,23.0,5.3,29.53,NW,315,0.0,0.0,46,0.00,,---,0.00,VWS V14.01,2014-03-05 04:51:00,
2014-03-04 23:52:00,23.2,5.0,29.53,NE,45,0.0,0.0,45,0.00,,---,0.00,VWS V14.01,2014-03-05 04:52:00,
2014-03-04 23:53:00,23.2,5.0,29.53,ENE,68,0.0,0.0,45,0.00,,---,0.00,VWS V14.01,2014-03-05 04:53:00,
2014-03-04 23:54:00,23.2,5.5,29.53,East,90,0.0,0.0,46,0.00,,---,0.00,VWS V14.01,2014-03-05 04:54:00,
2014-03-04 23:55:00,23.2,5.5,29.53,East,90,0.0,0.0,46,0.00,,---,0.00,VWS V14.01,2014-03-05 04:55:00,
2014-03-04 23:56:00,23.2,5.5,29.53,ESE,112,0.0,0.0,46,0.00,,---,0.00,VWS V14.01,2014-03-05 04:56:00,
2014-03-04 23:57:00,23.2,5.5,29.53,East,90,0.0,0.0,46,0.00,,---,0.00,VWS V14.01,2014-03-05 04:57:00,
2014-03-04 23:58:00,23.2,5.5,29.53,East,90,0.0,0.0,46,0.00,,---,0.00,VWS V14.01,2014-03-05 04:58:00,
2014-03-04 23:59:00,23.2,5.5,29.53,East,90,0.0,0.0,46,0.00,,---,0.00,VWS V14.01,2014-03-05 04:59:00,